<?xml version="1.0" encoding="UTF-8" standalone="no" ?>
<gpx xmlns="http://www.topografix.com/GPX/1/1" xmlns:xsi="http://www.w3.org/2001/XMLSchema-instance" xsi:schemaLocation="http://www.topografix.com/GPX/1/1 http://www.topografix.com/GPX/1/1/gpx.xsd" version="1.1" creator="VisuGPX - https://www.visugpx.com">
  <metadata>
    <name>Pic de la Belle Etoile</name>
  </metadata>
  <trk>
    <name><![CDATA[Pic de la Belle Etoile]]></name>
    <trkseg>
      <trkpt lat="45.24312" lon="5.97996">
        <ele>1085.2</ele>
        <time>2021-03-23T08:19:01Z</time>
      </trkpt>
      <trkpt lat="45.24311" lon="5.97986">
        <ele>1085.7</ele>
        <time>2021-03-23T08:19:03Z</time>
      </trkpt>
      <trkpt lat="45.24304" lon="5.97997">
        <ele>1086.6</ele>
        <time>2021-03-23T08:20:51Z</time>
      </trkpt>
      <trkpt lat="45.24305" lon="5.97996">
        <ele>1086.6</ele>
        <time>2021-03-23T08:20:56Z</time>
      </trkpt>
      <trkpt lat="45.2428" lon="5.98008">
        <ele>1088.3</ele>
        <time>2021-03-23T08:21:12Z</time>
      </trkpt>
      <trkpt lat="45.24271" lon="5.98013">
        <ele>1089.4</ele>
        <time>2021-03-23T08:21:21Z</time>
      </trkpt>
      <trkpt lat="45.24257" lon="5.98015">
        <ele>1090.8</ele>
        <time>2021-03-23T08:21:35Z</time>
      </trkpt>
      <trkpt lat="45.24231" lon="5.98033">
        <ele>1093.7</ele>
        <time>2021-03-23T08:22:03Z</time>
      </trkpt>
      <trkpt lat="45.24209" lon="5.98037">
        <ele>1095.8</ele>
        <time>2021-03-23T08:22:22Z</time>
      </trkpt>
      <trkpt lat="45.24205" lon="5.98041">
        <ele>1096.2</ele>
        <time>2021-03-23T08:22:26Z</time>
      </trkpt>
      <trkpt lat="45.24199" lon="5.98052">
        <ele>1097</ele>
        <time>2021-03-23T08:22:36Z</time>
      </trkpt>
      <trkpt lat="45.24182" lon="5.9807">
        <ele>1098.7</ele>
        <time>2021-03-23T08:22:53Z</time>
      </trkpt>
      <trkpt lat="45.24164" lon="5.98097">
        <ele>1101</ele>
        <time>2021-03-23T08:23:17Z</time>
      </trkpt>
      <trkpt lat="45.24156" lon="5.98105">
        <ele>1101.9</ele>
        <time>2021-03-23T08:23:25Z</time>
      </trkpt>
      <trkpt lat="45.24141" lon="5.98116">
        <ele>1103.5</ele>
        <time>2021-03-23T08:23:38Z</time>
      </trkpt>
      <trkpt lat="45.24127" lon="5.9812">
        <ele>1104.7</ele>
        <time>2021-03-23T08:23:51Z</time>
      </trkpt>
      <trkpt lat="45.24118" lon="5.98128">
        <ele>1105.6</ele>
        <time>2021-03-23T08:24:00Z</time>
      </trkpt>
      <trkpt lat="45.24101" lon="5.98155">
        <ele>1107.9</ele>
        <time>2021-03-23T08:24:22Z</time>
      </trkpt>
      <trkpt lat="45.24095" lon="5.98182">
        <ele>1109.8</ele>
        <time>2021-03-23T08:24:40Z</time>
      </trkpt>
      <trkpt lat="45.24093" lon="5.98206">
        <ele>1111.4</ele>
        <time>2021-03-23T08:24:56Z</time>
      </trkpt>
      <trkpt lat="45.24089" lon="5.98231">
        <ele>1113</ele>
        <time>2021-03-23T08:25:11Z</time>
      </trkpt>
      <trkpt lat="45.24082" lon="5.98259">
        <ele>1114.9</ele>
        <time>2021-03-23T08:25:28Z</time>
      </trkpt>
      <trkpt lat="45.24062" lon="5.98296">
        <ele>1117.9</ele>
        <time>2021-03-23T08:25:57Z</time>
      </trkpt>
      <trkpt lat="45.24045" lon="5.9831">
        <ele>1119.8</ele>
        <time>2021-03-23T08:26:16Z</time>
      </trkpt>
      <trkpt lat="45.24032" lon="5.98316">
        <ele>1121.2</ele>
        <time>2021-03-23T08:26:28Z</time>
      </trkpt>
      <trkpt lat="45.2401" lon="5.98313">
        <ele>1123.7</ele>
        <time>2021-03-23T08:26:46Z</time>
      </trkpt>
      <trkpt lat="45.23994" lon="5.98307">
        <ele>1125.5</ele>
        <time>2021-03-23T08:27:01Z</time>
      </trkpt>
      <trkpt lat="45.23981" lon="5.98307">
        <ele>1126.7</ele>
        <time>2021-03-23T08:27:12Z</time>
      </trkpt>
      <trkpt lat="45.23975" lon="5.98311">
        <ele>1127.4</ele>
        <time>2021-03-23T08:27:18Z</time>
      </trkpt>
      <trkpt lat="45.23956" lon="5.98342">
        <ele>1130.1</ele>
        <time>2021-03-23T08:27:42Z</time>
      </trkpt>
      <trkpt lat="45.2394" lon="5.98355">
        <ele>1131.9</ele>
        <time>2021-03-23T08:27:58Z</time>
      </trkpt>
      <trkpt lat="45.23918" lon="5.98378">
        <ele>1134.5</ele>
        <time>2021-03-23T08:28:21Z</time>
      </trkpt>
      <trkpt lat="45.23909" lon="5.98396">
        <ele>1136</ele>
        <time>2021-03-23T08:28:34Z</time>
      </trkpt>
      <trkpt lat="45.23905" lon="5.98418">
        <ele>1137.5</ele>
        <time>2021-03-23T08:28:47Z</time>
      </trkpt>
      <trkpt lat="45.23897" lon="5.98434">
        <ele>1138.8</ele>
        <time>2021-03-23T08:28:58Z</time>
      </trkpt>
      <trkpt lat="45.23891" lon="5.98441">
        <ele>1139.5</ele>
        <time>2021-03-23T08:29:04Z</time>
      </trkpt>
      <trkpt lat="45.23881" lon="5.98445">
        <ele>1140.5</ele>
        <time>2021-03-23T08:29:14Z</time>
      </trkpt>
      <trkpt lat="45.23877" lon="5.98443">
        <ele>1141</ele>
        <time>2021-03-23T08:29:18Z</time>
      </trkpt>
      <trkpt lat="45.23836" lon="5.98441">
        <ele>1144.8</ele>
        <time>2021-03-23T08:29:51Z</time>
      </trkpt>
      <trkpt lat="45.23822" lon="5.98438">
        <ele>1146.2</ele>
        <time>2021-03-23T08:30:03Z</time>
      </trkpt>
      <trkpt lat="45.23782" lon="5.98434">
        <ele>1150</ele>
        <time>2021-03-23T08:30:43Z</time>
      </trkpt>
      <trkpt lat="45.23776" lon="5.98436">
        <ele>1150.7</ele>
        <time>2021-03-23T08:30:48Z</time>
      </trkpt>
      <trkpt lat="45.23769" lon="5.98444">
        <ele>1151.5</ele>
        <time>2021-03-23T08:30:59Z</time>
      </trkpt>
      <trkpt lat="45.23754" lon="5.98453">
        <ele>1153</ele>
        <time>2021-03-23T08:31:17Z</time>
      </trkpt>
      <trkpt lat="45.23746" lon="5.98463">
        <ele>1154.1</ele>
        <time>2021-03-23T08:31:28Z</time>
      </trkpt>
      <trkpt lat="45.23721" lon="5.98481">
        <ele>1156.7</ele>
        <time>2021-03-23T08:31:52Z</time>
      </trkpt>
      <trkpt lat="45.23715" lon="5.98483">
        <ele>1157.3</ele>
        <time>2021-03-23T08:31:57Z</time>
      </trkpt>
      <trkpt lat="45.23706" lon="5.98492">
        <ele>1158.3</ele>
        <time>2021-03-23T08:32:08Z</time>
      </trkpt>
      <trkpt lat="45.23703" lon="5.98488">
        <ele>1159.3</ele>
        <time>2021-03-23T08:32:46Z</time>
      </trkpt>
      <trkpt lat="45.23679" lon="5.98492">
        <ele>1161.6</ele>
        <time>2021-03-23T08:33:04Z</time>
      </trkpt>
      <trkpt lat="45.23669" lon="5.98491">
        <ele>1162.5</ele>
        <time>2021-03-23T08:33:14Z</time>
      </trkpt>
      <trkpt lat="45.23655" lon="5.98484">
        <ele>1163.9</ele>
        <time>2021-03-23T08:33:28Z</time>
      </trkpt>
      <trkpt lat="45.23641" lon="5.98486">
        <ele>1165.3</ele>
        <time>2021-03-23T08:33:39Z</time>
      </trkpt>
      <trkpt lat="45.23627" lon="5.98495">
        <ele>1166.7</ele>
        <time>2021-03-23T08:33:54Z</time>
      </trkpt>
      <trkpt lat="45.23616" lon="5.98506">
        <ele>1168.1</ele>
        <time>2021-03-23T08:34:09Z</time>
      </trkpt>
      <trkpt lat="45.23605" lon="5.9851">
        <ele>1169.1</ele>
        <time>2021-03-23T08:34:16Z</time>
      </trkpt>
      <trkpt lat="45.23585" lon="5.98526">
        <ele>1171.4</ele>
        <time>2021-03-23T08:34:38Z</time>
      </trkpt>
      <trkpt lat="45.23565" lon="5.98535">
        <ele>1173.3</ele>
        <time>2021-03-23T08:34:59Z</time>
      </trkpt>
      <trkpt lat="45.23555" lon="5.98548">
        <ele>1174.6</ele>
        <time>2021-03-23T08:35:14Z</time>
      </trkpt>
      <trkpt lat="45.23549" lon="5.9855">
        <ele>1175.2</ele>
        <time>2021-03-23T08:35:22Z</time>
      </trkpt>
      <trkpt lat="45.23544" lon="5.98559">
        <ele>1176</ele>
        <time>2021-03-23T08:35:32Z</time>
      </trkpt>
      <trkpt lat="45.23531" lon="5.98574">
        <ele>1177.6</ele>
        <time>2021-03-23T08:35:49Z</time>
      </trkpt>
      <trkpt lat="45.23528" lon="5.98584">
        <ele>1178.4</ele>
        <time>2021-03-23T08:35:57Z</time>
      </trkpt>
      <trkpt lat="45.2352" lon="5.98595">
        <ele>1179.4</ele>
        <time>2021-03-23T08:36:06Z</time>
      </trkpt>
      <trkpt lat="45.23515" lon="5.98606">
        <ele>1180.3</ele>
        <time>2021-03-23T08:36:15Z</time>
      </trkpt>
      <trkpt lat="45.23493" lon="5.98635">
        <ele>1183.3</ele>
        <time>2021-03-23T08:36:50Z</time>
      </trkpt>
      <trkpt lat="45.23493" lon="5.98637">
        <ele>1183.5</ele>
        <time>2021-03-23T08:36:58Z</time>
      </trkpt>
      <trkpt lat="45.23496" lon="5.98636">
        <ele>1183.8</ele>
        <time>2021-03-23T08:37:09Z</time>
      </trkpt>
      <trkpt lat="45.23495" lon="5.98634">
        <ele>1184</ele>
        <time>2021-03-23T08:37:21Z</time>
      </trkpt>
      <trkpt lat="45.23496" lon="5.98635">
        <ele>1184.1</ele>
        <time>2021-03-23T08:37:28Z</time>
      </trkpt>
      <trkpt lat="45.23494" lon="5.98635">
        <ele>1184.6</ele>
        <time>2021-03-23T08:37:54Z</time>
      </trkpt>
      <trkpt lat="45.23497" lon="5.98634">
        <ele>1184.9</ele>
        <time>2021-03-23T08:38:02Z</time>
      </trkpt>
      <trkpt lat="45.23493" lon="5.98635">
        <ele>1185.4</ele>
        <time>2021-03-23T08:38:10Z</time>
      </trkpt>
      <trkpt lat="45.23492" lon="5.98633">
        <ele>1185.5</ele>
        <time>2021-03-23T08:38:15Z</time>
      </trkpt>
      <trkpt lat="45.23496" lon="5.98635">
        <ele>1185.9</ele>
        <time>2021-03-23T08:38:32Z</time>
      </trkpt>
      <trkpt lat="45.23493" lon="5.98634">
        <ele>1186.2</ele>
        <time>2021-03-23T08:38:40Z</time>
      </trkpt>
      <trkpt lat="45.23492" lon="5.98636">
        <ele>1186.4</ele>
        <time>2021-03-23T08:38:48Z</time>
      </trkpt>
      <trkpt lat="45.23493" lon="5.98635">
        <ele>1186.5</ele>
        <time>2021-03-23T08:38:53Z</time>
      </trkpt>
      <trkpt lat="45.23491" lon="5.98643">
        <ele>1187</ele>
        <time>2021-03-23T08:39:06Z</time>
      </trkpt>
      <trkpt lat="45.23489" lon="5.9864">
        <ele>1187.3</ele>
        <time>2021-03-23T08:39:16Z</time>
      </trkpt>
      <trkpt lat="45.23489" lon="5.98643">
        <ele>1187.6</ele>
        <time>2021-03-23T08:39:24Z</time>
      </trkpt>
      <trkpt lat="45.2349" lon="5.98642">
        <ele>1187.7</ele>
        <time>2021-03-23T08:39:29Z</time>
      </trkpt>
      <trkpt lat="45.23491" lon="5.98644">
        <ele>1187.8</ele>
        <time>2021-03-23T08:39:36Z</time>
      </trkpt>
      <trkpt lat="45.23495" lon="5.98638">
        <ele>1188.4</ele>
        <time>2021-03-23T08:39:50Z</time>
      </trkpt>
      <trkpt lat="45.23494" lon="5.98638">
        <ele>1188.7</ele>
        <time>2021-03-23T08:40:02Z</time>
      </trkpt>
      <trkpt lat="45.23495" lon="5.9864">
        <ele>1188.9</ele>
        <time>2021-03-23T08:40:24Z</time>
      </trkpt>
      <trkpt lat="45.23493" lon="5.98646">
        <ele>1189.4</ele>
        <time>2021-03-23T08:40:32Z</time>
      </trkpt>
      <trkpt lat="45.23481" lon="5.98665">
        <ele>1191.1</ele>
        <time>2021-03-23T08:40:46Z</time>
      </trkpt>
      <trkpt lat="45.23471" lon="5.98673">
        <ele>1192.2</ele>
        <time>2021-03-23T08:40:55Z</time>
      </trkpt>
      <trkpt lat="45.23467" lon="5.98686">
        <ele>1193.1</ele>
        <time>2021-03-23T08:41:04Z</time>
      </trkpt>
      <trkpt lat="45.23453" lon="5.9871">
        <ele>1195.2</ele>
        <time>2021-03-23T08:41:26Z</time>
      </trkpt>
      <trkpt lat="45.23432" lon="5.98746">
        <ele>1198.3</ele>
        <time>2021-03-23T08:41:55Z</time>
      </trkpt>
      <trkpt lat="45.23419" lon="5.9876">
        <ele>1199.9</ele>
        <time>2021-03-23T08:42:10Z</time>
      </trkpt>
      <trkpt lat="45.23402" lon="5.9877">
        <ele>1201.7</ele>
        <time>2021-03-23T08:42:28Z</time>
      </trkpt>
      <trkpt lat="45.23383" lon="5.98789">
        <ele>1203.9</ele>
        <time>2021-03-23T08:42:50Z</time>
      </trkpt>
      <trkpt lat="45.23353" lon="5.98811">
        <ele>1207.1</ele>
        <time>2021-03-23T08:43:24Z</time>
      </trkpt>
      <trkpt lat="45.23335" lon="5.9883">
        <ele>1209.2</ele>
        <time>2021-03-23T08:43:44Z</time>
      </trkpt>
      <trkpt lat="45.23315" lon="5.98844">
        <ele>1211.4</ele>
        <time>2021-03-23T08:44:04Z</time>
      </trkpt>
      <trkpt lat="45.23293" lon="5.98864">
        <ele>1213.8</ele>
        <time>2021-03-23T08:44:29Z</time>
      </trkpt>
      <trkpt lat="45.23271" lon="5.98873">
        <ele>1216.1</ele>
        <time>2021-03-23T08:44:49Z</time>
      </trkpt>
      <trkpt lat="45.23255" lon="5.98876">
        <ele>1217.6</ele>
        <time>2021-03-23T08:45:04Z</time>
      </trkpt>
      <trkpt lat="45.23242" lon="5.98882">
        <ele>1220</ele>
        <time>2021-03-23T08:45:17Z</time>
      </trkpt>
      <trkpt lat="45.23234" lon="5.98883">
        <ele>1221.6</ele>
        <time>2021-03-23T08:45:25Z</time>
      </trkpt>
      <trkpt lat="45.23225" lon="5.98888">
        <ele>1223.3</ele>
        <time>2021-03-23T08:45:33Z</time>
      </trkpt>
      <trkpt lat="45.23216" lon="5.98897">
        <ele>1225.4</ele>
        <time>2021-03-23T08:45:43Z</time>
      </trkpt>
      <trkpt lat="45.23202" lon="5.98913">
        <ele>1227.9</ele>
        <time>2021-03-23T08:46:00Z</time>
      </trkpt>
      <trkpt lat="45.23186" lon="5.98947">
        <ele>1231.1</ele>
        <time>2021-03-23T08:46:28Z</time>
      </trkpt>
      <trkpt lat="45.23181" lon="5.98953">
        <ele>1231.9</ele>
        <time>2021-03-23T08:46:36Z</time>
      </trkpt>
      <trkpt lat="45.23172" lon="5.98978">
        <ele>1234.1</ele>
        <time>2021-03-23T08:46:58Z</time>
      </trkpt>
      <trkpt lat="45.23157" lon="5.99008">
        <ele>1237.1</ele>
        <time>2021-03-23T08:47:45Z</time>
      </trkpt>
      <trkpt lat="45.23151" lon="5.99029">
        <ele>1239</ele>
        <time>2021-03-23T08:48:03Z</time>
      </trkpt>
      <trkpt lat="45.23147" lon="5.99035">
        <ele>1239.6</ele>
        <time>2021-03-23T08:48:08Z</time>
      </trkpt>
      <trkpt lat="45.23136" lon="5.99065">
        <ele>1242.2</ele>
        <time>2021-03-23T08:48:32Z</time>
      </trkpt>
      <trkpt lat="45.23138" lon="5.99067">
        <ele>1242.5</ele>
        <time>2021-03-23T08:48:39Z</time>
      </trkpt>
      <trkpt lat="45.23133" lon="5.99085">
        <ele>1244</ele>
        <time>2021-03-23T08:48:52Z</time>
      </trkpt>
      <trkpt lat="45.23122" lon="5.99099">
        <ele>1245.6</ele>
        <time>2021-03-23T08:49:04Z</time>
      </trkpt>
      <trkpt lat="45.23116" lon="5.99106">
        <ele>1246.4</ele>
        <time>2021-03-23T08:49:11Z</time>
      </trkpt>
      <trkpt lat="45.231" lon="5.99111">
        <ele>1248.2</ele>
        <time>2021-03-23T08:49:27Z</time>
      </trkpt>
      <trkpt lat="45.23097" lon="5.99114">
        <ele>1248.6</ele>
        <time>2021-03-23T08:49:31Z</time>
      </trkpt>
      <trkpt lat="45.23085" lon="5.99118">
        <ele>1249.9</ele>
        <time>2021-03-23T08:49:43Z</time>
      </trkpt>
      <trkpt lat="45.2308" lon="5.99122">
        <ele>1250.5</ele>
        <time>2021-03-23T08:49:49Z</time>
      </trkpt>
      <trkpt lat="45.23046" lon="5.99133">
        <ele>1254.4</ele>
        <time>2021-03-23T08:50:21Z</time>
      </trkpt>
      <trkpt lat="45.23039" lon="5.99137">
        <ele>1255.2</ele>
        <time>2021-03-23T08:50:28Z</time>
      </trkpt>
      <trkpt lat="45.23021" lon="5.99144">
        <ele>1257.5</ele>
        <time>2021-03-23T08:50:46Z</time>
      </trkpt>
      <trkpt lat="45.22999" lon="5.99149">
        <ele>1260.1</ele>
        <time>2021-03-23T08:51:06Z</time>
      </trkpt>
      <trkpt lat="45.2299" lon="5.99156">
        <ele>1261.1</ele>
        <time>2021-03-23T08:51:16Z</time>
      </trkpt>
      <trkpt lat="45.22963" lon="5.99169">
        <ele>1264.4</ele>
        <time>2021-03-23T08:51:41Z</time>
      </trkpt>
      <trkpt lat="45.22951" lon="5.99169">
        <ele>1265.7</ele>
        <time>2021-03-23T08:51:52Z</time>
      </trkpt>
      <trkpt lat="45.22943" lon="5.99164">
        <ele>1266.7</ele>
        <time>2021-03-23T08:52:00Z</time>
      </trkpt>
      <trkpt lat="45.22937" lon="5.99164">
        <ele>1267.4</ele>
        <time>2021-03-23T08:52:06Z</time>
      </trkpt>
      <trkpt lat="45.2293" lon="5.99165">
        <ele>1268.2</ele>
        <time>2021-03-23T08:52:13Z</time>
      </trkpt>
      <trkpt lat="45.22924" lon="5.99171">
        <ele>1269.1</ele>
        <time>2021-03-23T08:52:21Z</time>
      </trkpt>
      <trkpt lat="45.22918" lon="5.99172">
        <ele>1269.8</ele>
        <time>2021-03-23T08:52:28Z</time>
      </trkpt>
      <trkpt lat="45.22917" lon="5.99174">
        <ele>1270.1</ele>
        <time>2021-03-23T08:52:34Z</time>
      </trkpt>
      <trkpt lat="45.22918" lon="5.99172">
        <ele>1270.4</ele>
        <time>2021-03-23T08:52:41Z</time>
      </trkpt>
      <trkpt lat="45.22915" lon="5.99171">
        <ele>1270.7</ele>
        <time>2021-03-23T08:52:55Z</time>
      </trkpt>
      <trkpt lat="45.22907" lon="5.99177">
        <ele>1271.6</ele>
        <time>2021-03-23T08:53:02Z</time>
      </trkpt>
      <trkpt lat="45.22901" lon="5.9919">
        <ele>1272.9</ele>
        <time>2021-03-23T08:53:13Z</time>
      </trkpt>
      <trkpt lat="45.22885" lon="5.99208">
        <ele>1275.1</ele>
        <time>2021-03-23T08:53:35Z</time>
      </trkpt>
      <trkpt lat="45.22875" lon="5.99223">
        <ele>1276.7</ele>
        <time>2021-03-23T08:53:49Z</time>
      </trkpt>
      <trkpt lat="45.2287" lon="5.99234">
        <ele>1278.3</ele>
        <time>2021-03-23T08:53:59Z</time>
      </trkpt>
      <trkpt lat="45.22861" lon="5.99243">
        <ele>1280.1</ele>
        <time>2021-03-23T08:54:09Z</time>
      </trkpt>
      <trkpt lat="45.22857" lon="5.99253">
        <ele>1281.5</ele>
        <time>2021-03-23T08:54:19Z</time>
      </trkpt>
      <trkpt lat="45.22852" lon="5.99255">
        <ele>1282.3</ele>
        <time>2021-03-23T08:54:23Z</time>
      </trkpt>
      <trkpt lat="45.2284" lon="5.99271">
        <ele>1284.6</ele>
        <time>2021-03-23T08:54:41Z</time>
      </trkpt>
      <trkpt lat="45.22832" lon="5.99278">
        <ele>1285.5</ele>
        <time>2021-03-23T08:54:51Z</time>
      </trkpt>
      <trkpt lat="45.2282" lon="5.99285">
        <ele>1286.8</ele>
        <time>2021-03-23T08:55:05Z</time>
      </trkpt>
      <trkpt lat="45.22805" lon="5.99291">
        <ele>1288.4</ele>
        <time>2021-03-23T08:55:20Z</time>
      </trkpt>
      <trkpt lat="45.22792" lon="5.99303">
        <ele>1290</ele>
        <time>2021-03-23T08:55:37Z</time>
      </trkpt>
      <trkpt lat="45.2278" lon="5.99317">
        <ele>1291.6</ele>
        <time>2021-03-23T08:55:52Z</time>
      </trkpt>
      <trkpt lat="45.22775" lon="5.99326">
        <ele>1292.4</ele>
        <time>2021-03-23T08:56:00Z</time>
      </trkpt>
      <trkpt lat="45.22748" lon="5.99356">
        <ele>1295.9</ele>
        <time>2021-03-23T08:56:32Z</time>
      </trkpt>
      <trkpt lat="45.22746" lon="5.99362">
        <ele>1296.3</ele>
        <time>2021-03-23T08:56:34Z</time>
      </trkpt>
      <trkpt lat="45.22739" lon="5.99371">
        <ele>1297.3</ele>
        <time>2021-03-23T08:56:44Z</time>
      </trkpt>
      <trkpt lat="45.22717" lon="5.9939">
        <ele>1299.8</ele>
        <time>2021-03-23T08:57:11Z</time>
      </trkpt>
      <trkpt lat="45.22708" lon="5.99404">
        <ele>1301.1</ele>
        <time>2021-03-23T08:57:23Z</time>
      </trkpt>
      <trkpt lat="45.227" lon="5.99407">
        <ele>1301.8</ele>
        <time>2021-03-23T08:57:31Z</time>
      </trkpt>
      <trkpt lat="45.22696" lon="5.99413">
        <ele>1302.4</ele>
        <time>2021-03-23T08:57:37Z</time>
      </trkpt>
      <trkpt lat="45.2267" lon="5.99419">
        <ele>1306</ele>
        <time>2021-03-23T08:57:58Z</time>
      </trkpt>
      <trkpt lat="45.22652" lon="5.99436">
        <ele>1308.8</ele>
        <time>2021-03-23T08:58:21Z</time>
      </trkpt>
      <trkpt lat="45.22626" lon="5.99446">
        <ele>1311.9</ele>
        <time>2021-03-23T08:58:48Z</time>
      </trkpt>
      <trkpt lat="45.22614" lon="5.99462">
        <ele>1313.7</ele>
        <time>2021-03-23T08:59:05Z</time>
      </trkpt>
      <trkpt lat="45.22608" lon="5.99476">
        <ele>1315</ele>
        <time>2021-03-23T08:59:16Z</time>
      </trkpt>
      <trkpt lat="45.22582" lon="5.99509">
        <ele>1319</ele>
        <time>2021-03-23T08:59:50Z</time>
      </trkpt>
      <trkpt lat="45.2257" lon="5.99522">
        <ele>1320.7</ele>
        <time>2021-03-23T09:00:06Z</time>
      </trkpt>
      <trkpt lat="45.22569" lon="5.99526">
        <ele>1321.1</ele>
        <time>2021-03-23T09:00:10Z</time>
      </trkpt>
      <trkpt lat="45.2256" lon="5.9953">
        <ele>1322.1</ele>
        <time>2021-03-23T09:00:18Z</time>
      </trkpt>
      <trkpt lat="45.22533" lon="5.99579">
        <ele>1326.8</ele>
        <time>2021-03-23T09:00:59Z</time>
      </trkpt>
      <trkpt lat="45.22525" lon="5.99587">
        <ele>1327.8</ele>
        <time>2021-03-23T09:01:12Z</time>
      </trkpt>
      <trkpt lat="45.22517" lon="5.996">
        <ele>1329</ele>
        <time>2021-03-23T09:01:21Z</time>
      </trkpt>
      <trkpt lat="45.22509" lon="5.99624">
        <ele>1330.9</ele>
        <time>2021-03-23T09:01:39Z</time>
      </trkpt>
      <trkpt lat="45.22516" lon="5.9966">
        <ele>1333.5</ele>
        <time>2021-03-23T09:02:02Z</time>
      </trkpt>
      <trkpt lat="45.22515" lon="5.99673">
        <ele>1334.4</ele>
        <time>2021-03-23T09:02:09Z</time>
      </trkpt>
      <trkpt lat="45.22508" lon="5.99709">
        <ele>1336.9</ele>
        <time>2021-03-23T09:02:32Z</time>
      </trkpt>
      <trkpt lat="45.22508" lon="5.99718">
        <ele>1337.5</ele>
        <time>2021-03-23T09:02:38Z</time>
      </trkpt>
      <trkpt lat="45.22506" lon="5.99725">
        <ele>1337.9</ele>
        <time>2021-03-23T09:02:42Z</time>
      </trkpt>
      <trkpt lat="45.22504" lon="5.99758">
        <ele>1339.8</ele>
        <time>2021-03-23T09:03:01Z</time>
      </trkpt>
      <trkpt lat="45.22501" lon="5.99773">
        <ele>1340.5</ele>
        <time>2021-03-23T09:03:09Z</time>
      </trkpt>
      <trkpt lat="45.22502" lon="5.99786">
        <ele>1341.1</ele>
        <time>2021-03-23T09:03:18Z</time>
      </trkpt>
      <trkpt lat="45.22496" lon="5.99813">
        <ele>1342.5</ele>
        <time>2021-03-23T09:03:35Z</time>
      </trkpt>
      <trkpt lat="45.22492" lon="5.9982">
        <ele>1342.9</ele>
        <time>2021-03-23T09:03:41Z</time>
      </trkpt>
      <trkpt lat="45.22472" lon="5.99836">
        <ele>1344.5</ele>
        <time>2021-03-23T09:03:57Z</time>
      </trkpt>
      <trkpt lat="45.22454" lon="5.99842">
        <ele>1345.8</ele>
        <time>2021-03-23T09:04:09Z</time>
      </trkpt>
      <trkpt lat="45.22449" lon="5.99846">
        <ele>1346.3</ele>
        <time>2021-03-23T09:04:14Z</time>
      </trkpt>
      <trkpt lat="45.22445" lon="5.99857">
        <ele>1346.9</ele>
        <time>2021-03-23T09:04:20Z</time>
      </trkpt>
      <trkpt lat="45.22445" lon="5.99863">
        <ele>1347.3</ele>
        <time>2021-03-23T09:04:24Z</time>
      </trkpt>
      <trkpt lat="45.22449" lon="5.99886">
        <ele>1348.6</ele>
        <time>2021-03-23T09:04:39Z</time>
      </trkpt>
      <trkpt lat="45.22448" lon="5.99884">
        <ele>1348.8</ele>
        <time>2021-03-23T09:04:49Z</time>
      </trkpt>
      <trkpt lat="45.22448" lon="5.99895">
        <ele>1349.7</ele>
        <time>2021-03-23T09:05:08Z</time>
      </trkpt>
      <trkpt lat="45.22451" lon="5.99889">
        <ele>1350.7</ele>
        <time>2021-03-23T09:05:38Z</time>
      </trkpt>
      <trkpt lat="45.22451" lon="5.9988">
        <ele>1351.8</ele>
        <time>2021-03-23T09:05:59Z</time>
      </trkpt>
      <trkpt lat="45.22451" lon="5.99881">
        <ele>1352</ele>
        <time>2021-03-23T09:07:07Z</time>
      </trkpt>
      <trkpt lat="45.22451" lon="5.99898">
        <ele>1354.1</ele>
        <time>2021-03-23T09:07:32Z</time>
      </trkpt>
      <trkpt lat="45.22454" lon="5.99905">
        <ele>1355.2</ele>
        <time>2021-03-23T09:07:47Z</time>
      </trkpt>
      <trkpt lat="45.22452" lon="5.99932">
        <ele>1358.2</ele>
        <time>2021-03-23T09:08:04Z</time>
      </trkpt>
      <trkpt lat="45.22458" lon="5.99957">
        <ele>1360.9</ele>
        <time>2021-03-23T09:08:26Z</time>
      </trkpt>
      <trkpt lat="45.22454" lon="5.99973">
        <ele>1362.5</ele>
        <time>2021-03-23T09:08:41Z</time>
      </trkpt>
      <trkpt lat="45.22453" lon="5.99983">
        <ele>1366.4</ele>
        <time>2021-03-23T09:08:48Z</time>
      </trkpt>
      <trkpt lat="45.22452" lon="5.99984">
        <ele>1364.5</ele>
        <time>2021-03-23T09:08:51Z</time>
      </trkpt>
      <trkpt lat="45.22452" lon="5.99984">
        <ele>1365.9</ele>
        <time>2021-03-23T09:08:52Z</time>
      </trkpt>
      <trkpt lat="45.22455" lon="5.99984">
        <ele>1365.2</ele>
        <time>2021-03-23T09:08:58Z</time>
      </trkpt>
      <trkpt lat="45.22456" lon="5.99984">
        <ele>1366.5</ele>
        <time>2021-03-23T09:08:59Z</time>
      </trkpt>
      <trkpt lat="45.22457" lon="5.99986">
        <ele>1366.2</ele>
        <time>2021-03-23T09:09:01Z</time>
      </trkpt>
      <trkpt lat="45.22458" lon="5.99988">
        <ele>1368.7</ele>
        <time>2021-03-23T09:09:03Z</time>
      </trkpt>
      <trkpt lat="45.22462" lon="5.9999">
        <ele>1369.5</ele>
        <time>2021-03-23T09:09:09Z</time>
      </trkpt>
      <trkpt lat="45.22468" lon="5.99996">
        <ele>1373.7</ele>
        <time>2021-03-23T09:09:19Z</time>
      </trkpt>
      <trkpt lat="45.22471" lon="5.99998">
        <ele>1374.8</ele>
        <time>2021-03-23T09:09:23Z</time>
      </trkpt>
      <trkpt lat="45.22474" lon="5.99998">
        <ele>1376</ele>
        <time>2021-03-23T09:09:26Z</time>
      </trkpt>
      <trkpt lat="45.22477" lon="5.99996">
        <ele>1377</ele>
        <time>2021-03-23T09:09:29Z</time>
      </trkpt>
      <trkpt lat="45.22478" lon="5.99993">
        <ele>1375.4</ele>
        <time>2021-03-23T09:09:32Z</time>
      </trkpt>
      <trkpt lat="45.2248" lon="5.99993">
        <ele>1376.5</ele>
        <time>2021-03-23T09:09:34Z</time>
      </trkpt>
      <trkpt lat="45.22482" lon="5.99994">
        <ele>1376</ele>
        <time>2021-03-23T09:09:38Z</time>
      </trkpt>
      <trkpt lat="45.22483" lon="5.99995">
        <ele>1378.1</ele>
        <time>2021-03-23T09:09:39Z</time>
      </trkpt>
      <trkpt lat="45.22489" lon="5.99999">
        <ele>1379.1</ele>
        <time>2021-03-23T09:09:51Z</time>
      </trkpt>
      <trkpt lat="45.22498" lon="5.99995">
        <ele>1381.1</ele>
        <time>2021-03-23T09:10:04Z</time>
      </trkpt>
      <trkpt lat="45.225" lon="5.99992">
        <ele>1380.8</ele>
        <time>2021-03-23T09:10:07Z</time>
      </trkpt>
      <trkpt lat="45.22501" lon="5.99991">
        <ele>1382.2</ele>
        <time>2021-03-23T09:10:08Z</time>
      </trkpt>
      <trkpt lat="45.22503" lon="5.9999">
        <ele>1381</ele>
        <time>2021-03-23T09:10:10Z</time>
      </trkpt>
      <trkpt lat="45.22506" lon="5.99989">
        <ele>1381.5</ele>
        <time>2021-03-23T09:10:17Z</time>
      </trkpt>
      <trkpt lat="45.22507" lon="5.99991">
        <ele>1381.8</ele>
        <time>2021-03-23T09:10:20Z</time>
      </trkpt>
      <trkpt lat="45.22499" lon="5.99994">
        <ele>1382.8</ele>
        <time>2021-03-23T09:10:34Z</time>
      </trkpt>
      <trkpt lat="45.22505" lon="6">
        <ele>1383.9</ele>
        <time>2021-03-23T09:10:53Z</time>
      </trkpt>
      <trkpt lat="45.22502" lon="6.00007">
        <ele>1384.7</ele>
        <time>2021-03-23T09:11:46Z</time>
      </trkpt>
      <trkpt lat="45.22495" lon="6.00013">
        <ele>1386</ele>
        <time>2021-03-23T09:11:56Z</time>
      </trkpt>
      <trkpt lat="45.2248" lon="6.00038">
        <ele>1389.4</ele>
        <time>2021-03-23T09:12:25Z</time>
      </trkpt>
      <trkpt lat="45.22471" lon="6.00046">
        <ele>1390.9</ele>
        <time>2021-03-23T09:12:33Z</time>
      </trkpt>
      <trkpt lat="45.22469" lon="6.00055">
        <ele>1392</ele>
        <time>2021-03-23T09:12:41Z</time>
      </trkpt>
      <trkpt lat="45.22461" lon="6.00063">
        <ele>1393.5</ele>
        <time>2021-03-23T09:12:52Z</time>
      </trkpt>
      <trkpt lat="45.22452" lon="6.00081">
        <ele>1395.8</ele>
        <time>2021-03-23T09:13:10Z</time>
      </trkpt>
      <trkpt lat="45.22446" lon="6.00086">
        <ele>1396.8</ele>
        <time>2021-03-23T09:13:18Z</time>
      </trkpt>
      <trkpt lat="45.22439" lon="6.00101">
        <ele>1398.3</ele>
        <time>2021-03-23T09:13:31Z</time>
      </trkpt>
      <trkpt lat="45.22432" lon="6.0011">
        <ele>1399.5</ele>
        <time>2021-03-23T09:13:42Z</time>
      </trkpt>
      <trkpt lat="45.22417" lon="6.00124">
        <ele>1401.5</ele>
        <time>2021-03-23T09:13:58Z</time>
      </trkpt>
      <trkpt lat="45.22405" lon="6.00141">
        <ele>1402.7</ele>
        <time>2021-03-23T09:14:16Z</time>
      </trkpt>
      <trkpt lat="45.22398" lon="6.00147">
        <ele>1403.3</ele>
        <time>2021-03-23T09:14:25Z</time>
      </trkpt>
      <trkpt lat="45.22389" lon="6.00145">
        <ele>1403.8</ele>
        <time>2021-03-23T09:14:36Z</time>
      </trkpt>
      <trkpt lat="45.22384" lon="6.00147">
        <ele>1404.1</ele>
        <time>2021-03-23T09:14:39Z</time>
      </trkpt>
      <trkpt lat="45.22373" lon="6.00158">
        <ele>1404.6</ele>
        <time>2021-03-23T09:14:49Z</time>
      </trkpt>
      <trkpt lat="45.2237" lon="6.00163">
        <ele>1405.2</ele>
        <time>2021-03-23T09:14:53Z</time>
      </trkpt>
      <trkpt lat="45.22357" lon="6.00174">
        <ele>1406.9</ele>
        <time>2021-03-23T09:15:07Z</time>
      </trkpt>
      <trkpt lat="45.22355" lon="6.00179">
        <ele>1407.4</ele>
        <time>2021-03-23T09:15:11Z</time>
      </trkpt>
      <trkpt lat="45.22338" lon="6.00192">
        <ele>1409.7</ele>
        <time>2021-03-23T09:15:30Z</time>
      </trkpt>
      <trkpt lat="45.22327" lon="6.00206">
        <ele>1411.8</ele>
        <time>2021-03-23T09:15:46Z</time>
      </trkpt>
      <trkpt lat="45.22321" lon="6.0021">
        <ele>1412.9</ele>
        <time>2021-03-23T09:15:54Z</time>
      </trkpt>
      <trkpt lat="45.22311" lon="6.00214">
        <ele>1415.3</ele>
        <time>2021-03-23T09:16:05Z</time>
      </trkpt>
      <trkpt lat="45.22305" lon="6.00221">
        <ele>1417.4</ele>
        <time>2021-03-23T09:16:19Z</time>
      </trkpt>
      <trkpt lat="45.22304" lon="6.00225">
        <ele>1418.3</ele>
        <time>2021-03-23T09:16:24Z</time>
      </trkpt>
      <trkpt lat="45.22306" lon="6.00245">
        <ele>1422.6</ele>
        <time>2021-03-23T09:16:41Z</time>
      </trkpt>
      <trkpt lat="45.22312" lon="6.00258">
        <ele>1425.6</ele>
        <time>2021-03-23T09:16:55Z</time>
      </trkpt>
      <trkpt lat="45.22318" lon="6.00295">
        <ele>1432.1</ele>
        <time>2021-03-23T09:17:29Z</time>
      </trkpt>
      <trkpt lat="45.22315" lon="6.0031">
        <ele>1433.8</ele>
        <time>2021-03-23T09:18:27Z</time>
      </trkpt>
      <trkpt lat="45.2231" lon="6.00316">
        <ele>1435.2</ele>
        <time>2021-03-23T09:19:00Z</time>
      </trkpt>
      <trkpt lat="45.22312" lon="6.00325">
        <ele>1436.2</ele>
        <time>2021-03-23T09:19:32Z</time>
      </trkpt>
      <trkpt lat="45.2231" lon="6.00335">
        <ele>1437.2</ele>
        <time>2021-03-23T09:19:41Z</time>
      </trkpt>
      <trkpt lat="45.22311" lon="6.00343">
        <ele>1438.2</ele>
        <time>2021-03-23T09:19:48Z</time>
      </trkpt>
      <trkpt lat="45.22311" lon="6.00352">
        <ele>1439.3</ele>
        <time>2021-03-23T09:19:57Z</time>
      </trkpt>
      <trkpt lat="45.22308" lon="6.00354">
        <ele>1439.9</ele>
        <time>2021-03-23T09:20:03Z</time>
      </trkpt>
      <trkpt lat="45.22306" lon="6.00363">
        <ele>1441.1</ele>
        <time>2021-03-23T09:20:11Z</time>
      </trkpt>
      <trkpt lat="45.22299" lon="6.00372">
        <ele>1442.9</ele>
        <time>2021-03-23T09:20:20Z</time>
      </trkpt>
      <trkpt lat="45.22297" lon="6.00378">
        <ele>1444</ele>
        <time>2021-03-23T09:20:28Z</time>
      </trkpt>
      <trkpt lat="45.2229" lon="6.00383">
        <ele>1445.8</ele>
        <time>2021-03-23T09:20:44Z</time>
      </trkpt>
      <trkpt lat="45.22281" lon="6.00394">
        <ele>1448.7</ele>
        <time>2021-03-23T09:20:57Z</time>
      </trkpt>
      <trkpt lat="45.22274" lon="6.00399">
        <ele>1451</ele>
        <time>2021-03-23T09:21:10Z</time>
      </trkpt>
      <trkpt lat="45.22272" lon="6.00406">
        <ele>1452.4</ele>
        <time>2021-03-23T09:21:19Z</time>
      </trkpt>
      <trkpt lat="45.22267" lon="6.00412">
        <ele>1454.1</ele>
        <time>2021-03-23T09:21:31Z</time>
      </trkpt>
      <trkpt lat="45.22269" lon="6.00416">
        <ele>1455.1</ele>
        <time>2021-03-23T09:21:38Z</time>
      </trkpt>
      <trkpt lat="45.2227" lon="6.00421">
        <ele>1456.1</ele>
        <time>2021-03-23T09:21:43Z</time>
      </trkpt>
      <trkpt lat="45.22268" lon="6.00425">
        <ele>1458.8</ele>
        <time>2021-03-23T09:21:47Z</time>
      </trkpt>
      <trkpt lat="45.22262" lon="6.00429">
        <ele>1460.5</ele>
        <time>2021-03-23T09:21:56Z</time>
      </trkpt>
      <trkpt lat="45.22261" lon="6.00434">
        <ele>1461.8</ele>
        <time>2021-03-23T09:22:05Z</time>
      </trkpt>
      <trkpt lat="45.22256" lon="6.00438">
        <ele>1463.5</ele>
        <time>2021-03-23T09:22:13Z</time>
      </trkpt>
      <trkpt lat="45.22249" lon="6.00437">
        <ele>1465.4</ele>
        <time>2021-03-23T09:22:21Z</time>
      </trkpt>
      <trkpt lat="45.22249" lon="6.00434">
        <ele>1466.1</ele>
        <time>2021-03-23T09:22:27Z</time>
      </trkpt>
      <trkpt lat="45.22245" lon="6.00432">
        <ele>1467.2</ele>
        <time>2021-03-23T09:22:32Z</time>
      </trkpt>
      <trkpt lat="45.22241" lon="6.00436">
        <ele>1468.9</ele>
        <time>2021-03-23T09:22:41Z</time>
      </trkpt>
      <trkpt lat="45.22237" lon="6.00453">
        <ele>1472.9</ele>
        <time>2021-03-23T09:22:56Z</time>
      </trkpt>
      <trkpt lat="45.22235" lon="6.00469">
        <ele>1476.1</ele>
        <time>2021-03-23T09:23:11Z</time>
      </trkpt>
      <trkpt lat="45.22232" lon="6.00478">
        <ele>1478.2</ele>
        <time>2021-03-23T09:23:20Z</time>
      </trkpt>
      <trkpt lat="45.22232" lon="6.00486">
        <ele>1479.7</ele>
        <time>2021-03-23T09:23:27Z</time>
      </trkpt>
      <trkpt lat="45.22235" lon="6.00494">
        <ele>1481</ele>
        <time>2021-03-23T09:23:36Z</time>
      </trkpt>
      <trkpt lat="45.22234" lon="6.00511">
        <ele>1483.9</ele>
        <time>2021-03-23T09:23:57Z</time>
      </trkpt>
      <trkpt lat="45.22225" lon="6.00513">
        <ele>1485.6</ele>
        <time>2021-03-23T09:24:09Z</time>
      </trkpt>
      <trkpt lat="45.22227" lon="6.00513">
        <ele>1485.9</ele>
        <time>2021-03-23T09:24:16Z</time>
      </trkpt>
      <trkpt lat="45.22226" lon="6.00514">
        <ele>1486.1</ele>
        <time>2021-03-23T09:24:20Z</time>
      </trkpt>
      <trkpt lat="45.22224" lon="6.00512">
        <ele>1486.7</ele>
        <time>2021-03-23T09:24:27Z</time>
      </trkpt>
      <trkpt lat="45.22223" lon="6.00512">
        <ele>1491.7</ele>
        <time>2021-03-23T09:24:29Z</time>
      </trkpt>
      <trkpt lat="45.22221" lon="6.00516">
        <ele>1492.5</ele>
        <time>2021-03-23T09:24:34Z</time>
      </trkpt>
      <trkpt lat="45.22227" lon="6.00516">
        <ele>1493.9</ele>
        <time>2021-03-23T09:24:53Z</time>
      </trkpt>
      <trkpt lat="45.22225" lon="6.00512">
        <ele>1494.8</ele>
        <time>2021-03-23T09:25:12Z</time>
      </trkpt>
      <trkpt lat="45.22224" lon="6.0052">
        <ele>1496.2</ele>
        <time>2021-03-23T09:25:23Z</time>
      </trkpt>
      <trkpt lat="45.22226" lon="6.00528">
        <ele>1497.8</ele>
        <time>2021-03-23T09:25:33Z</time>
      </trkpt>
      <trkpt lat="45.22224" lon="6.00532">
        <ele>1498.6</ele>
        <time>2021-03-23T09:25:38Z</time>
      </trkpt>
      <trkpt lat="45.22225" lon="6.00541">
        <ele>1500.2</ele>
        <time>2021-03-23T09:25:48Z</time>
      </trkpt>
      <trkpt lat="45.22222" lon="6.00551">
        <ele>1502.4</ele>
        <time>2021-03-23T09:25:59Z</time>
      </trkpt>
      <trkpt lat="45.22221" lon="6.00557">
        <ele>1503.7</ele>
        <time>2021-03-23T09:26:05Z</time>
      </trkpt>
      <trkpt lat="45.22223" lon="6.00564">
        <ele>1505.1</ele>
        <time>2021-03-23T09:26:13Z</time>
      </trkpt>
      <trkpt lat="45.2222" lon="6.00571">
        <ele>1506.8</ele>
        <time>2021-03-23T09:26:22Z</time>
      </trkpt>
      <trkpt lat="45.22219" lon="6.00577">
        <ele>1508.2</ele>
        <time>2021-03-23T09:26:30Z</time>
      </trkpt>
      <trkpt lat="45.22211" lon="6.00604">
        <ele>1513.9</ele>
        <time>2021-03-23T09:26:58Z</time>
      </trkpt>
      <trkpt lat="45.22213" lon="6.0062">
        <ele>1516.9</ele>
        <time>2021-03-23T09:27:12Z</time>
      </trkpt>
      <trkpt lat="45.2221" lon="6.0064">
        <ele>1520.8</ele>
        <time>2021-03-23T09:27:29Z</time>
      </trkpt>
      <trkpt lat="45.22211" lon="6.00652">
        <ele>1523</ele>
        <time>2021-03-23T09:27:37Z</time>
      </trkpt>
      <trkpt lat="45.22217" lon="6.00664">
        <ele>1525.6</ele>
        <time>2021-03-23T09:27:50Z</time>
      </trkpt>
      <trkpt lat="45.22219" lon="6.00675">
        <ele>1527.4</ele>
        <time>2021-03-23T09:28:00Z</time>
      </trkpt>
      <trkpt lat="45.22216" lon="6.00693">
        <ele>1529.8</ele>
        <time>2021-03-23T09:28:15Z</time>
      </trkpt>
      <trkpt lat="45.22219" lon="6.00706">
        <ele>1531.2</ele>
        <time>2021-03-23T09:28:26Z</time>
      </trkpt>
      <trkpt lat="45.22218" lon="6.0071">
        <ele>1531.5</ele>
        <time>2021-03-23T09:28:29Z</time>
      </trkpt>
      <trkpt lat="45.22213" lon="6.00715">
        <ele>1532.4</ele>
        <time>2021-03-23T09:28:35Z</time>
      </trkpt>
      <trkpt lat="45.22208" lon="6.00723">
        <ele>1533.3</ele>
        <time>2021-03-23T09:28:45Z</time>
      </trkpt>
      <trkpt lat="45.22208" lon="6.00729">
        <ele>1533.9</ele>
        <time>2021-03-23T09:28:52Z</time>
      </trkpt>
      <trkpt lat="45.22216" lon="6.00754">
        <ele>1537.1</ele>
        <time>2021-03-23T09:29:16Z</time>
      </trkpt>
      <trkpt lat="45.22222" lon="6.0076">
        <ele>1538.5</ele>
        <time>2021-03-23T09:29:27Z</time>
      </trkpt>
      <trkpt lat="45.22223" lon="6.00764">
        <ele>1539.1</ele>
        <time>2021-03-23T09:29:34Z</time>
      </trkpt>
      <trkpt lat="45.22235" lon="6.00774">
        <ele>1541.5</ele>
        <time>2021-03-23T09:29:51Z</time>
      </trkpt>
      <trkpt lat="45.22236" lon="6.00778">
        <ele>1542.1</ele>
        <time>2021-03-23T09:29:54Z</time>
      </trkpt>
      <trkpt lat="45.22233" lon="6.00795">
        <ele>1544.5</ele>
        <time>2021-03-23T09:30:12Z</time>
      </trkpt>
      <trkpt lat="45.22235" lon="6.00809">
        <ele>1546.8</ele>
        <time>2021-03-23T09:30:27Z</time>
      </trkpt>
      <trkpt lat="45.2223" lon="6.00817">
        <ele>1548.7</ele>
        <time>2021-03-23T09:30:36Z</time>
      </trkpt>
      <trkpt lat="45.2223" lon="6.00823">
        <ele>1549.7</ele>
        <time>2021-03-23T09:30:42Z</time>
      </trkpt>
      <trkpt lat="45.22228" lon="6.00829">
        <ele>1551</ele>
        <time>2021-03-23T09:30:49Z</time>
      </trkpt>
      <trkpt lat="45.2223" lon="6.0083">
        <ele>1551.7</ele>
        <time>2021-03-23T09:31:01Z</time>
      </trkpt>
      <trkpt lat="45.22231" lon="6.00827">
        <ele>1552.3</ele>
        <time>2021-03-23T09:31:07Z</time>
      </trkpt>
      <trkpt lat="45.22229" lon="6.00829">
        <ele>1552.9</ele>
        <time>2021-03-23T09:31:13Z</time>
      </trkpt>
      <trkpt lat="45.22226" lon="6.00828">
        <ele>1553.9</ele>
        <time>2021-03-23T09:31:22Z</time>
      </trkpt>
      <trkpt lat="45.22231" lon="6.00829">
        <ele>1555.5</ele>
        <time>2021-03-23T09:31:34Z</time>
      </trkpt>
      <trkpt lat="45.22231" lon="6.00831">
        <ele>1555.8</ele>
        <time>2021-03-23T09:31:39Z</time>
      </trkpt>
      <trkpt lat="45.22231" lon="6.00831">
        <ele>1557.8</ele>
        <time>2021-03-23T09:31:41Z</time>
      </trkpt>
      <trkpt lat="45.22228" lon="6.00831">
        <ele>1558.3</ele>
        <time>2021-03-23T09:31:50Z</time>
      </trkpt>
      <trkpt lat="45.22224" lon="6.00835">
        <ele>1559.2</ele>
        <time>2021-03-23T09:32:09Z</time>
      </trkpt>
      <trkpt lat="45.22234" lon="6.00858">
        <ele>1562</ele>
        <time>2021-03-23T09:32:34Z</time>
      </trkpt>
      <trkpt lat="45.22244" lon="6.00869">
        <ele>1564.3</ele>
        <time>2021-03-23T09:32:48Z</time>
      </trkpt>
      <trkpt lat="45.22249" lon="6.0088">
        <ele>1567.4</ele>
        <time>2021-03-23T09:33:06Z</time>
      </trkpt>
      <trkpt lat="45.22249" lon="6.00902">
        <ele>1571.7</ele>
        <time>2021-03-23T09:33:28Z</time>
      </trkpt>
      <trkpt lat="45.22245" lon="6.00915">
        <ele>1575</ele>
        <time>2021-03-23T09:33:45Z</time>
      </trkpt>
      <trkpt lat="45.22247" lon="6.00922">
        <ele>1576.8</ele>
        <time>2021-03-23T09:33:55Z</time>
      </trkpt>
      <trkpt lat="45.22241" lon="6.0093">
        <ele>1579.1</ele>
        <time>2021-03-23T09:34:07Z</time>
      </trkpt>
      <trkpt lat="45.22234" lon="6.00933">
        <ele>1581.1</ele>
        <time>2021-03-23T09:34:18Z</time>
      </trkpt>
      <trkpt lat="45.22232" lon="6.0094">
        <ele>1582.4</ele>
        <time>2021-03-23T09:34:27Z</time>
      </trkpt>
      <trkpt lat="45.22234" lon="6.0097">
        <ele>1588.7</ele>
        <time>2021-03-23T09:34:53Z</time>
      </trkpt>
      <trkpt lat="45.22238" lon="6.00991">
        <ele>1593.7</ele>
        <time>2021-03-23T09:35:10Z</time>
      </trkpt>
      <trkpt lat="45.22236" lon="6.00998">
        <ele>1595.2</ele>
        <time>2021-03-23T09:35:15Z</time>
      </trkpt>
      <trkpt lat="45.22238" lon="6.01009">
        <ele>1597.5</ele>
        <time>2021-03-23T09:35:23Z</time>
      </trkpt>
      <trkpt lat="45.22237" lon="6.0102">
        <ele>1599.4</ele>
        <time>2021-03-23T09:35:31Z</time>
      </trkpt>
      <trkpt lat="45.2224" lon="6.01033">
        <ele>1601.5</ele>
        <time>2021-03-23T09:35:44Z</time>
      </trkpt>
      <trkpt lat="45.22235" lon="6.01054">
        <ele>1604.9</ele>
        <time>2021-03-23T09:36:01Z</time>
      </trkpt>
      <trkpt lat="45.2224" lon="6.01105">
        <ele>1612.9</ele>
        <time>2021-03-23T09:36:46Z</time>
      </trkpt>
      <trkpt lat="45.22242" lon="6.0112">
        <ele>1615.1</ele>
        <time>2021-03-23T09:36:59Z</time>
      </trkpt>
      <trkpt lat="45.22241" lon="6.01127">
        <ele>1616.2</ele>
        <time>2021-03-23T09:37:04Z</time>
      </trkpt>
      <trkpt lat="45.22245" lon="6.01146">
        <ele>1619.3</ele>
        <time>2021-03-23T09:37:24Z</time>
      </trkpt>
      <trkpt lat="45.22241" lon="6.01144">
        <ele>1620.2</ele>
        <time>2021-03-23T09:37:37Z</time>
      </trkpt>
      <trkpt lat="45.22242" lon="6.01148">
        <ele>1620.8</ele>
        <time>2021-03-23T09:37:47Z</time>
      </trkpt>
      <trkpt lat="45.22246" lon="6.01145">
        <ele>1621.7</ele>
        <time>2021-03-23T09:37:58Z</time>
      </trkpt>
      <trkpt lat="45.22244" lon="6.01154">
        <ele>1623.1</ele>
        <time>2021-03-23T09:38:09Z</time>
      </trkpt>
      <trkpt lat="45.22243" lon="6.01153">
        <ele>1623.3</ele>
        <time>2021-03-23T09:38:15Z</time>
      </trkpt>
      <trkpt lat="45.22243" lon="6.01156">
        <ele>1623.7</ele>
        <time>2021-03-23T09:38:19Z</time>
      </trkpt>
      <trkpt lat="45.2225" lon="6.0116">
        <ele>1625.3</ele>
        <time>2021-03-23T09:38:33Z</time>
      </trkpt>
      <trkpt lat="45.22263" lon="6.0118">
        <ele>1629.9</ele>
        <time>2021-03-23T09:38:52Z</time>
      </trkpt>
      <trkpt lat="45.22266" lon="6.01194">
        <ele>1632.3</ele>
        <time>2021-03-23T09:39:01Z</time>
      </trkpt>
      <trkpt lat="45.22266" lon="6.01206">
        <ele>1634</ele>
        <time>2021-03-23T09:39:07Z</time>
      </trkpt>
      <trkpt lat="45.22259" lon="6.01221">
        <ele>1636.3</ele>
        <time>2021-03-23T09:39:20Z</time>
      </trkpt>
      <trkpt lat="45.22252" lon="6.01232">
        <ele>1638.1</ele>
        <time>2021-03-23T09:39:27Z</time>
      </trkpt>
      <trkpt lat="45.22249" lon="6.01232">
        <ele>1638.8</ele>
        <time>2021-03-23T09:39:33Z</time>
      </trkpt>
      <trkpt lat="45.22244" lon="6.01236">
        <ele>1640</ele>
        <time>2021-03-23T09:39:41Z</time>
      </trkpt>
      <trkpt lat="45.22239" lon="6.0125">
        <ele>1642.7</ele>
        <time>2021-03-23T09:39:56Z</time>
      </trkpt>
      <trkpt lat="45.22235" lon="6.01254">
        <ele>1643.9</ele>
        <time>2021-03-23T09:40:03Z</time>
      </trkpt>
      <trkpt lat="45.22235" lon="6.01263">
        <ele>1645.7</ele>
        <time>2021-03-23T09:40:12Z</time>
      </trkpt>
      <trkpt lat="45.22231" lon="6.01278">
        <ele>1648.2</ele>
        <time>2021-03-23T09:40:26Z</time>
      </trkpt>
      <trkpt lat="45.2223" lon="6.01285">
        <ele>1648.3</ele>
        <time>2021-03-23T09:40:31Z</time>
      </trkpt>
      <trkpt lat="45.22234" lon="6.01297">
        <ele>1645.4</ele>
        <time>2021-03-23T09:40:42Z</time>
      </trkpt>
      <trkpt lat="45.22237" lon="6.01301">
        <ele>1644.2</ele>
        <time>2021-03-23T09:40:48Z</time>
      </trkpt>
      <trkpt lat="45.22242" lon="6.01302">
        <ele>1643.6</ele>
        <time>2021-03-23T09:40:55Z</time>
      </trkpt>
      <trkpt lat="45.22246" lon="6.01308">
        <ele>1644.2</ele>
        <time>2021-03-23T09:41:05Z</time>
      </trkpt>
      <trkpt lat="45.22246" lon="6.01311">
        <ele>1644.7</ele>
        <time>2021-03-23T09:41:09Z</time>
      </trkpt>
      <trkpt lat="45.22249" lon="6.01317">
        <ele>1647.4</ele>
        <time>2021-03-23T09:41:17Z</time>
      </trkpt>
      <trkpt lat="45.22249" lon="6.01323">
        <ele>1648.3</ele>
        <time>2021-03-23T09:41:23Z</time>
      </trkpt>
      <trkpt lat="45.22256" lon="6.01339">
        <ele>1654.6</ele>
        <time>2021-03-23T09:41:37Z</time>
      </trkpt>
      <trkpt lat="45.22258" lon="6.01342">
        <ele>1655.1</ele>
        <time>2021-03-23T09:41:41Z</time>
      </trkpt>
      <trkpt lat="45.22259" lon="6.01344">
        <ele>1657.3</ele>
        <time>2021-03-23T09:41:43Z</time>
      </trkpt>
      <trkpt lat="45.22261" lon="6.01345">
        <ele>1657</ele>
        <time>2021-03-23T09:41:47Z</time>
      </trkpt>
      <trkpt lat="45.22262" lon="6.01347">
        <ele>1659.1</ele>
        <time>2021-03-23T09:41:50Z</time>
      </trkpt>
      <trkpt lat="45.22265" lon="6.01351">
        <ele>1659.6</ele>
        <time>2021-03-23T09:41:57Z</time>
      </trkpt>
      <trkpt lat="45.22267" lon="6.01352">
        <ele>1661</ele>
        <time>2021-03-23T09:41:59Z</time>
      </trkpt>
      <trkpt lat="45.22268" lon="6.01351">
        <ele>1660.3</ele>
        <time>2021-03-23T09:42:01Z</time>
      </trkpt>
      <trkpt lat="45.22269" lon="6.01351">
        <ele>1661.8</ele>
        <time>2021-03-23T09:42:03Z</time>
      </trkpt>
      <trkpt lat="45.22269" lon="6.01354">
        <ele>1661.8</ele>
        <time>2021-03-23T09:42:07Z</time>
      </trkpt>
      <trkpt lat="45.22275" lon="6.01358">
        <ele>1663</ele>
        <time>2021-03-23T09:42:15Z</time>
      </trkpt>
      <trkpt lat="45.22274" lon="6.01363">
        <ele>1663.7</ele>
        <time>2021-03-23T09:42:20Z</time>
      </trkpt>
      <trkpt lat="45.22272" lon="6.01366">
        <ele>1664.3</ele>
        <time>2021-03-23T09:42:24Z</time>
      </trkpt>
      <trkpt lat="45.22265" lon="6.01369">
        <ele>1665.6</ele>
        <time>2021-03-23T09:42:31Z</time>
      </trkpt>
      <trkpt lat="45.2226" lon="6.01379">
        <ele>1667.3</ele>
        <time>2021-03-23T09:42:38Z</time>
      </trkpt>
      <trkpt lat="45.22248" lon="6.01386">
        <ele>1670.1</ele>
        <time>2021-03-23T09:42:52Z</time>
      </trkpt>
      <trkpt lat="45.22242" lon="6.01397">
        <ele>1672</ele>
        <time>2021-03-23T09:43:03Z</time>
      </trkpt>
      <trkpt lat="45.22239" lon="6.01404">
        <ele>1673.1</ele>
        <time>2021-03-23T09:43:10Z</time>
      </trkpt>
      <trkpt lat="45.22236" lon="6.01406">
        <ele>1673.7</ele>
        <time>2021-03-23T09:43:17Z</time>
      </trkpt>
      <trkpt lat="45.22235" lon="6.01416">
        <ele>1674.9</ele>
        <time>2021-03-23T09:43:25Z</time>
      </trkpt>
      <trkpt lat="45.22232" lon="6.01423">
        <ele>1676</ele>
        <time>2021-03-23T09:43:33Z</time>
      </trkpt>
      <trkpt lat="45.22232" lon="6.01427">
        <ele>1676.7</ele>
        <time>2021-03-23T09:43:47Z</time>
      </trkpt>
      <trkpt lat="45.2223" lon="6.01428">
        <ele>1677.1</ele>
        <time>2021-03-23T09:43:57Z</time>
      </trkpt>
      <trkpt lat="45.22233" lon="6.01431">
        <ele>1678</ele>
        <time>2021-03-23T09:44:13Z</time>
      </trkpt>
      <trkpt lat="45.22234" lon="6.01448">
        <ele>1679.9</ele>
        <time>2021-03-23T09:44:42Z</time>
      </trkpt>
      <trkpt lat="45.22232" lon="6.01447">
        <ele>1680.2</ele>
        <time>2021-03-23T09:44:54Z</time>
      </trkpt>
      <trkpt lat="45.22234" lon="6.01449">
        <ele>1680.7</ele>
        <time>2021-03-23T09:45:04Z</time>
      </trkpt>
      <trkpt lat="45.22236" lon="6.01464">
        <ele>1682.2</ele>
        <time>2021-03-23T09:45:11Z</time>
      </trkpt>
      <trkpt lat="45.22238" lon="6.0147">
        <ele>1682.9</ele>
        <time>2021-03-23T09:45:16Z</time>
      </trkpt>
      <trkpt lat="45.22238" lon="6.01489">
        <ele>1684.9</ele>
        <time>2021-03-23T09:45:27Z</time>
      </trkpt>
      <trkpt lat="45.22241" lon="6.01505">
        <ele>1686.5</ele>
        <time>2021-03-23T09:45:37Z</time>
      </trkpt>
      <trkpt lat="45.22244" lon="6.01529">
        <ele>1684.5</ele>
        <time>2021-03-23T09:45:50Z</time>
      </trkpt>
      <trkpt lat="45.22249" lon="6.01544">
        <ele>1683</ele>
        <time>2021-03-23T09:45:59Z</time>
      </trkpt>
      <trkpt lat="45.2225" lon="6.01562">
        <ele>1683.7</ele>
        <time>2021-03-23T09:46:10Z</time>
      </trkpt>
      <trkpt lat="45.22259" lon="6.01601">
        <ele>1685.6</ele>
        <time>2021-03-23T09:46:30Z</time>
      </trkpt>
      <trkpt lat="45.2226" lon="6.01635">
        <ele>1686.9</ele>
        <time>2021-03-23T09:46:47Z</time>
      </trkpt>
      <trkpt lat="45.22264" lon="6.01661">
        <ele>1687.1</ele>
        <time>2021-03-23T09:46:56Z</time>
      </trkpt>
      <trkpt lat="45.22265" lon="6.01687">
        <ele>1687.4</ele>
        <time>2021-03-23T09:47:06Z</time>
      </trkpt>
      <trkpt lat="45.22265" lon="6.0171">
        <ele>1687.8</ele>
        <time>2021-03-23T09:47:16Z</time>
      </trkpt>
      <trkpt lat="45.22262" lon="6.0174">
        <ele>1688.4</ele>
        <time>2021-03-23T09:47:29Z</time>
      </trkpt>
      <trkpt lat="45.22264" lon="6.01747">
        <ele>1688.7</ele>
        <time>2021-03-23T09:47:33Z</time>
      </trkpt>
      <trkpt lat="45.22263" lon="6.01748">
        <ele>1688.8</ele>
        <time>2021-03-23T09:47:35Z</time>
      </trkpt>
      <trkpt lat="45.22264" lon="6.01762">
        <ele>1689.5</ele>
        <time>2021-03-23T09:47:45Z</time>
      </trkpt>
      <trkpt lat="45.22264" lon="6.01787">
        <ele>1692.3</ele>
        <time>2021-03-23T09:48:05Z</time>
      </trkpt>
      <trkpt lat="45.22267" lon="6.01791">
        <ele>1693.6</ele>
        <time>2021-03-23T09:48:11Z</time>
      </trkpt>
      <trkpt lat="45.22268" lon="6.01796">
        <ele>1695.1</ele>
        <time>2021-03-23T09:48:16Z</time>
      </trkpt>
      <trkpt lat="45.22268" lon="6.01799">
        <ele>1694.4</ele>
        <time>2021-03-23T09:48:19Z</time>
      </trkpt>
      <trkpt lat="45.22269" lon="6.01805">
        <ele>1696.1</ele>
        <time>2021-03-23T09:48:27Z</time>
      </trkpt>
      <trkpt lat="45.22266" lon="6.01811">
        <ele>1695.6</ele>
        <time>2021-03-23T09:48:33Z</time>
      </trkpt>
      <trkpt lat="45.22265" lon="6.0182">
        <ele>1696.5</ele>
        <time>2021-03-23T09:48:41Z</time>
      </trkpt>
      <trkpt lat="45.22258" lon="6.0183">
        <ele>1693.7</ele>
        <time>2021-03-23T09:48:57Z</time>
      </trkpt>
      <trkpt lat="45.22257" lon="6.01839">
        <ele>1694.7</ele>
        <time>2021-03-23T09:49:05Z</time>
      </trkpt>
      <trkpt lat="45.22253" lon="6.01843">
        <ele>1695.2</ele>
        <time>2021-03-23T09:49:10Z</time>
      </trkpt>
      <trkpt lat="45.22252" lon="6.01857">
        <ele>1696.4</ele>
        <time>2021-03-23T09:49:21Z</time>
      </trkpt>
      <trkpt lat="45.22253" lon="6.01872">
        <ele>1698.3</ele>
        <time>2021-03-23T09:49:32Z</time>
      </trkpt>
      <trkpt lat="45.2225" lon="6.01881">
        <ele>1698.8</ele>
        <time>2021-03-23T09:49:37Z</time>
      </trkpt>
      <trkpt lat="45.22252" lon="6.01899">
        <ele>1700</ele>
        <time>2021-03-23T09:49:50Z</time>
      </trkpt>
      <trkpt lat="45.22249" lon="6.01931">
        <ele>1702.3</ele>
        <time>2021-03-23T09:50:13Z</time>
      </trkpt>
      <trkpt lat="45.22253" lon="6.01986">
        <ele>1705.1</ele>
        <time>2021-03-23T09:50:51Z</time>
      </trkpt>
      <trkpt lat="45.22252" lon="6.01995">
        <ele>1705.9</ele>
        <time>2021-03-23T09:50:58Z</time>
      </trkpt>
      <trkpt lat="45.22249" lon="6.02004">
        <ele>1707.2</ele>
        <time>2021-03-23T09:51:06Z</time>
      </trkpt>
      <trkpt lat="45.22249" lon="6.02014">
        <ele>1708.5</ele>
        <time>2021-03-23T09:51:12Z</time>
      </trkpt>
      <trkpt lat="45.2225" lon="6.02019">
        <ele>1709.4</ele>
        <time>2021-03-23T09:51:19Z</time>
      </trkpt>
      <trkpt lat="45.22248" lon="6.02023">
        <ele>1710.2</ele>
        <time>2021-03-23T09:51:25Z</time>
      </trkpt>
      <trkpt lat="45.2225" lon="6.02029">
        <ele>1711</ele>
        <time>2021-03-23T09:51:30Z</time>
      </trkpt>
      <trkpt lat="45.22248" lon="6.02041">
        <ele>1712.9</ele>
        <time>2021-03-23T09:51:39Z</time>
      </trkpt>
      <trkpt lat="45.2225" lon="6.02045">
        <ele>1713.6</ele>
        <time>2021-03-23T09:51:43Z</time>
      </trkpt>
      <trkpt lat="45.22248" lon="6.02055">
        <ele>1715.3</ele>
        <time>2021-03-23T09:51:53Z</time>
      </trkpt>
      <trkpt lat="45.2225" lon="6.02069">
        <ele>1717.8</ele>
        <time>2021-03-23T09:52:04Z</time>
      </trkpt>
      <trkpt lat="45.22247" lon="6.02091">
        <ele>1721.4</ele>
        <time>2021-03-23T09:52:21Z</time>
      </trkpt>
      <trkpt lat="45.22249" lon="6.021">
        <ele>1722.8</ele>
        <time>2021-03-23T09:52:31Z</time>
      </trkpt>
      <trkpt lat="45.22246" lon="6.02119">
        <ele>1724.8</ele>
        <time>2021-03-23T09:52:47Z</time>
      </trkpt>
      <trkpt lat="45.22247" lon="6.02133">
        <ele>1725.7</ele>
        <time>2021-03-23T09:52:58Z</time>
      </trkpt>
      <trkpt lat="45.22247" lon="6.02163">
        <ele>1728.3</ele>
        <time>2021-03-23T09:53:23Z</time>
      </trkpt>
      <trkpt lat="45.22245" lon="6.02176">
        <ele>1729.4</ele>
        <time>2021-03-23T09:53:32Z</time>
      </trkpt>
      <trkpt lat="45.22246" lon="6.0218">
        <ele>1729.8</ele>
        <time>2021-03-23T09:53:37Z</time>
      </trkpt>
      <trkpt lat="45.22244" lon="6.02186">
        <ele>1730.3</ele>
        <time>2021-03-23T09:53:46Z</time>
      </trkpt>
      <trkpt lat="45.22243" lon="6.02183">
        <ele>1730.5</ele>
        <time>2021-03-23T09:53:53Z</time>
      </trkpt>
      <trkpt lat="45.22242" lon="6.02184">
        <ele>1730.6</ele>
        <time>2021-03-23T09:53:56Z</time>
      </trkpt>
      <trkpt lat="45.22242" lon="6.02186">
        <ele>1730.8</ele>
        <time>2021-03-23T09:53:59Z</time>
      </trkpt>
      <trkpt lat="45.22243" lon="6.02187">
        <ele>1730.9</ele>
        <time>2021-03-23T09:54:06Z</time>
      </trkpt>
      <trkpt lat="45.2224" lon="6.02183">
        <ele>1731.3</ele>
        <time>2021-03-23T09:54:21Z</time>
      </trkpt>
      <trkpt lat="45.22243" lon="6.02187">
        <ele>1731.7</ele>
        <time>2021-03-23T09:54:33Z</time>
      </trkpt>
      <trkpt lat="45.22245" lon="6.02186">
        <ele>1731.9</ele>
        <time>2021-03-23T09:54:54Z</time>
      </trkpt>
      <trkpt lat="45.22242" lon="6.02202">
        <ele>1732.6</ele>
        <time>2021-03-23T09:55:42Z</time>
      </trkpt>
      <trkpt lat="45.22243" lon="6.02209">
        <ele>1732.9</ele>
        <time>2021-03-23T09:55:48Z</time>
      </trkpt>
      <trkpt lat="45.22243" lon="6.02213">
        <ele>1733.1</ele>
        <time>2021-03-23T09:55:53Z</time>
      </trkpt>
      <trkpt lat="45.22239" lon="6.02219">
        <ele>1733.5</ele>
        <time>2021-03-23T09:56:00Z</time>
      </trkpt>
      <trkpt lat="45.22236" lon="6.02227">
        <ele>1734</ele>
        <time>2021-03-23T09:56:09Z</time>
      </trkpt>
      <trkpt lat="45.22234" lon="6.0223">
        <ele>1734.3</ele>
        <time>2021-03-23T09:56:13Z</time>
      </trkpt>
      <trkpt lat="45.2222" lon="6.02211">
        <ele>1736.5</ele>
        <time>2021-03-23T09:56:24Z</time>
      </trkpt>
      <trkpt lat="45.22217" lon="6.02209">
        <ele>1736.8</ele>
        <time>2021-03-23T09:56:26Z</time>
      </trkpt>
      <trkpt lat="45.22212" lon="6.02212">
        <ele>1737.6</ele>
        <time>2021-03-23T09:56:30Z</time>
      </trkpt>
      <trkpt lat="45.22213" lon="6.02221">
        <ele>1738.5</ele>
        <time>2021-03-23T09:56:37Z</time>
      </trkpt>
      <trkpt lat="45.22206" lon="6.02225">
        <ele>1739.7</ele>
        <time>2021-03-23T09:56:46Z</time>
      </trkpt>
      <trkpt lat="45.22205" lon="6.02231">
        <ele>1740.5</ele>
        <time>2021-03-23T09:56:52Z</time>
      </trkpt>
      <trkpt lat="45.22205" lon="6.02238">
        <ele>1741.4</ele>
        <time>2021-03-23T09:57:00Z</time>
      </trkpt>
      <trkpt lat="45.22199" lon="6.02243">
        <ele>1742.8</ele>
        <time>2021-03-23T09:57:10Z</time>
      </trkpt>
      <trkpt lat="45.22196" lon="6.02247">
        <ele>1743.5</ele>
        <time>2021-03-23T09:57:16Z</time>
      </trkpt>
      <trkpt lat="45.22195" lon="6.02254">
        <ele>1744.4</ele>
        <time>2021-03-23T09:57:25Z</time>
      </trkpt>
      <trkpt lat="45.22193" lon="6.02255">
        <ele>1744.9</ele>
        <time>2021-03-23T09:57:29Z</time>
      </trkpt>
      <trkpt lat="45.22188" lon="6.02266">
        <ele>1746.4</ele>
        <time>2021-03-23T09:57:43Z</time>
      </trkpt>
      <trkpt lat="45.22181" lon="6.02273">
        <ele>1747.8</ele>
        <time>2021-03-23T09:57:56Z</time>
      </trkpt>
      <trkpt lat="45.2217" lon="6.02282">
        <ele>1748.5</ele>
        <time>2021-03-23T09:58:17Z</time>
      </trkpt>
      <trkpt lat="45.2215" lon="6.02274">
        <ele>1749.6</ele>
        <time>2021-03-23T09:58:45Z</time>
      </trkpt>
      <trkpt lat="45.22147" lon="6.02272">
        <ele>1749.7</ele>
        <time>2021-03-23T09:58:49Z</time>
      </trkpt>
      <trkpt lat="45.22135" lon="6.02272">
        <ele>1752.5</ele>
        <time>2021-03-23T09:59:05Z</time>
      </trkpt>
      <trkpt lat="45.22136" lon="6.02278">
        <ele>1752.7</ele>
        <time>2021-03-23T09:59:15Z</time>
      </trkpt>
      <trkpt lat="45.22131" lon="6.02282">
        <ele>1754.7</ele>
        <time>2021-03-23T09:59:26Z</time>
      </trkpt>
      <trkpt lat="45.22128" lon="6.02281">
        <ele>1755.6</ele>
        <time>2021-03-23T09:59:29Z</time>
      </trkpt>
      <trkpt lat="45.22125" lon="6.02278">
        <ele>1756.1</ele>
        <time>2021-03-23T09:59:33Z</time>
      </trkpt>
      <trkpt lat="45.2212" lon="6.02278">
        <ele>1756.9</ele>
        <time>2021-03-23T09:59:39Z</time>
      </trkpt>
      <trkpt lat="45.22119" lon="6.02279">
        <ele>1758.1</ele>
        <time>2021-03-23T09:59:43Z</time>
      </trkpt>
      <trkpt lat="45.22116" lon="6.02286">
        <ele>1759.3</ele>
        <time>2021-03-23T09:59:55Z</time>
      </trkpt>
      <trkpt lat="45.22111" lon="6.02291">
        <ele>1760.6</ele>
        <time>2021-03-23T10:00:03Z</time>
      </trkpt>
      <trkpt lat="45.22111" lon="6.02292">
        <ele>1762.2</ele>
        <time>2021-03-23T10:00:05Z</time>
      </trkpt>
      <trkpt lat="45.22111" lon="6.02297">
        <ele>1761.2</ele>
        <time>2021-03-23T10:00:13Z</time>
      </trkpt>
      <trkpt lat="45.22109" lon="6.02308">
        <ele>1763.2</ele>
        <time>2021-03-23T10:00:23Z</time>
      </trkpt>
      <trkpt lat="45.22107" lon="6.02311">
        <ele>1764.9</ele>
        <time>2021-03-23T10:00:27Z</time>
      </trkpt>
      <trkpt lat="45.22099" lon="6.02311">
        <ele>1767.2</ele>
        <time>2021-03-23T10:00:36Z</time>
      </trkpt>
      <trkpt lat="45.22095" lon="6.02316">
        <ele>1769.9</ele>
        <time>2021-03-23T10:00:46Z</time>
      </trkpt>
      <trkpt lat="45.2209" lon="6.02319">
        <ele>1771.6</ele>
        <time>2021-03-23T10:00:56Z</time>
      </trkpt>
      <trkpt lat="45.22089" lon="6.02318">
        <ele>1772.9</ele>
        <time>2021-03-23T10:01:02Z</time>
      </trkpt>
      <trkpt lat="45.22083" lon="6.02319">
        <ele>1774.2</ele>
        <time>2021-03-23T10:01:14Z</time>
      </trkpt>
      <trkpt lat="45.22083" lon="6.02319">
        <ele>1775.7</ele>
        <time>2021-03-23T10:01:15Z</time>
      </trkpt>
      <trkpt lat="45.2208" lon="6.0232">
        <ele>1777</ele>
        <time>2021-03-23T10:01:24Z</time>
      </trkpt>
      <trkpt lat="45.22068" lon="6.0233">
        <ele>1783.5</ele>
        <time>2021-03-23T10:01:35Z</time>
      </trkpt>
      <trkpt lat="45.22061" lon="6.02331">
        <ele>1787.4</ele>
        <time>2021-03-23T10:01:48Z</time>
      </trkpt>
      <trkpt lat="45.22055" lon="6.02334">
        <ele>1790.2</ele>
        <time>2021-03-23T10:01:59Z</time>
      </trkpt>
      <trkpt lat="45.22054" lon="6.02331">
        <ele>1790.2</ele>
        <time>2021-03-23T10:02:04Z</time>
      </trkpt>
      <trkpt lat="45.22053" lon="6.02332">
        <ele>1791.7</ele>
        <time>2021-03-23T10:02:06Z</time>
      </trkpt>
      <trkpt lat="45.2205" lon="6.02331">
        <ele>1791.6</ele>
        <time>2021-03-23T10:02:12Z</time>
      </trkpt>
      <trkpt lat="45.22044" lon="6.02338">
        <ele>1795.8</ele>
        <time>2021-03-23T10:02:27Z</time>
      </trkpt>
      <trkpt lat="45.22035" lon="6.02343">
        <ele>1798.6</ele>
        <time>2021-03-23T10:02:40Z</time>
      </trkpt>
      <trkpt lat="45.22029" lon="6.0235">
        <ele>1803.3</ele>
        <time>2021-03-23T10:02:51Z</time>
      </trkpt>
      <trkpt lat="45.22023" lon="6.02351">
        <ele>1804.9</ele>
        <time>2021-03-23T10:03:00Z</time>
      </trkpt>
      <trkpt lat="45.22022" lon="6.02351">
        <ele>1806.8</ele>
        <time>2021-03-23T10:03:02Z</time>
      </trkpt>
      <trkpt lat="45.22021" lon="6.02354">
        <ele>1806.8</ele>
        <time>2021-03-23T10:03:08Z</time>
      </trkpt>
      <trkpt lat="45.22017" lon="6.02356">
        <ele>1810</ele>
        <time>2021-03-23T10:03:17Z</time>
      </trkpt>
      <trkpt lat="45.22011" lon="6.02357">
        <ele>1811.4</ele>
        <time>2021-03-23T10:03:24Z</time>
      </trkpt>
      <trkpt lat="45.22007" lon="6.02359">
        <ele>1814.7</ele>
        <time>2021-03-23T10:03:30Z</time>
      </trkpt>
      <trkpt lat="45.22005" lon="6.02359">
        <ele>1814.7</ele>
        <time>2021-03-23T10:03:35Z</time>
      </trkpt>
      <trkpt lat="45.22004" lon="6.02359">
        <ele>1816.5</ele>
        <time>2021-03-23T10:03:36Z</time>
      </trkpt>
      <trkpt lat="45.22002" lon="6.02363">
        <ele>1816.8</ele>
        <time>2021-03-23T10:03:43Z</time>
      </trkpt>
      <trkpt lat="45.22001" lon="6.02364">
        <ele>1819.2</ele>
        <time>2021-03-23T10:03:45Z</time>
      </trkpt>
      <trkpt lat="45.21999" lon="6.02369">
        <ele>1819.6</ele>
        <time>2021-03-23T10:03:49Z</time>
      </trkpt>
      <trkpt lat="45.21998" lon="6.0237">
        <ele>1821.6</ele>
        <time>2021-03-23T10:03:50Z</time>
      </trkpt>
      <trkpt lat="45.21993" lon="6.02372">
        <ele>1823.2</ele>
        <time>2021-03-23T10:04:02Z</time>
      </trkpt>
      <trkpt lat="45.21986" lon="6.02379">
        <ele>1829.1</ele>
        <time>2021-03-23T10:04:19Z</time>
      </trkpt>
      <trkpt lat="45.21984" lon="6.0238">
        <ele>1829.1</ele>
        <time>2021-03-23T10:04:24Z</time>
      </trkpt>
      <trkpt lat="45.21983" lon="6.0238">
        <ele>1830.8</ele>
        <time>2021-03-23T10:04:26Z</time>
      </trkpt>
      <trkpt lat="45.21981" lon="6.02379">
        <ele>1830.8</ele>
        <time>2021-03-23T10:04:30Z</time>
      </trkpt>
      <trkpt lat="45.2198" lon="6.02378">
        <ele>1832.6</ele>
        <time>2021-03-23T10:04:32Z</time>
      </trkpt>
      <trkpt lat="45.21978" lon="6.02376">
        <ele>1832</ele>
        <time>2021-03-23T10:04:37Z</time>
      </trkpt>
      <trkpt lat="45.21978" lon="6.02376">
        <ele>1833.8</ele>
        <time>2021-03-23T10:04:38Z</time>
      </trkpt>
      <trkpt lat="45.21975" lon="6.02377">
        <ele>1834.3</ele>
        <time>2021-03-23T10:04:44Z</time>
      </trkpt>
      <trkpt lat="45.21974" lon="6.02377">
        <ele>1836.2</ele>
        <time>2021-03-23T10:04:46Z</time>
      </trkpt>
      <trkpt lat="45.21972" lon="6.02383">
        <ele>1836.7</ele>
        <time>2021-03-23T10:04:53Z</time>
      </trkpt>
      <trkpt lat="45.21968" lon="6.02385">
        <ele>1840.2</ele>
        <time>2021-03-23T10:04:59Z</time>
      </trkpt>
      <trkpt lat="45.21969" lon="6.02389">
        <ele>1838.9</ele>
        <time>2021-03-23T10:05:11Z</time>
      </trkpt>
      <trkpt lat="45.21969" lon="6.02393">
        <ele>1839.6</ele>
        <time>2021-03-23T10:05:16Z</time>
      </trkpt>
      <trkpt lat="45.21968" lon="6.02395">
        <ele>1842.2</ele>
        <time>2021-03-23T10:05:18Z</time>
      </trkpt>
      <trkpt lat="45.21963" lon="6.02404">
        <ele>1845.8</ele>
        <time>2021-03-23T10:05:31Z</time>
      </trkpt>
      <trkpt lat="45.21963" lon="6.02402">
        <ele>1844.5</ele>
        <time>2021-03-23T10:05:45Z</time>
      </trkpt>
      <trkpt lat="45.21959" lon="6.02399">
        <ele>1847.7</ele>
        <time>2021-03-23T10:05:55Z</time>
      </trkpt>
      <trkpt lat="45.21957" lon="6.02397">
        <ele>1846.6</ele>
        <time>2021-03-23T10:06:01Z</time>
      </trkpt>
      <trkpt lat="45.21953" lon="6.02396">
        <ele>1849.6</ele>
        <time>2021-03-23T10:06:08Z</time>
      </trkpt>
      <trkpt lat="45.21948" lon="6.02391">
        <ele>1850.2</ele>
        <time>2021-03-23T10:06:21Z</time>
      </trkpt>
      <trkpt lat="45.21947" lon="6.02391">
        <ele>1851.9</ele>
        <time>2021-03-23T10:06:23Z</time>
      </trkpt>
      <trkpt lat="45.21944" lon="6.0239">
        <ele>1851</ele>
        <time>2021-03-23T10:06:27Z</time>
      </trkpt>
      <trkpt lat="45.21944" lon="6.02389">
        <ele>1852.8</ele>
        <time>2021-03-23T10:06:28Z</time>
      </trkpt>
      <trkpt lat="45.21939" lon="6.02383">
        <ele>1853.7</ele>
        <time>2021-03-23T10:06:43Z</time>
      </trkpt>
      <trkpt lat="45.21938" lon="6.02382">
        <ele>1855.4</ele>
        <time>2021-03-23T10:06:45Z</time>
      </trkpt>
      <trkpt lat="45.21932" lon="6.02369">
        <ele>1854.9</ele>
        <time>2021-03-23T10:07:01Z</time>
      </trkpt>
      <trkpt lat="45.21926" lon="6.02359">
        <ele>1857.8</ele>
        <time>2021-03-23T10:07:18Z</time>
      </trkpt>
      <trkpt lat="45.21923" lon="6.0235">
        <ele>1856.8</ele>
        <time>2021-03-23T10:07:26Z</time>
      </trkpt>
      <trkpt lat="45.21926" lon="6.02346">
        <ele>1856.4</ele>
        <time>2021-03-23T10:07:33Z</time>
      </trkpt>
      <trkpt lat="45.21924" lon="6.02352">
        <ele>1856.9</ele>
        <time>2021-03-23T10:07:43Z</time>
      </trkpt>
      <trkpt lat="45.21923" lon="6.02353">
        <ele>1858.7</ele>
        <time>2021-03-23T10:07:45Z</time>
      </trkpt>
      <trkpt lat="45.21917" lon="6.02357">
        <ele>1861.1</ele>
        <time>2021-03-23T10:07:51Z</time>
      </trkpt>
      <trkpt lat="45.21916" lon="6.02358">
        <ele>1863.2</ele>
        <time>2021-03-23T10:07:53Z</time>
      </trkpt>
      <trkpt lat="45.21916" lon="6.02363">
        <ele>1863.5</ele>
        <time>2021-03-23T10:08:04Z</time>
      </trkpt>
      <trkpt lat="45.21914" lon="6.02368">
        <ele>1863.9</ele>
        <time>2021-03-23T10:08:14Z</time>
      </trkpt>
      <trkpt lat="45.21913" lon="6.0237">
        <ele>1866.5</ele>
        <time>2021-03-23T10:08:16Z</time>
      </trkpt>
      <trkpt lat="45.21911" lon="6.02377">
        <ele>1867.1</ele>
        <time>2021-03-23T10:08:23Z</time>
      </trkpt>
      <trkpt lat="45.21913" lon="6.02386">
        <ele>1869.2</ele>
        <time>2021-03-23T10:08:38Z</time>
      </trkpt>
      <trkpt lat="45.21913" lon="6.0239">
        <ele>1869.1</ele>
        <time>2021-03-23T10:08:44Z</time>
      </trkpt>
      <trkpt lat="45.21911" lon="6.02392">
        <ele>1872</ele>
        <time>2021-03-23T10:08:49Z</time>
      </trkpt>
      <trkpt lat="45.21908" lon="6.02394">
        <ele>1871.9</ele>
        <time>2021-03-23T10:08:54Z</time>
      </trkpt>
      <trkpt lat="45.21905" lon="6.02396">
        <ele>1874.8</ele>
        <time>2021-03-23T10:08:58Z</time>
      </trkpt>
      <trkpt lat="45.21905" lon="6.02395">
        <ele>1876.5</ele>
        <time>2021-03-23T10:09:04Z</time>
      </trkpt>
      <trkpt lat="45.21904" lon="6.02394">
        <ele>1875.3</ele>
        <time>2021-03-23T10:09:08Z</time>
      </trkpt>
      <trkpt lat="45.21902" lon="6.02392">
        <ele>1875.3</ele>
        <time>2021-03-23T10:09:12Z</time>
      </trkpt>
      <trkpt lat="45.21901" lon="6.02392">
        <ele>1877.1</ele>
        <time>2021-03-23T10:09:14Z</time>
      </trkpt>
      <trkpt lat="45.21899" lon="6.0239">
        <ele>1876</ele>
        <time>2021-03-23T10:09:17Z</time>
      </trkpt>
      <trkpt lat="45.21898" lon="6.02389">
        <ele>1878</ele>
        <time>2021-03-23T10:09:19Z</time>
      </trkpt>
      <trkpt lat="45.21896" lon="6.02387">
        <ele>1877.9</ele>
        <time>2021-03-23T10:09:23Z</time>
      </trkpt>
      <trkpt lat="45.21896" lon="6.02387">
        <ele>1880.1</ele>
        <time>2021-03-23T10:09:24Z</time>
      </trkpt>
      <trkpt lat="45.21893" lon="6.02385">
        <ele>1879</ele>
        <time>2021-03-23T10:09:29Z</time>
      </trkpt>
      <trkpt lat="45.21892" lon="6.02384">
        <ele>1881.2</ele>
        <time>2021-03-23T10:09:31Z</time>
      </trkpt>
      <trkpt lat="45.2189" lon="6.02382">
        <ele>1881.1</ele>
        <time>2021-03-23T10:09:34Z</time>
      </trkpt>
      <trkpt lat="45.2189" lon="6.02382">
        <ele>1883.3</ele>
        <time>2021-03-23T10:09:35Z</time>
      </trkpt>
      <trkpt lat="45.21888" lon="6.02381">
        <ele>1882.3</ele>
        <time>2021-03-23T10:09:39Z</time>
      </trkpt>
      <trkpt lat="45.21887" lon="6.0238">
        <ele>1884.4</ele>
        <time>2021-03-23T10:09:41Z</time>
      </trkpt>
      <trkpt lat="45.21885" lon="6.02379">
        <ele>1884.3</ele>
        <time>2021-03-23T10:09:45Z</time>
      </trkpt>
      <trkpt lat="45.21884" lon="6.02377">
        <ele>1886.4</ele>
        <time>2021-03-23T10:09:47Z</time>
      </trkpt>
      <trkpt lat="45.21881" lon="6.02375">
        <ele>1885.4</ele>
        <time>2021-03-23T10:09:52Z</time>
      </trkpt>
      <trkpt lat="45.21881" lon="6.02374">
        <ele>1887.3</ele>
        <time>2021-03-23T10:09:53Z</time>
      </trkpt>
      <trkpt lat="45.21876" lon="6.02368">
        <ele>1887.4</ele>
        <time>2021-03-23T10:10:00Z</time>
      </trkpt>
      <trkpt lat="45.21872" lon="6.02365">
        <ele>1891.1</ele>
        <time>2021-03-23T10:10:07Z</time>
      </trkpt>
      <trkpt lat="45.2187" lon="6.02361">
        <ele>1890.1</ele>
        <time>2021-03-23T10:10:13Z</time>
      </trkpt>
      <trkpt lat="45.21867" lon="6.02358">
        <ele>1891</ele>
        <time>2021-03-23T10:10:17Z</time>
      </trkpt>
      <trkpt lat="45.21863" lon="6.02361">
        <ele>1893.8</ele>
        <time>2021-03-23T10:10:28Z</time>
      </trkpt>
      <trkpt lat="45.21863" lon="6.02362">
        <ele>1895.9</ele>
        <time>2021-03-23T10:10:30Z</time>
      </trkpt>
      <trkpt lat="45.2186" lon="6.02363">
        <ele>1895.9</ele>
        <time>2021-03-23T10:10:34Z</time>
      </trkpt>
      <trkpt lat="45.21857" lon="6.02364">
        <ele>1900.1</ele>
        <time>2021-03-23T10:10:37Z</time>
      </trkpt>
      <trkpt lat="45.21853" lon="6.02365">
        <ele>1903.2</ele>
        <time>2021-03-23T10:10:43Z</time>
      </trkpt>
      <trkpt lat="45.21851" lon="6.02364">
        <ele>1903.1</ele>
        <time>2021-03-23T10:10:51Z</time>
      </trkpt>
      <trkpt lat="45.2185" lon="6.02364">
        <ele>1905.1</ele>
        <time>2021-03-23T10:10:53Z</time>
      </trkpt>
      <trkpt lat="45.21848" lon="6.02366">
        <ele>1905</ele>
        <time>2021-03-23T10:11:00Z</time>
      </trkpt>
      <trkpt lat="45.21847" lon="6.02367">
        <ele>1906.9</ele>
        <time>2021-03-23T10:11:02Z</time>
      </trkpt>
      <trkpt lat="45.21845" lon="6.0237">
        <ele>1907.9</ele>
        <time>2021-03-23T10:11:13Z</time>
      </trkpt>
      <trkpt lat="45.21845" lon="6.02383">
        <ele>1910.9</ele>
        <time>2021-03-23T10:11:25Z</time>
      </trkpt>
      <trkpt lat="45.21844" lon="6.02386">
        <ele>1914</ele>
        <time>2021-03-23T10:11:31Z</time>
      </trkpt>
      <trkpt lat="45.21844" lon="6.02389">
        <ele>1913.9</ele>
        <time>2021-03-23T10:11:34Z</time>
      </trkpt>
      <trkpt lat="45.21845" lon="6.0239">
        <ele>1911.9</ele>
        <time>2021-03-23T10:11:35Z</time>
      </trkpt>
      <trkpt lat="45.21845" lon="6.02396">
        <ele>1914.4</ele>
        <time>2021-03-23T10:11:43Z</time>
      </trkpt>
      <trkpt lat="45.21845" lon="6.02396">
        <ele>1916.3</ele>
        <time>2021-03-23T10:11:46Z</time>
      </trkpt>
      <trkpt lat="45.21842" lon="6.02394">
        <ele>1914.9</ele>
        <time>2021-03-23T10:11:52Z</time>
      </trkpt>
      <trkpt lat="45.21841" lon="6.02393">
        <ele>1916.9</ele>
        <time>2021-03-23T10:11:54Z</time>
      </trkpt>
      <trkpt lat="45.21839" lon="6.02392">
        <ele>1916.9</ele>
        <time>2021-03-23T10:11:57Z</time>
      </trkpt>
      <trkpt lat="45.21836" lon="6.02392">
        <ele>1919</ele>
        <time>2021-03-23T10:12:01Z</time>
      </trkpt>
      <trkpt lat="45.21837" lon="6.02395">
        <ele>1920.2</ele>
        <time>2021-03-23T10:12:08Z</time>
      </trkpt>
      <trkpt lat="45.21838" lon="6.02399">
        <ele>1921.4</ele>
        <time>2021-03-23T10:12:14Z</time>
      </trkpt>
      <trkpt lat="45.21842" lon="6.02405">
        <ele>1918.5</ele>
        <time>2021-03-23T10:12:19Z</time>
      </trkpt>
      <trkpt lat="45.21844" lon="6.02408">
        <ele>1919.8</ele>
        <time>2021-03-23T10:12:29Z</time>
      </trkpt>
      <trkpt lat="45.21845" lon="6.02411">
        <ele>1917.7</ele>
        <time>2021-03-23T10:12:34Z</time>
      </trkpt>
      <trkpt lat="45.21845" lon="6.02415">
        <ele>1919.1</ele>
        <time>2021-03-23T10:12:36Z</time>
      </trkpt>
      <trkpt lat="45.21844" lon="6.02416">
        <ele>1922.5</ele>
        <time>2021-03-23T10:12:37Z</time>
      </trkpt>
      <trkpt lat="45.21844" lon="6.02432">
        <ele>1926.1</ele>
        <time>2021-03-23T10:12:55Z</time>
      </trkpt>
      <trkpt lat="45.21844" lon="6.02437">
        <ele>1928.7</ele>
        <time>2021-03-23T10:12:58Z</time>
      </trkpt>
      <trkpt lat="45.21845" lon="6.0244">
        <ele>1926.7</ele>
        <time>2021-03-23T10:13:01Z</time>
      </trkpt>
      <trkpt lat="45.21846" lon="6.02448">
        <ele>1929.2</ele>
        <time>2021-03-23T10:13:10Z</time>
      </trkpt>
      <trkpt lat="45.21849" lon="6.02451">
        <ele>1928.4</ele>
        <time>2021-03-23T10:13:14Z</time>
      </trkpt>
      <trkpt lat="45.2185" lon="6.02464">
        <ele>1931.5</ele>
        <time>2021-03-23T10:13:30Z</time>
      </trkpt>
      <trkpt lat="45.21851" lon="6.02467">
        <ele>1929.3</ele>
        <time>2021-03-23T10:13:34Z</time>
      </trkpt>
      <trkpt lat="45.21852" lon="6.02473">
        <ele>1931.2</ele>
        <time>2021-03-23T10:13:40Z</time>
      </trkpt>
      <trkpt lat="45.21854" lon="6.02478">
        <ele>1929.9</ele>
        <time>2021-03-23T10:13:47Z</time>
      </trkpt>
      <trkpt lat="45.21856" lon="6.02485">
        <ele>1931.6</ele>
        <time>2021-03-23T10:13:54Z</time>
      </trkpt>
      <trkpt lat="45.21857" lon="6.02486">
        <ele>1929.4</ele>
        <time>2021-03-23T10:13:58Z</time>
      </trkpt>
      <trkpt lat="45.21862" lon="6.02501">
        <ele>1929.9</ele>
        <time>2021-03-23T10:14:14Z</time>
      </trkpt>
      <trkpt lat="45.21862" lon="6.02511">
        <ele>1932.2</ele>
        <time>2021-03-23T10:14:22Z</time>
      </trkpt>
      <trkpt lat="45.21863" lon="6.02518">
        <ele>1930.9</ele>
        <time>2021-03-23T10:14:28Z</time>
      </trkpt>
      <trkpt lat="45.21867" lon="6.02525">
        <ele>1932.4</ele>
        <time>2021-03-23T10:14:39Z</time>
      </trkpt>
      <trkpt lat="45.21867" lon="6.02533">
        <ele>1934.2</ele>
        <time>2021-03-23T10:14:47Z</time>
      </trkpt>
      <trkpt lat="45.21865" lon="6.02539">
        <ele>1935.7</ele>
        <time>2021-03-23T10:14:51Z</time>
      </trkpt>
      <trkpt lat="45.21865" lon="6.02543">
        <ele>1936.7</ele>
        <time>2021-03-23T10:14:55Z</time>
      </trkpt>
      <trkpt lat="45.2186" lon="6.02558">
        <ele>1940.3</ele>
        <time>2021-03-23T10:15:08Z</time>
      </trkpt>
      <trkpt lat="45.21863" lon="6.02564">
        <ele>1941.8</ele>
        <time>2021-03-23T10:15:14Z</time>
      </trkpt>
      <trkpt lat="45.21863" lon="6.02564">
        <ele>1946.9</ele>
        <time>2021-03-23T10:15:15Z</time>
      </trkpt>
      <trkpt lat="45.21863" lon="6.02568">
        <ele>1947.3</ele>
        <time>2021-03-23T10:15:24Z</time>
      </trkpt>
      <trkpt lat="45.2186" lon="6.02565">
        <ele>1947.9</ele>
        <time>2021-03-23T10:15:31Z</time>
      </trkpt>
      <trkpt lat="45.2186" lon="6.02561">
        <ele>1948.2</ele>
        <time>2021-03-23T10:15:35Z</time>
      </trkpt>
      <trkpt lat="45.21858" lon="6.02554">
        <ele>1949</ele>
        <time>2021-03-23T10:15:44Z</time>
      </trkpt>
      <trkpt lat="45.21852" lon="6.02547">
        <ele>1949.9</ele>
        <time>2021-03-23T10:16:02Z</time>
      </trkpt>
      <trkpt lat="45.2184" lon="6.0254">
        <ele>1951.2</ele>
        <time>2021-03-23T10:16:16Z</time>
      </trkpt>
      <trkpt lat="45.21839" lon="6.02543">
        <ele>1951.5</ele>
        <time>2021-03-23T10:16:27Z</time>
      </trkpt>
      <trkpt lat="45.21842" lon="6.02548">
        <ele>1951.8</ele>
        <time>2021-03-23T10:16:37Z</time>
      </trkpt>
      <trkpt lat="45.21842" lon="6.02555">
        <ele>1952.1</ele>
        <time>2021-03-23T10:16:43Z</time>
      </trkpt>
      <trkpt lat="45.21841" lon="6.02567">
        <ele>1952.6</ele>
        <time>2021-03-23T10:16:56Z</time>
      </trkpt>
      <trkpt lat="45.21846" lon="6.0258">
        <ele>1953</ele>
        <time>2021-03-23T10:17:09Z</time>
      </trkpt>
      <trkpt lat="45.21845" lon="6.02581">
        <ele>1953.1</ele>
        <time>2021-03-23T10:17:12Z</time>
      </trkpt>
      <trkpt lat="45.21844" lon="6.02594">
        <ele>1953.4</ele>
        <time>2021-03-23T10:17:26Z</time>
      </trkpt>
      <trkpt lat="45.21845" lon="6.02595">
        <ele>1953.5</ele>
        <time>2021-03-23T10:17:42Z</time>
      </trkpt>
      <trkpt lat="45.21845" lon="6.02595">
        <ele>1956.7</ele>
        <time>2021-03-23T10:19:44Z</time>
      </trkpt>
      <trkpt lat="45.21847" lon="6.02595">
        <ele>1957.2</ele>
        <time>2021-03-23T10:19:58Z</time>
      </trkpt>
      <trkpt lat="45.21846" lon="6.02604">
        <ele>1958.7</ele>
        <time>2021-03-23T10:20:33Z</time>
      </trkpt>
      <trkpt lat="45.21848" lon="6.02616">
        <ele>1959.3</ele>
        <time>2021-03-23T10:20:44Z</time>
      </trkpt>
      <trkpt lat="45.21842" lon="6.02638">
        <ele>1960.7</ele>
        <time>2021-03-23T10:21:04Z</time>
      </trkpt>
      <trkpt lat="45.21844" lon="6.0265">
        <ele>1961.5</ele>
        <time>2021-03-23T10:21:16Z</time>
      </trkpt>
      <trkpt lat="45.21844" lon="6.02693">
        <ele>1964.6</ele>
        <time>2021-03-23T10:21:47Z</time>
      </trkpt>
      <trkpt lat="45.21837" lon="6.02712">
        <ele>1966.3</ele>
        <time>2021-03-23T10:22:02Z</time>
      </trkpt>
      <trkpt lat="45.21834" lon="6.02723">
        <ele>1967.2</ele>
        <time>2021-03-23T10:22:11Z</time>
      </trkpt>
      <trkpt lat="45.21827" lon="6.02735">
        <ele>1968.3</ele>
        <time>2021-03-23T10:22:24Z</time>
      </trkpt>
      <trkpt lat="45.21825" lon="6.02741">
        <ele>1968.9</ele>
        <time>2021-03-23T10:22:28Z</time>
      </trkpt>
      <trkpt lat="45.21826" lon="6.02752">
        <ele>1969.8</ele>
        <time>2021-03-23T10:22:37Z</time>
      </trkpt>
      <trkpt lat="45.21826" lon="6.02765">
        <ele>1971</ele>
        <time>2021-03-23T10:22:48Z</time>
      </trkpt>
      <trkpt lat="45.21822" lon="6.02773">
        <ele>1971.9</ele>
        <time>2021-03-23T10:22:56Z</time>
      </trkpt>
      <trkpt lat="45.21823" lon="6.02778">
        <ele>1972.4</ele>
        <time>2021-03-23T10:23:00Z</time>
      </trkpt>
      <trkpt lat="45.21819" lon="6.02792">
        <ele>1974.2</ele>
        <time>2021-03-23T10:23:11Z</time>
      </trkpt>
      <trkpt lat="45.21814" lon="6.028">
        <ele>1975.5</ele>
        <time>2021-03-23T10:23:18Z</time>
      </trkpt>
      <trkpt lat="45.21813" lon="6.0281">
        <ele>1976.9</ele>
        <time>2021-03-23T10:23:26Z</time>
      </trkpt>
      <trkpt lat="45.218" lon="6.02841">
        <ele>1981.5</ele>
        <time>2021-03-23T10:23:56Z</time>
      </trkpt>
      <trkpt lat="45.21792" lon="6.02853">
        <ele>1982.9</ele>
        <time>2021-03-23T10:24:07Z</time>
      </trkpt>
      <trkpt lat="45.21791" lon="6.02859">
        <ele>1983.3</ele>
        <time>2021-03-23T10:24:12Z</time>
      </trkpt>
      <trkpt lat="45.21784" lon="6.0287">
        <ele>1984.3</ele>
        <time>2021-03-23T10:24:23Z</time>
      </trkpt>
      <trkpt lat="45.21772" lon="6.0291">
        <ele>1986.6</ele>
        <time>2021-03-23T10:25:05Z</time>
      </trkpt>
      <trkpt lat="45.21769" lon="6.02934">
        <ele>1987.6</ele>
        <time>2021-03-23T10:25:23Z</time>
      </trkpt>
      <trkpt lat="45.21772" lon="6.02941">
        <ele>1987.9</ele>
        <time>2021-03-23T10:25:30Z</time>
      </trkpt>
      <trkpt lat="45.21774" lon="6.02955">
        <ele>1988.5</ele>
        <time>2021-03-23T10:25:42Z</time>
      </trkpt>
      <trkpt lat="45.21772" lon="6.0296">
        <ele>1989</ele>
        <time>2021-03-23T10:25:49Z</time>
      </trkpt>
      <trkpt lat="45.21777" lon="6.02957">
        <ele>1989.6</ele>
        <time>2021-03-23T10:26:10Z</time>
      </trkpt>
      <trkpt lat="45.21777" lon="6.02955">
        <ele>1989.9</ele>
        <time>2021-03-23T10:26:17Z</time>
      </trkpt>
      <trkpt lat="45.21778" lon="6.02957">
        <ele>1990.1</ele>
        <time>2021-03-23T10:26:21Z</time>
      </trkpt>
      <trkpt lat="45.21775" lon="6.0296">
        <ele>1990.5</ele>
        <time>2021-03-23T10:26:30Z</time>
      </trkpt>
      <trkpt lat="45.21777" lon="6.0296">
        <ele>1990.7</ele>
        <time>2021-03-23T10:26:38Z</time>
      </trkpt>
      <trkpt lat="45.21773" lon="6.02958">
        <ele>1991.3</ele>
        <time>2021-03-23T10:26:53Z</time>
      </trkpt>
      <trkpt lat="45.21772" lon="6.02963">
        <ele>1991.7</ele>
        <time>2021-03-23T10:27:03Z</time>
      </trkpt>
      <trkpt lat="45.21778" lon="6.03005">
        <ele>1995.3</ele>
        <time>2021-03-23T10:27:35Z</time>
      </trkpt>
      <trkpt lat="45.21777" lon="6.03028">
        <ele>1997.3</ele>
        <time>2021-03-23T10:27:50Z</time>
      </trkpt>
      <trkpt lat="45.21779" lon="6.0305">
        <ele>1998.7</ele>
        <time>2021-03-23T10:28:05Z</time>
      </trkpt>
      <trkpt lat="45.21778" lon="6.03065">
        <ele>1999.2</ele>
        <time>2021-03-23T10:28:14Z</time>
      </trkpt>
      <trkpt lat="45.21782" lon="6.03102">
        <ele>1999.7</ele>
        <time>2021-03-23T10:28:39Z</time>
      </trkpt>
      <trkpt lat="45.21777" lon="6.03137">
        <ele>2000.6</ele>
        <time>2021-03-23T10:29:08Z</time>
      </trkpt>
      <trkpt lat="45.21777" lon="6.03157">
        <ele>2002.5</ele>
        <time>2021-03-23T10:29:22Z</time>
      </trkpt>
      <trkpt lat="45.21776" lon="6.03165">
        <ele>2003.8</ele>
        <time>2021-03-23T10:29:28Z</time>
      </trkpt>
      <trkpt lat="45.21784" lon="6.03198">
        <ele>2008.4</ele>
        <time>2021-03-23T10:29:55Z</time>
      </trkpt>
      <trkpt lat="45.21786" lon="6.03209">
        <ele>2009.1</ele>
        <time>2021-03-23T10:30:01Z</time>
      </trkpt>
      <trkpt lat="45.21786" lon="6.03217">
        <ele>2009.5</ele>
        <time>2021-03-23T10:30:05Z</time>
      </trkpt>
      <trkpt lat="45.21789" lon="6.0323">
        <ele>2010.1</ele>
        <time>2021-03-23T10:30:19Z</time>
      </trkpt>
      <trkpt lat="45.21802" lon="6.03273">
        <ele>2013.6</ele>
        <time>2021-03-23T10:31:05Z</time>
      </trkpt>
      <trkpt lat="45.21809" lon="6.03289">
        <ele>2015.9</ele>
        <time>2021-03-23T10:31:21Z</time>
      </trkpt>
      <trkpt lat="45.21814" lon="6.03292">
        <ele>2016.8</ele>
        <time>2021-03-23T10:31:29Z</time>
      </trkpt>
      <trkpt lat="45.21817" lon="6.033">
        <ele>2017.9</ele>
        <time>2021-03-23T10:31:37Z</time>
      </trkpt>
      <trkpt lat="45.21818" lon="6.03298">
        <ele>2018.2</ele>
        <time>2021-03-23T10:31:49Z</time>
      </trkpt>
      <trkpt lat="45.21815" lon="6.03299">
        <ele>2018.9</ele>
        <time>2021-03-23T10:32:14Z</time>
      </trkpt>
      <trkpt lat="45.2182" lon="6.03302">
        <ele>2020.3</ele>
        <time>2021-03-23T10:32:55Z</time>
      </trkpt>
      <trkpt lat="45.21834" lon="6.03321">
        <ele>2023.3</ele>
        <time>2021-03-23T10:33:04Z</time>
      </trkpt>
      <trkpt lat="45.21845" lon="6.03342">
        <ele>2024</ele>
        <time>2021-03-23T10:33:12Z</time>
      </trkpt>
      <trkpt lat="45.21882" lon="6.03388">
        <ele>2020.6</ele>
        <time>2021-03-23T10:33:34Z</time>
      </trkpt>
      <trkpt lat="45.21895" lon="6.03415">
        <ele>2018.4</ele>
        <time>2021-03-23T10:33:50Z</time>
      </trkpt>
      <trkpt lat="45.21897" lon="6.03413">
        <ele>2018.2</ele>
        <time>2021-03-23T10:34:00Z</time>
      </trkpt>
      <trkpt lat="45.21899" lon="6.03416">
        <ele>2017.9</ele>
        <time>2021-03-23T10:34:13Z</time>
      </trkpt>
      <trkpt lat="45.21899" lon="6.03413">
        <ele>2017.7</ele>
        <time>2021-03-23T10:34:36Z</time>
      </trkpt>
      <trkpt lat="45.21904" lon="6.03412">
        <ele>2017.1</ele>
        <time>2021-03-23T10:35:17Z</time>
      </trkpt>
      <trkpt lat="45.21902" lon="6.03415">
        <ele>2016.9</ele>
        <time>2021-03-23T10:35:27Z</time>
      </trkpt>
      <trkpt lat="45.21903" lon="6.03412">
        <ele>2016.5</ele>
        <time>2021-03-23T10:35:49Z</time>
      </trkpt>
      <trkpt lat="45.21899" lon="6.03415">
        <ele>2016</ele>
        <time>2021-03-23T10:36:19Z</time>
      </trkpt>
      <trkpt lat="45.21905" lon="6.03417">
        <ele>2015.5</ele>
        <time>2021-03-23T10:36:44Z</time>
      </trkpt>
      <trkpt lat="45.21899" lon="6.03414">
        <ele>2015.1</ele>
        <time>2021-03-23T10:37:04Z</time>
      </trkpt>
      <trkpt lat="45.219" lon="6.03418">
        <ele>2014.8</ele>
        <time>2021-03-23T10:37:31Z</time>
      </trkpt>
      <trkpt lat="45.21902" lon="6.03416">
        <ele>2014.7</ele>
        <time>2021-03-23T10:37:39Z</time>
      </trkpt>
      <trkpt lat="45.219" lon="6.0341">
        <ele>2014.1</ele>
        <time>2021-03-23T10:38:26Z</time>
      </trkpt>
      <trkpt lat="45.21904" lon="6.03415">
        <ele>2013.3</ele>
        <time>2021-03-23T10:38:44Z</time>
      </trkpt>
      <trkpt lat="45.21902" lon="6.0342">
        <ele>2012.6</ele>
        <time>2021-03-23T10:38:59Z</time>
      </trkpt>
      <trkpt lat="45.21905" lon="6.03418">
        <ele>2011.9</ele>
        <time>2021-03-23T10:39:12Z</time>
      </trkpt>
      <trkpt lat="45.21907" lon="6.0342">
        <ele>2010.9</ele>
        <time>2021-03-23T10:39:41Z</time>
      </trkpt>
      <trkpt lat="45.21906" lon="6.03422">
        <ele>2010.4</ele>
        <time>2021-03-23T10:39:48Z</time>
      </trkpt>
      <trkpt lat="45.21905" lon="6.03418">
        <ele>2009.5</ele>
        <time>2021-03-23T10:40:03Z</time>
      </trkpt>
      <trkpt lat="45.21911" lon="6.03418">
        <ele>2008</ele>
        <time>2021-03-23T10:40:08Z</time>
      </trkpt>
      <trkpt lat="45.21934" lon="6.03423">
        <ele>2002</ele>
        <time>2021-03-23T10:40:16Z</time>
      </trkpt>
      <trkpt lat="45.21945" lon="6.03429">
        <ele>1999.5</ele>
        <time>2021-03-23T10:40:20Z</time>
      </trkpt>
      <trkpt lat="45.21958" lon="6.0344">
        <ele>1996.9</ele>
        <time>2021-03-23T10:40:27Z</time>
      </trkpt>
      <trkpt lat="45.21955" lon="6.03441">
        <ele>1996.4</ele>
        <time>2021-03-23T10:40:30Z</time>
      </trkpt>
      <trkpt lat="45.21959" lon="6.03441">
        <ele>1995.8</ele>
        <time>2021-03-23T10:40:35Z</time>
      </trkpt>
      <trkpt lat="45.21965" lon="6.03446">
        <ele>1994.9</ele>
        <time>2021-03-23T10:40:39Z</time>
      </trkpt>
      <trkpt lat="45.21982" lon="6.03451">
        <ele>1993.4</ele>
        <time>2021-03-23T10:40:43Z</time>
      </trkpt>
      <trkpt lat="45.22029" lon="6.03456">
        <ele>1989.2</ele>
        <time>2021-03-23T10:40:53Z</time>
      </trkpt>
      <trkpt lat="45.22044" lon="6.03461">
        <ele>1987.9</ele>
        <time>2021-03-23T10:40:59Z</time>
      </trkpt>
      <trkpt lat="45.22062" lon="6.0347">
        <ele>1987.6</ele>
        <time>2021-03-23T10:41:07Z</time>
      </trkpt>
      <trkpt lat="45.22075" lon="6.03476">
        <ele>1985.6</ele>
        <time>2021-03-23T10:41:11Z</time>
      </trkpt>
      <trkpt lat="45.22084" lon="6.03479">
        <ele>1987.1</ele>
        <time>2021-03-23T10:41:15Z</time>
      </trkpt>
      <trkpt lat="45.2209" lon="6.03484">
        <ele>1985</ele>
        <time>2021-03-23T10:41:21Z</time>
      </trkpt>
      <trkpt lat="45.22092" lon="6.03483">
        <ele>1986.7</ele>
        <time>2021-03-23T10:41:23Z</time>
      </trkpt>
      <trkpt lat="45.22092" lon="6.03485">
        <ele>1985.7</ele>
        <time>2021-03-23T10:41:25Z</time>
      </trkpt>
      <trkpt lat="45.221" lon="6.03487">
        <ele>1987.1</ele>
        <time>2021-03-23T10:41:30Z</time>
      </trkpt>
      <trkpt lat="45.22104" lon="6.0349">
        <ele>1986.2</ele>
        <time>2021-03-23T10:41:34Z</time>
      </trkpt>
      <trkpt lat="45.22129" lon="6.03497">
        <ele>1991.9</ele>
        <time>2021-03-23T10:41:56Z</time>
      </trkpt>
      <trkpt lat="45.22131" lon="6.03497">
        <ele>1990</ele>
        <time>2021-03-23T10:41:57Z</time>
      </trkpt>
      <trkpt lat="45.22145" lon="6.03501">
        <ele>1993.6</ele>
        <time>2021-03-23T10:42:08Z</time>
      </trkpt>
      <trkpt lat="45.2215" lon="6.03503">
        <ele>1992.3</ele>
        <time>2021-03-23T10:42:14Z</time>
      </trkpt>
      <trkpt lat="45.22158" lon="6.03505">
        <ele>1994.1</ele>
        <time>2021-03-23T10:42:19Z</time>
      </trkpt>
      <trkpt lat="45.22161" lon="6.03506">
        <ele>1992.7</ele>
        <time>2021-03-23T10:42:21Z</time>
      </trkpt>
      <trkpt lat="45.22165" lon="6.03508">
        <ele>1993.4</ele>
        <time>2021-03-23T10:42:25Z</time>
      </trkpt>
      <trkpt lat="45.22166" lon="6.0351">
        <ele>1992</ele>
        <time>2021-03-23T10:42:27Z</time>
      </trkpt>
      <trkpt lat="45.2217" lon="6.0351">
        <ele>1992.6</ele>
        <time>2021-03-23T10:42:31Z</time>
      </trkpt>
      <trkpt lat="45.22174" lon="6.03514">
        <ele>1993.2</ele>
        <time>2021-03-23T10:42:36Z</time>
      </trkpt>
      <trkpt lat="45.22177" lon="6.03516">
        <ele>1991.7</ele>
        <time>2021-03-23T10:42:38Z</time>
      </trkpt>
      <trkpt lat="45.22183" lon="6.03518">
        <ele>1992.8</ele>
        <time>2021-03-23T10:42:42Z</time>
      </trkpt>
      <trkpt lat="45.22187" lon="6.03523">
        <ele>1989</ele>
        <time>2021-03-23T10:42:45Z</time>
      </trkpt>
      <trkpt lat="45.22193" lon="6.03527">
        <ele>1990.2</ele>
        <time>2021-03-23T10:42:50Z</time>
      </trkpt>
      <trkpt lat="45.22194" lon="6.03528">
        <ele>1987.6</ele>
        <time>2021-03-23T10:42:54Z</time>
      </trkpt>
      <trkpt lat="45.22195" lon="6.03524">
        <ele>1990.2</ele>
        <time>2021-03-23T10:42:59Z</time>
      </trkpt>
      <trkpt lat="45.22197" lon="6.03527">
        <ele>1990.8</ele>
        <time>2021-03-23T10:43:01Z</time>
      </trkpt>
      <trkpt lat="45.22201" lon="6.03531">
        <ele>1986</ele>
        <time>2021-03-23T10:43:06Z</time>
      </trkpt>
      <trkpt lat="45.22205" lon="6.03534">
        <ele>1986.7</ele>
        <time>2021-03-23T10:43:13Z</time>
      </trkpt>
      <trkpt lat="45.22209" lon="6.03535">
        <ele>1987.1</ele>
        <time>2021-03-23T10:43:23Z</time>
      </trkpt>
      <trkpt lat="45.22211" lon="6.03536">
        <ele>1984.7</ele>
        <time>2021-03-23T10:43:25Z</time>
      </trkpt>
      <trkpt lat="45.22215" lon="6.03536">
        <ele>1987.7</ele>
        <time>2021-03-23T10:43:28Z</time>
      </trkpt>
      <trkpt lat="45.2222" lon="6.03536">
        <ele>1985.8</ele>
        <time>2021-03-23T10:43:31Z</time>
      </trkpt>
      <trkpt lat="45.22224" lon="6.03538">
        <ele>1986.2</ele>
        <time>2021-03-23T10:43:35Z</time>
      </trkpt>
      <trkpt lat="45.22226" lon="6.0354">
        <ele>1986.6</ele>
        <time>2021-03-23T10:43:41Z</time>
      </trkpt>
      <trkpt lat="45.22227" lon="6.03541">
        <ele>1983.9</ele>
        <time>2021-03-23T10:43:43Z</time>
      </trkpt>
      <trkpt lat="45.2223" lon="6.03543">
        <ele>1984.2</ele>
        <time>2021-03-23T10:43:48Z</time>
      </trkpt>
      <trkpt lat="45.22231" lon="6.03544">
        <ele>1981.6</ele>
        <time>2021-03-23T10:43:50Z</time>
      </trkpt>
      <trkpt lat="45.22238" lon="6.03548">
        <ele>1982.6</ele>
        <time>2021-03-23T10:43:58Z</time>
      </trkpt>
      <trkpt lat="45.22239" lon="6.03549">
        <ele>1980</ele>
        <time>2021-03-23T10:43:59Z</time>
      </trkpt>
      <trkpt lat="45.22245" lon="6.03552">
        <ele>1980.8</ele>
        <time>2021-03-23T10:44:06Z</time>
      </trkpt>
      <trkpt lat="45.22248" lon="6.03553">
        <ele>1978.6</ele>
        <time>2021-03-23T10:44:09Z</time>
      </trkpt>
      <trkpt lat="45.22262" lon="6.03557">
        <ele>1981.5</ele>
        <time>2021-03-23T10:44:22Z</time>
      </trkpt>
      <trkpt lat="45.22263" lon="6.03558">
        <ele>1978.8</ele>
        <time>2021-03-23T10:44:23Z</time>
      </trkpt>
      <trkpt lat="45.22267" lon="6.03561">
        <ele>1979.5</ele>
        <time>2021-03-23T10:44:28Z</time>
      </trkpt>
      <trkpt lat="45.22268" lon="6.03562">
        <ele>1977.4</ele>
        <time>2021-03-23T10:44:29Z</time>
      </trkpt>
      <trkpt lat="45.2228" lon="6.03564">
        <ele>1980.7</ele>
        <time>2021-03-23T10:44:41Z</time>
      </trkpt>
      <trkpt lat="45.22284" lon="6.03566">
        <ele>1978.8</ele>
        <time>2021-03-23T10:44:45Z</time>
      </trkpt>
      <trkpt lat="45.22293" lon="6.03569">
        <ele>1980.7</ele>
        <time>2021-03-23T10:44:53Z</time>
      </trkpt>
      <trkpt lat="45.22295" lon="6.0357">
        <ele>1978.5</ele>
        <time>2021-03-23T10:44:55Z</time>
      </trkpt>
      <trkpt lat="45.22298" lon="6.03572">
        <ele>1978.5</ele>
        <time>2021-03-23T10:44:58Z</time>
      </trkpt>
      <trkpt lat="45.22304" lon="6.03574">
        <ele>1980.6</ele>
        <time>2021-03-23T10:45:05Z</time>
      </trkpt>
      <trkpt lat="45.22305" lon="6.03575">
        <ele>1977.8</ele>
        <time>2021-03-23T10:45:07Z</time>
      </trkpt>
      <trkpt lat="45.22307" lon="6.03576">
        <ele>1977.8</ele>
        <time>2021-03-23T10:45:09Z</time>
      </trkpt>
      <trkpt lat="45.22315" lon="6.03578">
        <ele>1979.8</ele>
        <time>2021-03-23T10:45:18Z</time>
      </trkpt>
      <trkpt lat="45.22316" lon="6.03579">
        <ele>1977.2</ele>
        <time>2021-03-23T10:45:19Z</time>
      </trkpt>
      <trkpt lat="45.22323" lon="6.03582">
        <ele>1979.5</ele>
        <time>2021-03-23T10:45:32Z</time>
      </trkpt>
      <trkpt lat="45.22327" lon="6.03584">
        <ele>1978.1</ele>
        <time>2021-03-23T10:45:37Z</time>
      </trkpt>
      <trkpt lat="45.22333" lon="6.03587">
        <ele>1980.3</ele>
        <time>2021-03-23T10:45:52Z</time>
      </trkpt>
      <trkpt lat="45.22334" lon="6.03588">
        <ele>1978</ele>
        <time>2021-03-23T10:45:55Z</time>
      </trkpt>
      <trkpt lat="45.22341" lon="6.03591">
        <ele>1981.6</ele>
        <time>2021-03-23T10:46:01Z</time>
      </trkpt>
      <trkpt lat="45.22343" lon="6.03592">
        <ele>1979.3</ele>
        <time>2021-03-23T10:46:04Z</time>
      </trkpt>
      <trkpt lat="45.22359" lon="6.03595">
        <ele>1986.4</ele>
        <time>2021-03-23T10:46:19Z</time>
      </trkpt>
      <trkpt lat="45.2236" lon="6.03595">
        <ele>1986.4</ele>
        <time>2021-03-23T10:46:20Z</time>
      </trkpt>
      <trkpt lat="45.22361" lon="6.03596">
        <ele>1984.1</ele>
        <time>2021-03-23T10:46:21Z</time>
      </trkpt>
      <trkpt lat="45.22368" lon="6.036">
        <ele>1988.5</ele>
        <time>2021-03-23T10:46:37Z</time>
      </trkpt>
      <trkpt lat="45.22369" lon="6.036">
        <ele>1986.1</ele>
        <time>2021-03-23T10:46:38Z</time>
      </trkpt>
      <trkpt lat="45.22371" lon="6.03602">
        <ele>1987.5</ele>
        <time>2021-03-23T10:46:40Z</time>
      </trkpt>
      <trkpt lat="45.22376" lon="6.03606">
        <ele>1986.3</ele>
        <time>2021-03-23T10:46:46Z</time>
      </trkpt>
      <trkpt lat="45.22383" lon="6.03609">
        <ele>1990.6</ele>
        <time>2021-03-23T10:46:52Z</time>
      </trkpt>
      <trkpt lat="45.22384" lon="6.03609">
        <ele>1988.1</ele>
        <time>2021-03-23T10:46:53Z</time>
      </trkpt>
      <trkpt lat="45.22386" lon="6.03609">
        <ele>1988.1</ele>
        <time>2021-03-23T10:46:56Z</time>
      </trkpt>
      <trkpt lat="45.22386" lon="6.03609">
        <ele>1989.8</ele>
        <time>2021-03-23T10:46:58Z</time>
      </trkpt>
      <trkpt lat="45.22388" lon="6.0361">
        <ele>1989.8</ele>
        <time>2021-03-23T10:47:03Z</time>
      </trkpt>
      <trkpt lat="45.22389" lon="6.0361">
        <ele>1991.6</ele>
        <time>2021-03-23T10:47:05Z</time>
      </trkpt>
      <trkpt lat="45.22396" lon="6.03618">
        <ele>1989.7</ele>
        <time>2021-03-23T10:47:19Z</time>
      </trkpt>
      <trkpt lat="45.22398" lon="6.03621">
        <ele>1991.2</ele>
        <time>2021-03-23T10:47:23Z</time>
      </trkpt>
      <trkpt lat="45.22399" lon="6.03622">
        <ele>1988.9</ele>
        <time>2021-03-23T10:47:24Z</time>
      </trkpt>
      <trkpt lat="45.22403" lon="6.03625">
        <ele>1990.1</ele>
        <time>2021-03-23T10:47:30Z</time>
      </trkpt>
      <trkpt lat="45.22404" lon="6.03627">
        <ele>1987.8</ele>
        <time>2021-03-23T10:47:33Z</time>
      </trkpt>
      <trkpt lat="45.22404" lon="6.03628">
        <ele>1989.4</ele>
        <time>2021-03-23T10:47:35Z</time>
      </trkpt>
      <trkpt lat="45.22405" lon="6.0363">
        <ele>1989.2</ele>
        <time>2021-03-23T10:47:39Z</time>
      </trkpt>
      <trkpt lat="45.22405" lon="6.03631">
        <ele>1987</ele>
        <time>2021-03-23T10:47:40Z</time>
      </trkpt>
      <trkpt lat="45.22407" lon="6.03633">
        <ele>1988.6</ele>
        <time>2021-03-23T10:47:44Z</time>
      </trkpt>
      <trkpt lat="45.2241" lon="6.03635">
        <ele>1986.3</ele>
        <time>2021-03-23T10:47:48Z</time>
      </trkpt>
      <trkpt lat="45.22413" lon="6.03636">
        <ele>1990.1</ele>
        <time>2021-03-23T10:47:53Z</time>
      </trkpt>
      <trkpt lat="45.22417" lon="6.0364">
        <ele>1989.8</ele>
        <time>2021-03-23T10:47:59Z</time>
      </trkpt>
      <trkpt lat="45.2242" lon="6.03643">
        <ele>1991.6</ele>
        <time>2021-03-23T10:48:02Z</time>
      </trkpt>
      <trkpt lat="45.22423" lon="6.03647">
        <ele>1989</ele>
        <time>2021-03-23T10:48:06Z</time>
      </trkpt>
      <trkpt lat="45.22427" lon="6.03651">
        <ele>1990.6</ele>
        <time>2021-03-23T10:48:12Z</time>
      </trkpt>
      <trkpt lat="45.22428" lon="6.03652">
        <ele>1988.2</ele>
        <time>2021-03-23T10:48:13Z</time>
      </trkpt>
      <trkpt lat="45.22428" lon="6.03653">
        <ele>1990</ele>
        <time>2021-03-23T10:48:14Z</time>
      </trkpt>
      <trkpt lat="45.22429" lon="6.03655">
        <ele>1989.8</ele>
        <time>2021-03-23T10:48:17Z</time>
      </trkpt>
      <trkpt lat="45.22428" lon="6.03656">
        <ele>1987.3</ele>
        <time>2021-03-23T10:48:21Z</time>
      </trkpt>
      <trkpt lat="45.22429" lon="6.03659">
        <ele>1986.7</ele>
        <time>2021-03-23T10:48:35Z</time>
      </trkpt>
      <trkpt lat="45.22432" lon="6.0366">
        <ele>1988</ele>
        <time>2021-03-23T10:48:43Z</time>
      </trkpt>
      <trkpt lat="45.22432" lon="6.0366">
        <ele>1985.5</ele>
        <time>2021-03-23T10:48:44Z</time>
      </trkpt>
      <trkpt lat="45.22434" lon="6.03663">
        <ele>1985.3</ele>
        <time>2021-03-23T10:48:46Z</time>
      </trkpt>
      <trkpt lat="45.22434" lon="6.03663">
        <ele>1987.1</ele>
        <time>2021-03-23T10:48:47Z</time>
      </trkpt>
      <trkpt lat="45.22436" lon="6.03665">
        <ele>1984.5</ele>
        <time>2021-03-23T10:48:48Z</time>
      </trkpt>
      <trkpt lat="45.22438" lon="6.03667">
        <ele>1986.2</ele>
        <time>2021-03-23T10:48:51Z</time>
      </trkpt>
      <trkpt lat="45.22446" lon="6.03676">
        <ele>1985</ele>
        <time>2021-03-23T10:49:02Z</time>
      </trkpt>
      <trkpt lat="45.22447" lon="6.03677">
        <ele>1987</ele>
        <time>2021-03-23T10:49:03Z</time>
      </trkpt>
      <trkpt lat="45.22448" lon="6.03678">
        <ele>1984.6</ele>
        <time>2021-03-23T10:49:09Z</time>
      </trkpt>
      <trkpt lat="45.22449" lon="6.03679">
        <ele>1986.6</ele>
        <time>2021-03-23T10:49:11Z</time>
      </trkpt>
      <trkpt lat="45.22451" lon="6.03681">
        <ele>1986.5</ele>
        <time>2021-03-23T10:49:14Z</time>
      </trkpt>
      <trkpt lat="45.22451" lon="6.03682">
        <ele>1984.4</ele>
        <time>2021-03-23T10:49:15Z</time>
      </trkpt>
      <trkpt lat="45.22453" lon="6.03684">
        <ele>1986.4</ele>
        <time>2021-03-23T10:49:20Z</time>
      </trkpt>
      <trkpt lat="45.22454" lon="6.03687">
        <ele>1984.2</ele>
        <time>2021-03-23T10:49:24Z</time>
      </trkpt>
      <trkpt lat="45.22456" lon="6.03689">
        <ele>1986.1</ele>
        <time>2021-03-23T10:49:26Z</time>
      </trkpt>
      <trkpt lat="45.22465" lon="6.03699">
        <ele>1985.2</ele>
        <time>2021-03-23T10:49:39Z</time>
      </trkpt>
      <trkpt lat="45.22476" lon="6.03715">
        <ele>1985.7</ele>
        <time>2021-03-23T10:49:58Z</time>
      </trkpt>
      <trkpt lat="45.22477" lon="6.03716">
        <ele>1988.2</ele>
        <time>2021-03-23T10:49:59Z</time>
      </trkpt>
      <trkpt lat="45.22477" lon="6.03716">
        <ele>1986.2</ele>
        <time>2021-03-23T10:50:00Z</time>
      </trkpt>
      <trkpt lat="45.22482" lon="6.03723">
        <ele>1986.5</ele>
        <time>2021-03-23T10:50:21Z</time>
      </trkpt>
      <trkpt lat="45.22488" lon="6.03727">
        <ele>1988.9</ele>
        <time>2021-03-23T10:50:29Z</time>
      </trkpt>
      <trkpt lat="45.22489" lon="6.03727">
        <ele>1991</ele>
        <time>2021-03-23T10:50:31Z</time>
      </trkpt>
      <trkpt lat="45.22491" lon="6.03727">
        <ele>1991</ele>
        <time>2021-03-23T10:50:35Z</time>
      </trkpt>
      <trkpt lat="45.22491" lon="6.03728">
        <ele>1993.2</ele>
        <time>2021-03-23T10:50:36Z</time>
      </trkpt>
      <trkpt lat="45.22494" lon="6.0373">
        <ele>1991.5</ele>
        <time>2021-03-23T10:50:41Z</time>
      </trkpt>
      <trkpt lat="45.22495" lon="6.03731">
        <ele>1993.9</ele>
        <time>2021-03-23T10:50:42Z</time>
      </trkpt>
      <trkpt lat="45.225" lon="6.03734">
        <ele>1994.7</ele>
        <time>2021-03-23T10:50:50Z</time>
      </trkpt>
      <trkpt lat="45.22502" lon="6.03736">
        <ele>1997.1</ele>
        <time>2021-03-23T10:50:52Z</time>
      </trkpt>
      <trkpt lat="45.22506" lon="6.03739">
        <ele>1997.8</ele>
        <time>2021-03-23T10:50:58Z</time>
      </trkpt>
      <trkpt lat="45.22508" lon="6.03741">
        <ele>1999.9</ele>
        <time>2021-03-23T10:51:00Z</time>
      </trkpt>
      <trkpt lat="45.22509" lon="6.03742">
        <ele>1998.2</ele>
        <time>2021-03-23T10:51:02Z</time>
      </trkpt>
      <trkpt lat="45.2251" lon="6.03743">
        <ele>2000.3</ele>
        <time>2021-03-23T10:51:04Z</time>
      </trkpt>
      <trkpt lat="45.22515" lon="6.03749">
        <ele>2000.5</ele>
        <time>2021-03-23T10:51:15Z</time>
      </trkpt>
      <trkpt lat="45.22516" lon="6.0375">
        <ele>2002.5</ele>
        <time>2021-03-23T10:51:16Z</time>
      </trkpt>
      <trkpt lat="45.22518" lon="6.03752">
        <ele>2000.6</ele>
        <time>2021-03-23T10:51:19Z</time>
      </trkpt>
      <trkpt lat="45.22523" lon="6.03754">
        <ele>2004.8</ele>
        <time>2021-03-23T10:51:23Z</time>
      </trkpt>
      <trkpt lat="45.22524" lon="6.03754">
        <ele>2004.8</ele>
        <time>2021-03-23T10:51:25Z</time>
      </trkpt>
      <trkpt lat="45.22524" lon="6.03755">
        <ele>2002.9</ele>
        <time>2021-03-23T10:51:26Z</time>
      </trkpt>
      <trkpt lat="45.22528" lon="6.03758">
        <ele>2007.1</ele>
        <time>2021-03-23T10:51:30Z</time>
      </trkpt>
      <trkpt lat="45.22529" lon="6.0376">
        <ele>2005.2</ele>
        <time>2021-03-23T10:51:31Z</time>
      </trkpt>
      <trkpt lat="45.22535" lon="6.03763">
        <ele>2009.2</ele>
        <time>2021-03-23T10:51:36Z</time>
      </trkpt>
      <trkpt lat="45.22536" lon="6.03765">
        <ele>2007.5</ele>
        <time>2021-03-23T10:51:38Z</time>
      </trkpt>
      <trkpt lat="45.22539" lon="6.03769">
        <ele>2007.7</ele>
        <time>2021-03-23T10:51:41Z</time>
      </trkpt>
      <trkpt lat="45.2254" lon="6.0377">
        <ele>2009.5</ele>
        <time>2021-03-23T10:51:42Z</time>
      </trkpt>
      <trkpt lat="45.22542" lon="6.03772">
        <ele>2007.9</ele>
        <time>2021-03-23T10:51:44Z</time>
      </trkpt>
      <trkpt lat="45.22543" lon="6.03773">
        <ele>2009.6</ele>
        <time>2021-03-23T10:51:45Z</time>
      </trkpt>
      <trkpt lat="45.22548" lon="6.03778">
        <ele>2009.8</ele>
        <time>2021-03-23T10:51:56Z</time>
      </trkpt>
      <trkpt lat="45.2255" lon="6.03779">
        <ele>2011.6</ele>
        <time>2021-03-23T10:51:58Z</time>
      </trkpt>
      <trkpt lat="45.22552" lon="6.03781">
        <ele>2010.1</ele>
        <time>2021-03-23T10:52:00Z</time>
      </trkpt>
      <trkpt lat="45.22553" lon="6.03782">
        <ele>2012</ele>
        <time>2021-03-23T10:52:01Z</time>
      </trkpt>
      <trkpt lat="45.22558" lon="6.03787">
        <ele>2012.5</ele>
        <time>2021-03-23T10:52:07Z</time>
      </trkpt>
      <trkpt lat="45.22558" lon="6.03788">
        <ele>2014.6</ele>
        <time>2021-03-23T10:52:08Z</time>
      </trkpt>
      <trkpt lat="45.2256" lon="6.0379">
        <ele>2013</ele>
        <time>2021-03-23T10:52:10Z</time>
      </trkpt>
      <trkpt lat="45.22561" lon="6.03792">
        <ele>2015</ele>
        <time>2021-03-23T10:52:12Z</time>
      </trkpt>
      <trkpt lat="45.22563" lon="6.03795">
        <ele>2013.4</ele>
        <time>2021-03-23T10:52:14Z</time>
      </trkpt>
      <trkpt lat="45.22565" lon="6.03796">
        <ele>2015.2</ele>
        <time>2021-03-23T10:52:15Z</time>
      </trkpt>
      <trkpt lat="45.22569" lon="6.03799">
        <ele>2015.2</ele>
        <time>2021-03-23T10:52:20Z</time>
      </trkpt>
      <trkpt lat="45.22573" lon="6.03801">
        <ele>2018.4</ele>
        <time>2021-03-23T10:52:34Z</time>
      </trkpt>
      <trkpt lat="45.22574" lon="6.03802">
        <ele>2016.8</ele>
        <time>2021-03-23T10:52:36Z</time>
      </trkpt>
      <trkpt lat="45.22576" lon="6.03804">
        <ele>2016.8</ele>
        <time>2021-03-23T10:52:40Z</time>
      </trkpt>
      <trkpt lat="45.22577" lon="6.03805">
        <ele>2018.5</ele>
        <time>2021-03-23T10:52:42Z</time>
      </trkpt>
      <trkpt lat="45.22578" lon="6.03806">
        <ele>2017</ele>
        <time>2021-03-23T10:52:44Z</time>
      </trkpt>
      <trkpt lat="45.22579" lon="6.03809">
        <ele>2019</ele>
        <time>2021-03-23T10:52:46Z</time>
      </trkpt>
      <trkpt lat="45.2258" lon="6.03811">
        <ele>2017.5</ele>
        <time>2021-03-23T10:52:48Z</time>
      </trkpt>
      <trkpt lat="45.22584" lon="6.03819">
        <ele>2018.2</ele>
        <time>2021-03-23T10:52:54Z</time>
      </trkpt>
      <trkpt lat="45.22585" lon="6.0382">
        <ele>2017</ele>
        <time>2021-03-23T10:52:56Z</time>
      </trkpt>
      <trkpt lat="45.22586" lon="6.03822">
        <ele>2019</ele>
        <time>2021-03-23T10:52:58Z</time>
      </trkpt>
      <trkpt lat="45.22588" lon="6.03827">
        <ele>2017.8</ele>
        <time>2021-03-23T10:53:05Z</time>
      </trkpt>
      <trkpt lat="45.22589" lon="6.03827">
        <ele>2019.6</ele>
        <time>2021-03-23T10:53:08Z</time>
      </trkpt>
      <trkpt lat="45.22591" lon="6.03833">
        <ele>2017.2</ele>
        <time>2021-03-23T10:53:15Z</time>
      </trkpt>
      <trkpt lat="45.22591" lon="6.03835">
        <ele>2018.9</ele>
        <time>2021-03-23T10:53:17Z</time>
      </trkpt>
      <trkpt lat="45.22592" lon="6.03836">
        <ele>2017.7</ele>
        <time>2021-03-23T10:53:18Z</time>
      </trkpt>
      <trkpt lat="45.22598" lon="6.03846">
        <ele>2018.6</ele>
        <time>2021-03-23T10:53:25Z</time>
      </trkpt>
      <trkpt lat="45.226" lon="6.03853">
        <ele>2016.9</ele>
        <time>2021-03-23T10:53:32Z</time>
      </trkpt>
      <trkpt lat="45.22601" lon="6.03854">
        <ele>2018.5</ele>
        <time>2021-03-23T10:53:37Z</time>
      </trkpt>
      <trkpt lat="45.22612" lon="6.03865">
        <ele>2022.4</ele>
        <time>2021-03-23T10:53:55Z</time>
      </trkpt>
      <trkpt lat="45.22613" lon="6.03866">
        <ele>2024.2</ele>
        <time>2021-03-23T10:53:56Z</time>
      </trkpt>
      <trkpt lat="45.22615" lon="6.03868">
        <ele>2023.5</ele>
        <time>2021-03-23T10:53:59Z</time>
      </trkpt>
      <trkpt lat="45.22615" lon="6.03871">
        <ele>2023</ele>
        <time>2021-03-23T10:54:08Z</time>
      </trkpt>
      <trkpt lat="45.22616" lon="6.03872">
        <ele>2024.6</ele>
        <time>2021-03-23T10:54:10Z</time>
      </trkpt>
      <trkpt lat="45.22618" lon="6.03876">
        <ele>2024.1</ele>
        <time>2021-03-23T10:54:14Z</time>
      </trkpt>
      <trkpt lat="45.22619" lon="6.03879">
        <ele>2025.7</ele>
        <time>2021-03-23T10:54:16Z</time>
      </trkpt>
      <trkpt lat="45.2262" lon="6.03884">
        <ele>2024.4</ele>
        <time>2021-03-23T10:54:20Z</time>
      </trkpt>
      <trkpt lat="45.22627" lon="6.03903">
        <ele>2025</ele>
        <time>2021-03-23T10:54:36Z</time>
      </trkpt>
      <trkpt lat="45.22628" lon="6.03904">
        <ele>2026.4</ele>
        <time>2021-03-23T10:54:37Z</time>
      </trkpt>
      <trkpt lat="45.2263" lon="6.03917">
        <ele>2024.9</ele>
        <time>2021-03-23T10:54:50Z</time>
      </trkpt>
      <trkpt lat="45.22636" lon="6.03924">
        <ele>2026.5</ele>
        <time>2021-03-23T10:55:02Z</time>
      </trkpt>
      <trkpt lat="45.22637" lon="6.03924">
        <ele>2027.9</ele>
        <time>2021-03-23T10:55:03Z</time>
      </trkpt>
      <trkpt lat="45.2264" lon="6.03925">
        <ele>2027.9</ele>
        <time>2021-03-23T10:55:08Z</time>
      </trkpt>
      <trkpt lat="45.2264" lon="6.03925">
        <ele>2029.5</ele>
        <time>2021-03-23T10:55:09Z</time>
      </trkpt>
      <trkpt lat="45.22639" lon="6.03926">
        <ele>2027.3</ele>
        <time>2021-03-23T10:55:13Z</time>
      </trkpt>
      <trkpt lat="45.22643" lon="6.03927">
        <ele>2030.4</ele>
        <time>2021-03-23T10:55:20Z</time>
      </trkpt>
      <trkpt lat="45.22652" lon="6.03936">
        <ele>2033.3</ele>
        <time>2021-03-23T10:55:34Z</time>
      </trkpt>
      <trkpt lat="45.22655" lon="6.0394">
        <ele>2032.7</ele>
        <time>2021-03-23T10:55:44Z</time>
      </trkpt>
      <trkpt lat="45.22658" lon="6.03943">
        <ele>2035.2</ele>
        <time>2021-03-23T10:55:52Z</time>
      </trkpt>
      <trkpt lat="45.22663" lon="6.0395">
        <ele>2035.5</ele>
        <time>2021-03-23T10:56:03Z</time>
      </trkpt>
      <trkpt lat="45.22664" lon="6.03951">
        <ele>2037.1</ele>
        <time>2021-03-23T10:56:09Z</time>
      </trkpt>
      <trkpt lat="45.22667" lon="6.03955">
        <ele>2036.6</ele>
        <time>2021-03-23T10:56:19Z</time>
      </trkpt>
      <trkpt lat="45.22668" lon="6.03956">
        <ele>2038.3</ele>
        <time>2021-03-23T10:56:21Z</time>
      </trkpt>
      <trkpt lat="45.22672" lon="6.0396">
        <ele>2039.5</ele>
        <time>2021-03-23T10:56:30Z</time>
      </trkpt>
      <trkpt lat="45.22672" lon="6.03962">
        <ele>2039.1</ele>
        <time>2021-03-23T10:56:35Z</time>
      </trkpt>
      <trkpt lat="45.22681" lon="6.03969">
        <ele>2042.8</ele>
        <time>2021-03-23T10:56:56Z</time>
      </trkpt>
      <trkpt lat="45.22682" lon="6.03974">
        <ele>2043.2</ele>
        <time>2021-03-23T10:57:34Z</time>
      </trkpt>
      <trkpt lat="45.22679" lon="6.0397">
        <ele>2042.4</ele>
        <time>2021-03-23T10:57:53Z</time>
      </trkpt>
      <trkpt lat="45.22679" lon="6.03969">
        <ele>2041.1</ele>
        <time>2021-03-23T10:57:56Z</time>
      </trkpt>
      <trkpt lat="45.22674" lon="6.03967">
        <ele>2040.2</ele>
        <time>2021-03-23T10:58:17Z</time>
      </trkpt>
      <trkpt lat="45.22673" lon="6.03965">
        <ele>2040.2</ele>
        <time>2021-03-23T10:58:36Z</time>
      </trkpt>
      <trkpt lat="45.22674" lon="6.03964">
        <ele>2040.6</ele>
        <time>2021-03-23T10:58:41Z</time>
      </trkpt>
      <trkpt lat="45.22671" lon="6.03961">
        <ele>2039.1</ele>
        <time>2021-03-23T10:59:15Z</time>
      </trkpt>
      <trkpt lat="45.22671" lon="6.03958">
        <ele>2039.5</ele>
        <time>2021-03-23T10:59:48Z</time>
      </trkpt>
      <trkpt lat="45.22671" lon="6.0396">
        <ele>2039.5</ele>
        <time>2021-03-23T10:59:56Z</time>
      </trkpt>
      <trkpt lat="45.22673" lon="6.03961">
        <ele>2039.1</ele>
        <time>2021-03-23T11:00:05Z</time>
      </trkpt>
      <trkpt lat="45.22673" lon="6.03962">
        <ele>2040.6</ele>
        <time>2021-03-23T11:00:07Z</time>
      </trkpt>
      <trkpt lat="45.22676" lon="6.03964">
        <ele>2040.6</ele>
        <time>2021-03-23T11:00:19Z</time>
      </trkpt>
      <trkpt lat="45.22677" lon="6.03964">
        <ele>2042</ele>
        <time>2021-03-23T11:00:27Z</time>
      </trkpt>
      <trkpt lat="45.22679" lon="6.03967">
        <ele>2041.5</ele>
        <time>2021-03-23T11:01:12Z</time>
      </trkpt>
      <trkpt lat="45.2268" lon="6.03968">
        <ele>2042.8</ele>
        <time>2021-03-23T11:01:19Z</time>
      </trkpt>
      <trkpt lat="45.22685" lon="6.0397">
        <ele>2044.9</ele>
        <time>2021-03-23T11:01:32Z</time>
      </trkpt>
      <trkpt lat="45.22685" lon="6.03969">
        <ele>2043.6</ele>
        <time>2021-03-23T11:01:34Z</time>
      </trkpt>
      <trkpt lat="45.22686" lon="6.03972">
        <ele>2044.9</ele>
        <time>2021-03-23T11:01:43Z</time>
      </trkpt>
      <trkpt lat="45.22686" lon="6.0398">
        <ele>2044</ele>
        <time>2021-03-23T11:01:52Z</time>
      </trkpt>
      <trkpt lat="45.22692" lon="6.03979">
        <ele>2046.9</ele>
        <time>2021-03-23T11:02:03Z</time>
      </trkpt>
      <trkpt lat="45.22696" lon="6.03968">
        <ele>2050</ele>
        <time>2021-03-23T11:02:17Z</time>
      </trkpt>
      <trkpt lat="45.22698" lon="6.03973">
        <ele>2051</ele>
        <time>2021-03-23T11:02:24Z</time>
      </trkpt>
      <trkpt lat="45.22699" lon="6.03974">
        <ele>2050.4</ele>
        <time>2021-03-23T11:02:27Z</time>
      </trkpt>
      <trkpt lat="45.22698" lon="6.03981">
        <ele>2049.9</ele>
        <time>2021-03-23T11:02:34Z</time>
      </trkpt>
      <trkpt lat="45.22697" lon="6.03983">
        <ele>2047.9</ele>
        <time>2021-03-23T11:02:37Z</time>
      </trkpt>
      <trkpt lat="45.22697" lon="6.03984">
        <ele>2049.4</ele>
        <time>2021-03-23T11:02:38Z</time>
      </trkpt>
      <trkpt lat="45.22697" lon="6.03985">
        <ele>2047.9</ele>
        <time>2021-03-23T11:02:40Z</time>
      </trkpt>
      <trkpt lat="45.22698" lon="6.0399">
        <ele>2048.9</ele>
        <time>2021-03-23T11:02:48Z</time>
      </trkpt>
      <trkpt lat="45.22696" lon="6.03991">
        <ele>2047.1</ele>
        <time>2021-03-23T11:02:56Z</time>
      </trkpt>
      <trkpt lat="45.22698" lon="6.03991">
        <ele>2048.5</ele>
        <time>2021-03-23T11:03:01Z</time>
      </trkpt>
      <trkpt lat="45.22697" lon="6.03991">
        <ele>2047.1</ele>
        <time>2021-03-23T11:03:04Z</time>
      </trkpt>
      <trkpt lat="45.22697" lon="6.03993">
        <ele>2048.5</ele>
        <time>2021-03-23T11:03:16Z</time>
      </trkpt>
      <trkpt lat="45.22711" lon="6.03986">
        <ele>2055.1</ele>
        <time>2021-03-23T11:03:37Z</time>
      </trkpt>
      <trkpt lat="45.22719" lon="6.03986">
        <ele>2060.2</ele>
        <time>2021-03-23T11:03:47Z</time>
      </trkpt>
      <trkpt lat="45.2272" lon="6.03991">
        <ele>2059.7</ele>
        <time>2021-03-23T11:03:56Z</time>
      </trkpt>
      <trkpt lat="45.22716" lon="6.03999">
        <ele>2056.6</ele>
        <time>2021-03-23T11:04:07Z</time>
      </trkpt>
      <trkpt lat="45.22718" lon="6.04003">
        <ele>2056.6</ele>
        <time>2021-03-23T11:04:38Z</time>
      </trkpt>
      <trkpt lat="45.22719" lon="6.04003">
        <ele>2058.4</ele>
        <time>2021-03-23T11:04:40Z</time>
      </trkpt>
      <trkpt lat="45.22721" lon="6.04002">
        <ele>2058.4</ele>
        <time>2021-03-23T11:04:44Z</time>
      </trkpt>
      <trkpt lat="45.22722" lon="6.04002">
        <ele>2060.2</ele>
        <time>2021-03-23T11:04:46Z</time>
      </trkpt>
      <trkpt lat="45.22727" lon="6.03999">
        <ele>2062.5</ele>
        <time>2021-03-23T11:04:56Z</time>
      </trkpt>
      <trkpt lat="45.22732" lon="6.03999">
        <ele>2066</ele>
        <time>2021-03-23T11:05:04Z</time>
      </trkpt>
      <trkpt lat="45.22744" lon="6.0401">
        <ele>2072.5</ele>
        <time>2021-03-23T11:05:37Z</time>
      </trkpt>
      <trkpt lat="45.22751" lon="6.04012">
        <ele>2076.2</ele>
        <time>2021-03-23T11:05:43Z</time>
      </trkpt>
      <trkpt lat="45.22752" lon="6.04013">
        <ele>2078.2</ele>
        <time>2021-03-23T11:05:44Z</time>
      </trkpt>
      <trkpt lat="45.22754" lon="6.04014">
        <ele>2078.2</ele>
        <time>2021-03-23T11:05:48Z</time>
      </trkpt>
      <trkpt lat="45.22754" lon="6.04014">
        <ele>2080.2</ele>
        <time>2021-03-23T11:05:49Z</time>
      </trkpt>
      <trkpt lat="45.22757" lon="6.04016">
        <ele>2080.2</ele>
        <time>2021-03-23T11:05:54Z</time>
      </trkpt>
      <trkpt lat="45.22763" lon="6.04018">
        <ele>2084</ele>
        <time>2021-03-23T11:06:03Z</time>
      </trkpt>
      <trkpt lat="45.22767" lon="6.04021">
        <ele>2085.5</ele>
        <time>2021-03-23T11:06:09Z</time>
      </trkpt>
      <trkpt lat="45.2278" lon="6.04027">
        <ele>2090</ele>
        <time>2021-03-23T11:06:30Z</time>
      </trkpt>
      <trkpt lat="45.22787" lon="6.04028">
        <ele>2092</ele>
        <time>2021-03-23T11:06:37Z</time>
      </trkpt>
      <trkpt lat="45.22793" lon="6.04032">
        <ele>2093.6</ele>
        <time>2021-03-23T11:06:44Z</time>
      </trkpt>
      <trkpt lat="45.22794" lon="6.04035">
        <ele>2094.3</ele>
        <time>2021-03-23T11:06:51Z</time>
      </trkpt>
      <trkpt lat="45.22803" lon="6.04038">
        <ele>2096.2</ele>
        <time>2021-03-23T11:07:04Z</time>
      </trkpt>
      <trkpt lat="45.22813" lon="6.04047">
        <ele>2098.8</ele>
        <time>2021-03-23T11:07:17Z</time>
      </trkpt>
      <trkpt lat="45.22821" lon="6.04065">
        <ele>2102.3</ele>
        <time>2021-03-23T11:07:41Z</time>
      </trkpt>
      <trkpt lat="45.22826" lon="6.04071">
        <ele>2103.8</ele>
        <time>2021-03-23T11:07:50Z</time>
      </trkpt>
      <trkpt lat="45.22833" lon="6.04083">
        <ele>2106.4</ele>
        <time>2021-03-23T11:08:07Z</time>
      </trkpt>
      <trkpt lat="45.22834" lon="6.04087">
        <ele>2107</ele>
        <time>2021-03-23T11:08:12Z</time>
      </trkpt>
      <trkpt lat="45.22837" lon="6.0409">
        <ele>2107.8</ele>
        <time>2021-03-23T11:08:18Z</time>
      </trkpt>
      <trkpt lat="45.22842" lon="6.04098">
        <ele>2109.3</ele>
        <time>2021-03-23T11:08:29Z</time>
      </trkpt>
      <trkpt lat="45.22863" lon="6.04116">
        <ele>2116.6</ele>
        <time>2021-03-23T11:09:09Z</time>
      </trkpt>
      <trkpt lat="45.22866" lon="6.04125">
        <ele>2118.8</ele>
        <time>2021-03-23T11:09:23Z</time>
      </trkpt>
      <trkpt lat="45.22882" lon="6.04136">
        <ele>2124</ele>
        <time>2021-03-23T11:09:47Z</time>
      </trkpt>
      <trkpt lat="45.2288" lon="6.04137">
        <ele>2124.7</ele>
        <time>2021-03-23T11:09:58Z</time>
      </trkpt>
      <trkpt lat="45.22896" lon="6.04144">
        <ele>2129.5</ele>
        <time>2021-03-23T11:10:23Z</time>
      </trkpt>
      <trkpt lat="45.22897" lon="6.04148">
        <ele>2130.4</ele>
        <time>2021-03-23T11:10:32Z</time>
      </trkpt>
      <trkpt lat="45.229" lon="6.0415">
        <ele>2131.2</ele>
        <time>2021-03-23T11:10:36Z</time>
      </trkpt>
      <trkpt lat="45.22912" lon="6.04151">
        <ele>2134.9</ele>
        <time>2021-03-23T11:10:53Z</time>
      </trkpt>
      <trkpt lat="45.22912" lon="6.04154">
        <ele>2135.7</ele>
        <time>2021-03-23T11:11:04Z</time>
      </trkpt>
      <trkpt lat="45.22918" lon="6.04155">
        <ele>2137.3</ele>
        <time>2021-03-23T11:11:14Z</time>
      </trkpt>
      <trkpt lat="45.22935" lon="6.04164">
        <ele>2142.7</ele>
        <time>2021-03-23T11:11:39Z</time>
      </trkpt>
      <trkpt lat="45.22945" lon="6.04164">
        <ele>2146.2</ele>
        <time>2021-03-23T11:12:01Z</time>
      </trkpt>
      <trkpt lat="45.22951" lon="6.04167">
        <ele>2148</ele>
        <time>2021-03-23T11:12:10Z</time>
      </trkpt>
      <trkpt lat="45.22954" lon="6.0417">
        <ele>2149.2</ele>
        <time>2021-03-23T11:12:16Z</time>
      </trkpt>
      <trkpt lat="45.22955" lon="6.04175">
        <ele>2150.4</ele>
        <time>2021-03-23T11:12:27Z</time>
      </trkpt>
      <trkpt lat="45.22958" lon="6.04176">
        <ele>2151.3</ele>
        <time>2021-03-23T11:12:32Z</time>
      </trkpt>
      <trkpt lat="45.22975" lon="6.04187">
        <ele>2156.4</ele>
        <time>2021-03-23T11:12:49Z</time>
      </trkpt>
      <trkpt lat="45.22981" lon="6.04188">
        <ele>2158.2</ele>
        <time>2021-03-23T11:12:58Z</time>
      </trkpt>
      <trkpt lat="45.2298" lon="6.0419">
        <ele>2158.5</ele>
        <time>2021-03-23T11:13:02Z</time>
      </trkpt>
      <trkpt lat="45.22989" lon="6.04197">
        <ele>2161.7</ele>
        <time>2021-03-23T11:13:34Z</time>
      </trkpt>
      <trkpt lat="45.22997" lon="6.04195">
        <ele>2164.1</ele>
        <time>2021-03-23T11:14:07Z</time>
      </trkpt>
      <trkpt lat="45.23002" lon="6.04201">
        <ele>2165.8</ele>
        <time>2021-03-23T11:14:17Z</time>
      </trkpt>
      <trkpt lat="45.23002" lon="6.04203">
        <ele>2166.4</ele>
        <time>2021-03-23T11:14:27Z</time>
      </trkpt>
      <trkpt lat="45.23021" lon="6.04214">
        <ele>2172.1</ele>
        <time>2021-03-23T11:14:47Z</time>
      </trkpt>
      <trkpt lat="45.23025" lon="6.0422">
        <ele>2174.1</ele>
        <time>2021-03-23T11:15:02Z</time>
      </trkpt>
      <trkpt lat="45.23033" lon="6.04223">
        <ele>2176.2</ele>
        <time>2021-03-23T11:15:07Z</time>
      </trkpt>
      <trkpt lat="45.23035" lon="6.04226">
        <ele>2177.5</ele>
        <time>2021-03-23T11:15:16Z</time>
      </trkpt>
      <trkpt lat="45.23039" lon="6.04227">
        <ele>2178.9</ele>
        <time>2021-03-23T11:15:23Z</time>
      </trkpt>
      <trkpt lat="45.23045" lon="6.04231">
        <ele>2180.7</ele>
        <time>2021-03-23T11:15:29Z</time>
      </trkpt>
      <trkpt lat="45.23044" lon="6.04229">
        <ele>2181.2</ele>
        <time>2021-03-23T11:15:32Z</time>
      </trkpt>
      <trkpt lat="45.23047" lon="6.04234">
        <ele>2182.6</ele>
        <time>2021-03-23T11:15:42Z</time>
      </trkpt>
      <trkpt lat="45.23045" lon="6.04232">
        <ele>2183.4</ele>
        <time>2021-03-23T11:15:51Z</time>
      </trkpt>
      <trkpt lat="45.23046" lon="6.04235">
        <ele>2184</ele>
        <time>2021-03-23T11:15:58Z</time>
      </trkpt>
      <trkpt lat="45.23048" lon="6.04236">
        <ele>2184.6</ele>
        <time>2021-03-23T11:16:02Z</time>
      </trkpt>
      <trkpt lat="45.23051" lon="6.04249">
        <ele>2187.7</ele>
        <time>2021-03-23T11:16:20Z</time>
      </trkpt>
      <trkpt lat="45.23054" lon="6.04247">
        <ele>2188.7</ele>
        <time>2021-03-23T11:16:27Z</time>
      </trkpt>
      <trkpt lat="45.23064" lon="6.04253">
        <ele>2191.7</ele>
        <time>2021-03-23T11:16:43Z</time>
      </trkpt>
      <trkpt lat="45.2306" lon="6.04253">
        <ele>2192.5</ele>
        <time>2021-03-23T11:16:50Z</time>
      </trkpt>
      <trkpt lat="45.23058" lon="6.04255">
        <ele>2192.8</ele>
        <time>2021-03-23T11:16:54Z</time>
      </trkpt>
      <trkpt lat="45.23055" lon="6.04256">
        <ele>2193.4</ele>
        <time>2021-03-23T11:17:00Z</time>
      </trkpt>
      <trkpt lat="45.23053" lon="6.04265">
        <ele>2194.3</ele>
        <time>2021-03-23T11:17:08Z</time>
      </trkpt>
      <trkpt lat="45.2305" lon="6.04268">
        <ele>2194.8</ele>
        <time>2021-03-23T11:17:13Z</time>
      </trkpt>
      <trkpt lat="45.23049" lon="6.04272">
        <ele>2194.9</ele>
        <time>2021-03-23T11:17:20Z</time>
      </trkpt>
      <trkpt lat="45.23046" lon="6.04274">
        <ele>2195.4</ele>
        <time>2021-03-23T11:17:24Z</time>
      </trkpt>
      <trkpt lat="45.23042" lon="6.04281">
        <ele>2196</ele>
        <time>2021-03-23T11:17:33Z</time>
      </trkpt>
      <trkpt lat="45.23034" lon="6.04287">
        <ele>2196.9</ele>
        <time>2021-03-23T11:17:44Z</time>
      </trkpt>
      <trkpt lat="45.23031" lon="6.04292">
        <ele>2197.2</ele>
        <time>2021-03-23T11:17:55Z</time>
      </trkpt>
      <trkpt lat="45.23027" lon="6.04295">
        <ele>2197.4</ele>
        <time>2021-03-23T11:18:04Z</time>
      </trkpt>
      <trkpt lat="45.23022" lon="6.04304">
        <ele>2197.5</ele>
        <time>2021-03-23T11:18:18Z</time>
      </trkpt>
      <trkpt lat="45.23015" lon="6.04311">
        <ele>2197.9</ele>
        <time>2021-03-23T11:18:31Z</time>
      </trkpt>
      <trkpt lat="45.23015" lon="6.04311">
        <ele>2196.4</ele>
        <time>2021-03-23T11:18:46Z</time>
      </trkpt>
      <trkpt lat="45.23017" lon="6.04312">
        <ele>2195.6</ele>
        <time>2021-03-23T11:19:00Z</time>
      </trkpt>
      <trkpt lat="45.23022" lon="6.04313">
        <ele>2195.6</ele>
        <time>2021-03-23T11:19:07Z</time>
      </trkpt>
      <trkpt lat="45.23035" lon="6.04321">
        <ele>2197.9</ele>
        <time>2021-03-23T11:19:30Z</time>
      </trkpt>
      <trkpt lat="45.23043" lon="6.04323">
        <ele>2199.3</ele>
        <time>2021-03-23T11:19:38Z</time>
      </trkpt>
      <trkpt lat="45.23061" lon="6.04325">
        <ele>2202.2</ele>
        <time>2021-03-23T11:19:58Z</time>
      </trkpt>
      <trkpt lat="45.23069" lon="6.04332">
        <ele>2203.9</ele>
        <time>2021-03-23T11:20:34Z</time>
      </trkpt>
      <trkpt lat="45.23074" lon="6.04334">
        <ele>2204.7</ele>
        <time>2021-03-23T11:20:43Z</time>
      </trkpt>
      <trkpt lat="45.2308" lon="6.04332">
        <ele>2205.8</ele>
        <time>2021-03-23T11:20:56Z</time>
      </trkpt>
      <trkpt lat="45.23094" lon="6.04335">
        <ele>2208.3</ele>
        <time>2021-03-23T11:21:26Z</time>
      </trkpt>
      <trkpt lat="45.23107" lon="6.04344">
        <ele>2210.6</ele>
        <time>2021-03-23T11:21:42Z</time>
      </trkpt>
      <trkpt lat="45.23099" lon="6.04344">
        <ele>2211.9</ele>
        <time>2021-03-23T11:22:50Z</time>
      </trkpt>
      <trkpt lat="45.23093" lon="6.04348">
        <ele>2213</ele>
        <time>2021-03-23T11:23:00Z</time>
      </trkpt>
      <trkpt lat="45.23086" lon="6.04361">
        <ele>2214.8</ele>
        <time>2021-03-23T11:23:16Z</time>
      </trkpt>
      <trkpt lat="45.23084" lon="6.04372">
        <ele>2216.1</ele>
        <time>2021-03-23T11:23:25Z</time>
      </trkpt>
      <trkpt lat="45.23082" lon="6.04374">
        <ele>2216.6</ele>
        <time>2021-03-23T11:23:30Z</time>
      </trkpt>
      <trkpt lat="45.23078" lon="6.04374">
        <ele>2217.2</ele>
        <time>2021-03-23T11:23:41Z</time>
      </trkpt>
      <trkpt lat="45.23084" lon="6.04369">
        <ele>2218.4</ele>
        <time>2021-03-23T11:24:21Z</time>
      </trkpt>
      <trkpt lat="45.23088" lon="6.04371">
        <ele>2219.1</ele>
        <time>2021-03-23T11:24:38Z</time>
      </trkpt>
      <trkpt lat="45.23083" lon="6.04373">
        <ele>2219.9</ele>
        <time>2021-03-23T11:24:46Z</time>
      </trkpt>
      <trkpt lat="45.23083" lon="6.04378">
        <ele>2220.4</ele>
        <time>2021-03-23T11:24:56Z</time>
      </trkpt>
      <trkpt lat="45.23079" lon="6.04384">
        <ele>2221.3</ele>
        <time>2021-03-23T11:25:04Z</time>
      </trkpt>
      <trkpt lat="45.23072" lon="6.0439">
        <ele>2222.7</ele>
        <time>2021-03-23T11:25:14Z</time>
      </trkpt>
      <trkpt lat="45.23072" lon="6.04395">
        <ele>2223.3</ele>
        <time>2021-03-23T11:25:20Z</time>
      </trkpt>
      <trkpt lat="45.23066" lon="6.04402">
        <ele>2224.6</ele>
        <time>2021-03-23T11:25:40Z</time>
      </trkpt>
      <trkpt lat="45.23067" lon="6.04404">
        <ele>2224.9</ele>
        <time>2021-03-23T11:25:46Z</time>
      </trkpt>
      <trkpt lat="45.23078" lon="6.0441">
        <ele>2226.9</ele>
        <time>2021-03-23T11:26:20Z</time>
      </trkpt>
      <trkpt lat="45.23079" lon="6.04416">
        <ele>2227.8</ele>
        <time>2021-03-23T11:26:34Z</time>
      </trkpt>
      <trkpt lat="45.2307" lon="6.04422">
        <ele>2229.4</ele>
        <time>2021-03-23T11:26:50Z</time>
      </trkpt>
      <trkpt lat="45.2306" lon="6.04424">
        <ele>2231.1</ele>
        <time>2021-03-23T11:27:01Z</time>
      </trkpt>
      <trkpt lat="45.2305" lon="6.04428">
        <ele>2232.7</ele>
        <time>2021-03-23T11:27:11Z</time>
      </trkpt>
      <trkpt lat="45.23046" lon="6.04433">
        <ele>2233.6</ele>
        <time>2021-03-23T11:27:22Z</time>
      </trkpt>
      <trkpt lat="45.23054" lon="6.04435">
        <ele>2234.9</ele>
        <time>2021-03-23T11:27:40Z</time>
      </trkpt>
      <trkpt lat="45.23072" lon="6.04435">
        <ele>2237.8</ele>
        <time>2021-03-23T11:27:58Z</time>
      </trkpt>
      <trkpt lat="45.23077" lon="6.04437">
        <ele>2238.8</ele>
        <time>2021-03-23T11:28:08Z</time>
      </trkpt>
      <trkpt lat="45.23077" lon="6.0444">
        <ele>2239.1</ele>
        <time>2021-03-23T11:28:13Z</time>
      </trkpt>
      <trkpt lat="45.23086" lon="6.04444">
        <ele>2240.7</ele>
        <time>2021-03-23T11:28:30Z</time>
      </trkpt>
      <trkpt lat="45.23081" lon="6.04449">
        <ele>2241.7</ele>
        <time>2021-03-23T11:28:45Z</time>
      </trkpt>
      <trkpt lat="45.23079" lon="6.04448">
        <ele>2242.1</ele>
        <time>2021-03-23T11:28:48Z</time>
      </trkpt>
      <trkpt lat="45.23074" lon="6.04452">
        <ele>2243</ele>
        <time>2021-03-23T11:28:56Z</time>
      </trkpt>
      <trkpt lat="45.23072" lon="6.0445">
        <ele>2243.4</ele>
        <time>2021-03-23T11:29:00Z</time>
      </trkpt>
      <trkpt lat="45.23062" lon="6.04455">
        <ele>2245.2</ele>
        <time>2021-03-23T11:29:17Z</time>
      </trkpt>
      <trkpt lat="45.23058" lon="6.04451">
        <ele>2246</ele>
        <time>2021-03-23T11:29:53Z</time>
      </trkpt>
      <trkpt lat="45.23061" lon="6.04451">
        <ele>2246.7</ele>
        <time>2021-03-23T11:33:09Z</time>
      </trkpt>
      <trkpt lat="45.23059" lon="6.04452">
        <ele>2247</ele>
        <time>2021-03-23T11:34:13Z</time>
      </trkpt>
      <trkpt lat="45.2306" lon="6.04453">
        <ele>2247.2</ele>
        <time>2021-03-23T11:34:31Z</time>
      </trkpt>
      <trkpt lat="45.23061" lon="6.0445">
        <ele>2247.7</ele>
        <time>2021-03-23T11:34:45Z</time>
      </trkpt>
      <trkpt lat="45.2307" lon="6.04456">
        <ele>2249.4</ele>
        <time>2021-03-23T11:35:16Z</time>
      </trkpt>
      <trkpt lat="45.23069" lon="6.04452">
        <ele>2249.8</ele>
        <time>2021-03-23T11:35:42Z</time>
      </trkpt>
      <trkpt lat="45.23073" lon="6.04449">
        <ele>2250.5</ele>
        <time>2021-03-23T11:35:56Z</time>
      </trkpt>
      <trkpt lat="45.23089" lon="6.04467">
        <ele>2253.9</ele>
        <time>2021-03-23T11:36:34Z</time>
      </trkpt>
      <trkpt lat="45.23094" lon="6.04468">
        <ele>2254.8</ele>
        <time>2021-03-23T11:36:43Z</time>
      </trkpt>
      <trkpt lat="45.23091" lon="6.04474">
        <ele>2255.6</ele>
        <time>2021-03-23T11:36:55Z</time>
      </trkpt>
      <trkpt lat="45.23075" lon="6.04482">
        <ele>2258.4</ele>
        <time>2021-03-23T11:37:21Z</time>
      </trkpt>
      <trkpt lat="45.23073" lon="6.04485">
        <ele>2259</ele>
        <time>2021-03-23T11:37:27Z</time>
      </trkpt>
      <trkpt lat="45.23079" lon="6.04486">
        <ele>2260</ele>
        <time>2021-03-23T11:37:39Z</time>
      </trkpt>
      <trkpt lat="45.23094" lon="6.04492">
        <ele>2262.5</ele>
        <time>2021-03-23T11:38:03Z</time>
      </trkpt>
      <trkpt lat="45.23103" lon="6.04492">
        <ele>2264</ele>
        <time>2021-03-23T11:38:17Z</time>
      </trkpt>
      <trkpt lat="45.23109" lon="6.04487">
        <ele>2265.2</ele>
        <time>2021-03-23T11:38:29Z</time>
      </trkpt>
      <trkpt lat="45.23112" lon="6.04476">
        <ele>2266.6</ele>
        <time>2021-03-23T11:38:37Z</time>
      </trkpt>
      <trkpt lat="45.23119" lon="6.04477">
        <ele>2267.7</ele>
        <time>2021-03-23T11:38:56Z</time>
      </trkpt>
      <trkpt lat="45.23126" lon="6.04482">
        <ele>2269</ele>
        <time>2021-03-23T11:39:04Z</time>
      </trkpt>
      <trkpt lat="45.23124" lon="6.04481">
        <ele>2269.3</ele>
        <time>2021-03-23T11:39:12Z</time>
      </trkpt>
      <trkpt lat="45.23122" lon="6.04485">
        <ele>2269.9</ele>
        <time>2021-03-23T11:39:20Z</time>
      </trkpt>
      <trkpt lat="45.23112" lon="6.04492">
        <ele>2271.8</ele>
        <time>2021-03-23T11:39:32Z</time>
      </trkpt>
      <trkpt lat="45.23126" lon="6.04488">
        <ele>2274.3</ele>
        <time>2021-03-23T11:39:53Z</time>
      </trkpt>
      <trkpt lat="45.23125" lon="6.04488">
        <ele>2274.7</ele>
        <time>2021-03-23T11:39:59Z</time>
      </trkpt>
      <trkpt lat="45.2312" lon="6.04498">
        <ele>2276</ele>
        <time>2021-03-23T11:40:11Z</time>
      </trkpt>
      <trkpt lat="45.23117" lon="6.04499">
        <ele>2276.6</ele>
        <time>2021-03-23T11:40:17Z</time>
      </trkpt>
      <trkpt lat="45.2313" lon="6.04499">
        <ele>2278.7</ele>
        <time>2021-03-23T11:40:37Z</time>
      </trkpt>
      <trkpt lat="45.23128" lon="6.04505">
        <ele>2279.7</ele>
        <time>2021-03-23T11:40:53Z</time>
      </trkpt>
      <trkpt lat="45.23124" lon="6.04504">
        <ele>2280.3</ele>
        <time>2021-03-23T11:40:59Z</time>
      </trkpt>
      <trkpt lat="45.23124" lon="6.04506">
        <ele>2280.5</ele>
        <time>2021-03-23T11:41:03Z</time>
      </trkpt>
      <trkpt lat="45.23138" lon="6.04504">
        <ele>2283.2</ele>
        <time>2021-03-23T11:41:34Z</time>
      </trkpt>
      <trkpt lat="45.23138" lon="6.04506">
        <ele>2283.5</ele>
        <time>2021-03-23T11:41:38Z</time>
      </trkpt>
      <trkpt lat="45.23133" lon="6.04506">
        <ele>2284.4</ele>
        <time>2021-03-23T11:41:50Z</time>
      </trkpt>
      <trkpt lat="45.23128" lon="6.04516">
        <ele>2285.8</ele>
        <time>2021-03-23T11:42:08Z</time>
      </trkpt>
      <trkpt lat="45.23133" lon="6.04518">
        <ele>2286.6</ele>
        <time>2021-03-23T11:42:16Z</time>
      </trkpt>
      <trkpt lat="45.23137" lon="6.04517">
        <ele>2287.3</ele>
        <time>2021-03-23T11:42:22Z</time>
      </trkpt>
      <trkpt lat="45.23134" lon="6.04514">
        <ele>2287.8</ele>
        <time>2021-03-23T11:42:30Z</time>
      </trkpt>
      <trkpt lat="45.23141" lon="6.04515">
        <ele>2289</ele>
        <time>2021-03-23T11:42:38Z</time>
      </trkpt>
      <trkpt lat="45.23141" lon="6.04518">
        <ele>2289.5</ele>
        <time>2021-03-23T11:42:48Z</time>
      </trkpt>
      <trkpt lat="45.23144" lon="6.04517">
        <ele>2290.1</ele>
        <time>2021-03-23T11:43:04Z</time>
      </trkpt>
      <trkpt lat="45.2314" lon="6.04522">
        <ele>2290.9</ele>
        <time>2021-03-23T11:43:15Z</time>
      </trkpt>
      <trkpt lat="45.2314" lon="6.04536">
        <ele>2292.7</ele>
        <time>2021-03-23T11:43:34Z</time>
      </trkpt>
      <trkpt lat="45.23142" lon="6.04536">
        <ele>2293</ele>
        <time>2021-03-23T11:43:37Z</time>
      </trkpt>
      <trkpt lat="45.23146" lon="6.04531">
        <ele>2294</ele>
        <time>2021-03-23T11:43:56Z</time>
      </trkpt>
      <trkpt lat="45.23142" lon="6.04532">
        <ele>2294.7</ele>
        <time>2021-03-23T11:44:05Z</time>
      </trkpt>
      <trkpt lat="45.23137" lon="6.04524">
        <ele>2296</ele>
        <time>2021-03-23T11:44:34Z</time>
      </trkpt>
      <trkpt lat="45.23161" lon="6.0452">
        <ele>2299.8</ele>
        <time>2021-03-23T11:45:04Z</time>
      </trkpt>
      <trkpt lat="45.23162" lon="6.04527">
        <ele>2300.7</ele>
        <time>2021-03-23T11:45:14Z</time>
      </trkpt>
      <trkpt lat="45.23158" lon="6.0453">
        <ele>2301.5</ele>
        <time>2021-03-23T11:45:21Z</time>
      </trkpt>
      <trkpt lat="45.23154" lon="6.04556">
        <ele>2304.6</ele>
        <time>2021-03-23T11:45:44Z</time>
      </trkpt>
      <trkpt lat="45.23162" lon="6.04548">
        <ele>2306.2</ele>
        <time>2021-03-23T11:45:57Z</time>
      </trkpt>
      <trkpt lat="45.23177" lon="6.04547">
        <ele>2308.9</ele>
        <time>2021-03-23T11:46:17Z</time>
      </trkpt>
      <trkpt lat="45.23181" lon="6.04542">
        <ele>2309.7</ele>
        <time>2021-03-23T11:46:22Z</time>
      </trkpt>
      <trkpt lat="45.23183" lon="6.04543">
        <ele>2309.9</ele>
        <time>2021-03-23T11:46:28Z</time>
      </trkpt>
      <trkpt lat="45.23182" lon="6.04538">
        <ele>2308.4</ele>
        <time>2021-03-23T11:46:35Z</time>
      </trkpt>
      <trkpt lat="45.23181" lon="6.04547">
        <ele>2311.5</ele>
        <time>2021-03-23T11:46:47Z</time>
      </trkpt>
      <trkpt lat="45.2318" lon="6.04548">
        <ele>2310.7</ele>
        <time>2021-03-23T11:46:49Z</time>
      </trkpt>
      <trkpt lat="45.23181" lon="6.04549">
        <ele>2312.5</ele>
        <time>2021-03-23T11:46:50Z</time>
      </trkpt>
      <trkpt lat="45.23176" lon="6.04552">
        <ele>2311.7</ele>
        <time>2021-03-23T11:46:56Z</time>
      </trkpt>
      <trkpt lat="45.23175" lon="6.04553">
        <ele>2313.5</ele>
        <time>2021-03-23T11:46:58Z</time>
      </trkpt>
      <trkpt lat="45.23174" lon="6.04557">
        <ele>2312.6</ele>
        <time>2021-03-23T11:47:02Z</time>
      </trkpt>
      <trkpt lat="45.23173" lon="6.04562">
        <ele>2316.2</ele>
        <time>2021-03-23T11:47:07Z</time>
      </trkpt>
      <trkpt lat="45.23173" lon="6.04577">
        <ele>2321.1</ele>
        <time>2021-03-23T11:47:18Z</time>
      </trkpt>
      <trkpt lat="45.2317" lon="6.04578">
        <ele>2320.3</ele>
        <time>2021-03-23T11:47:23Z</time>
      </trkpt>
      <trkpt lat="45.23169" lon="6.04581">
        <ele>2321.8</ele>
        <time>2021-03-23T11:47:26Z</time>
      </trkpt>
      <trkpt lat="45.23169" lon="6.04589">
        <ele>2324.9</ele>
        <time>2021-03-23T11:47:32Z</time>
      </trkpt>
      <trkpt lat="45.23165" lon="6.04597">
        <ele>2326.3</ele>
        <time>2021-03-23T11:47:38Z</time>
      </trkpt>
      <trkpt lat="45.23164" lon="6.04604">
        <ele>2328</ele>
        <time>2021-03-23T11:47:44Z</time>
      </trkpt>
      <trkpt lat="45.23164" lon="6.04609">
        <ele>2331.5</ele>
        <time>2021-03-23T11:47:48Z</time>
      </trkpt>
      <trkpt lat="45.23164" lon="6.04613">
        <ele>2331.5</ele>
        <time>2021-03-23T11:47:51Z</time>
      </trkpt>
      <trkpt lat="45.23163" lon="6.04614">
        <ele>2333.2</ele>
        <time>2021-03-23T11:47:52Z</time>
      </trkpt>
      <trkpt lat="45.23161" lon="6.04617">
        <ele>2332.1</ele>
        <time>2021-03-23T11:47:55Z</time>
      </trkpt>
      <trkpt lat="45.2316" lon="6.04617">
        <ele>2333.8</ele>
        <time>2021-03-23T11:47:56Z</time>
      </trkpt>
      <trkpt lat="45.2316" lon="6.04621">
        <ele>2333.8</ele>
        <time>2021-03-23T11:47:58Z</time>
      </trkpt>
      <trkpt lat="45.2316" lon="6.04622">
        <ele>2335.3</ele>
        <time>2021-03-23T11:47:59Z</time>
      </trkpt>
      <trkpt lat="45.23155" lon="6.04626">
        <ele>2333.3</ele>
        <time>2021-03-23T11:48:07Z</time>
      </trkpt>
      <trkpt lat="45.23155" lon="6.04626">
        <ele>2334.9</ele>
        <time>2021-03-23T11:48:10Z</time>
      </trkpt>
      <trkpt lat="45.23168" lon="6.04634">
        <ele>2340</ele>
        <time>2021-03-23T11:48:23Z</time>
      </trkpt>
      <trkpt lat="45.23169" lon="6.04634">
        <ele>2342.6</ele>
        <time>2021-03-23T11:48:24Z</time>
      </trkpt>
      <trkpt lat="45.23178" lon="6.04636">
        <ele>2344.9</ele>
        <time>2021-03-23T11:48:42Z</time>
      </trkpt>
      <trkpt lat="45.23185" lon="6.04634">
        <ele>2344.8</ele>
        <time>2021-03-23T11:48:49Z</time>
      </trkpt>
      <trkpt lat="45.23185" lon="6.04635">
        <ele>2346.3</ele>
        <time>2021-03-23T11:48:50Z</time>
      </trkpt>
      <trkpt lat="45.23186" lon="6.04638">
        <ele>2346.3</ele>
        <time>2021-03-23T11:48:55Z</time>
      </trkpt>
      <trkpt lat="45.23187" lon="6.04645">
        <ele>2350.2</ele>
        <time>2021-03-23T11:49:02Z</time>
      </trkpt>
      <trkpt lat="45.2319" lon="6.04643">
        <ele>2350.9</ele>
        <time>2021-03-23T11:49:06Z</time>
      </trkpt>
      <trkpt lat="45.2319" lon="6.0464">
        <ele>2349.2</ele>
        <time>2021-03-23T11:49:10Z</time>
      </trkpt>
      <trkpt lat="45.23184" lon="6.04634">
        <ele>2344.4</ele>
        <time>2021-03-23T11:49:18Z</time>
      </trkpt>
      <trkpt lat="45.23181" lon="6.04633">
        <ele>2343.6</ele>
        <time>2021-03-23T11:49:22Z</time>
      </trkpt>
      <trkpt lat="45.23179" lon="6.04634">
        <ele>2342.7</ele>
        <time>2021-03-23T11:49:30Z</time>
      </trkpt>
      <trkpt lat="45.23184" lon="6.04633">
        <ele>2344.1</ele>
        <time>2021-03-23T11:49:46Z</time>
      </trkpt>
      <trkpt lat="45.23185" lon="6.04631">
        <ele>2344</ele>
        <time>2021-03-23T11:49:55Z</time>
      </trkpt>
      <trkpt lat="45.23184" lon="6.0463">
        <ele>2343.2</ele>
        <time>2021-03-23T11:50:01Z</time>
      </trkpt>
      <trkpt lat="45.23182" lon="6.04633">
        <ele>2343.1</ele>
        <time>2021-03-23T11:50:09Z</time>
      </trkpt>
      <trkpt lat="45.23181" lon="6.04634">
        <ele>2344.7</ele>
        <time>2021-03-23T11:50:11Z</time>
      </trkpt>
      <trkpt lat="45.23176" lon="6.04637">
        <ele>2342.7</ele>
        <time>2021-03-23T11:50:37Z</time>
      </trkpt>
      <trkpt lat="45.23181" lon="6.04637">
        <ele>2344.2</ele>
        <time>2021-03-23T11:50:52Z</time>
      </trkpt>
      <trkpt lat="45.23183" lon="6.04639">
        <ele>2343.1</ele>
        <time>2021-03-23T11:52:17Z</time>
      </trkpt>
      <trkpt lat="45.23184" lon="6.04639">
        <ele>2345.5</ele>
        <time>2021-03-23T11:52:18Z</time>
      </trkpt>
      <trkpt lat="45.23193" lon="6.04644">
        <ele>2348.5</ele>
        <time>2021-03-23T11:52:25Z</time>
      </trkpt>
      <trkpt lat="45.23197" lon="6.04652">
        <ele>2353.1</ele>
        <time>2021-03-23T11:52:33Z</time>
      </trkpt>
      <trkpt lat="45.23203" lon="6.04655">
        <ele>2354.6</ele>
        <time>2021-03-23T11:52:47Z</time>
      </trkpt>
      <trkpt lat="45.23223" lon="6.04659">
        <ele>2360.9</ele>
        <time>2021-03-23T11:53:13Z</time>
      </trkpt>
      <trkpt lat="45.23223" lon="6.04664">
        <ele>2361.7</ele>
        <time>2021-03-23T11:53:18Z</time>
      </trkpt>
      <trkpt lat="45.23222" lon="6.0467">
        <ele>2362.6</ele>
        <time>2021-03-23T11:53:23Z</time>
      </trkpt>
      <trkpt lat="45.23217" lon="6.04681">
        <ele>2364.7</ele>
        <time>2021-03-23T11:53:42Z</time>
      </trkpt>
      <trkpt lat="45.23218" lon="6.04683">
        <ele>2365.2</ele>
        <time>2021-03-23T11:53:47Z</time>
      </trkpt>
      <trkpt lat="45.23228" lon="6.04687">
        <ele>2367.6</ele>
        <time>2021-03-23T11:54:04Z</time>
      </trkpt>
      <trkpt lat="45.23232" lon="6.0469">
        <ele>2368.6</ele>
        <time>2021-03-23T11:54:10Z</time>
      </trkpt>
      <trkpt lat="45.23232" lon="6.04694">
        <ele>2369.5</ele>
        <time>2021-03-23T11:54:20Z</time>
      </trkpt>
      <trkpt lat="45.23243" lon="6.04699">
        <ele>2372.1</ele>
        <time>2021-03-23T11:54:35Z</time>
      </trkpt>
      <trkpt lat="45.23241" lon="6.04704">
        <ele>2373.1</ele>
        <time>2021-03-23T11:54:46Z</time>
      </trkpt>
      <trkpt lat="45.23239" lon="6.04726">
        <ele>2376.6</ele>
        <time>2021-03-23T11:55:07Z</time>
      </trkpt>
      <trkpt lat="45.23245" lon="6.04725">
        <ele>2378</ele>
        <time>2021-03-23T11:55:17Z</time>
      </trkpt>
      <trkpt lat="45.23251" lon="6.04713">
        <ele>2380.4</ele>
        <time>2021-03-23T11:55:28Z</time>
      </trkpt>
      <trkpt lat="45.23258" lon="6.04724">
        <ele>2382.9</ele>
        <time>2021-03-23T11:55:41Z</time>
      </trkpt>
      <trkpt lat="45.2326" lon="6.04735">
        <ele>2384.6</ele>
        <time>2021-03-23T11:55:49Z</time>
      </trkpt>
      <trkpt lat="45.23257" lon="6.04746">
        <ele>2386.4</ele>
        <time>2021-03-23T11:56:02Z</time>
      </trkpt>
      <trkpt lat="45.23258" lon="6.0475">
        <ele>2387.1</ele>
        <time>2021-03-23T11:56:07Z</time>
      </trkpt>
      <trkpt lat="45.23246" lon="6.04761">
        <ele>2390.5</ele>
        <time>2021-03-23T11:56:28Z</time>
      </trkpt>
      <trkpt lat="45.23248" lon="6.04765">
        <ele>2391.1</ele>
        <time>2021-03-23T11:56:33Z</time>
      </trkpt>
      <trkpt lat="45.23267" lon="6.04765">
        <ele>2395.4</ele>
        <time>2021-03-23T11:56:58Z</time>
      </trkpt>
      <trkpt lat="45.23265" lon="6.04766">
        <ele>2395.8</ele>
        <time>2021-03-23T11:57:08Z</time>
      </trkpt>
      <trkpt lat="45.23264" lon="6.04775">
        <ele>2397.3</ele>
        <time>2021-03-23T11:57:21Z</time>
      </trkpt>
      <trkpt lat="45.23259" lon="6.04782">
        <ele>2398.9</ele>
        <time>2021-03-23T11:57:28Z</time>
      </trkpt>
      <trkpt lat="45.23252" lon="6.04785">
        <ele>2400.7</ele>
        <time>2021-03-23T11:57:38Z</time>
      </trkpt>
      <trkpt lat="45.23268" lon="6.04795">
        <ele>2404.7</ele>
        <time>2021-03-23T11:57:56Z</time>
      </trkpt>
      <trkpt lat="45.2327" lon="6.048">
        <ele>2405.7</ele>
        <time>2021-03-23T11:58:08Z</time>
      </trkpt>
      <trkpt lat="45.2327" lon="6.04798">
        <ele>2405.9</ele>
        <time>2021-03-23T11:58:16Z</time>
      </trkpt>
      <trkpt lat="45.23271" lon="6.048">
        <ele>2406.3</ele>
        <time>2021-03-23T11:58:20Z</time>
      </trkpt>
      <trkpt lat="45.23269" lon="6.04806">
        <ele>2407.3</ele>
        <time>2021-03-23T11:58:29Z</time>
      </trkpt>
      <trkpt lat="45.2327" lon="6.04811">
        <ele>2408.3</ele>
        <time>2021-03-23T11:58:35Z</time>
      </trkpt>
      <trkpt lat="45.23281" lon="6.04815">
        <ele>2411</ele>
        <time>2021-03-23T11:58:56Z</time>
      </trkpt>
      <trkpt lat="45.23284" lon="6.04818">
        <ele>2411.8</ele>
        <time>2021-03-23T11:59:02Z</time>
      </trkpt>
      <trkpt lat="45.23285" lon="6.04831">
        <ele>2414</ele>
        <time>2021-03-23T11:59:21Z</time>
      </trkpt>
      <trkpt lat="45.23275" lon="6.04846">
        <ele>2417.4</ele>
        <time>2021-03-23T11:59:42Z</time>
      </trkpt>
      <trkpt lat="45.23274" lon="6.04851">
        <ele>2418.1</ele>
        <time>2021-03-23T11:59:49Z</time>
      </trkpt>
      <trkpt lat="45.23275" lon="6.04859">
        <ele>2419.4</ele>
        <time>2021-03-23T11:59:57Z</time>
      </trkpt>
      <trkpt lat="45.2328" lon="6.04868">
        <ele>2421.3</ele>
        <time>2021-03-23T12:00:15Z</time>
      </trkpt>
      <trkpt lat="45.23279" lon="6.04873">
        <ele>2422.2</ele>
        <time>2021-03-23T12:00:21Z</time>
      </trkpt>
      <trkpt lat="45.23281" lon="6.04882">
        <ele>2423.8</ele>
        <time>2021-03-23T12:00:35Z</time>
      </trkpt>
      <trkpt lat="45.23289" lon="6.04894">
        <ele>2426.3</ele>
        <time>2021-03-23T12:00:53Z</time>
      </trkpt>
      <trkpt lat="45.23293" lon="6.04914">
        <ele>2429.8</ele>
        <time>2021-03-23T12:01:22Z</time>
      </trkpt>
      <trkpt lat="45.23286" lon="6.04909">
        <ele>2431.7</ele>
        <time>2021-03-23T12:01:41Z</time>
      </trkpt>
      <trkpt lat="45.23289" lon="6.04915">
        <ele>2433</ele>
        <time>2021-03-23T12:01:47Z</time>
      </trkpt>
      <trkpt lat="45.23292" lon="6.04927">
        <ele>2434.9</ele>
        <time>2021-03-23T12:01:55Z</time>
      </trkpt>
      <trkpt lat="45.23292" lon="6.04929">
        <ele>2445.7</ele>
        <time>2021-03-23T12:01:56Z</time>
      </trkpt>
      <trkpt lat="45.23296" lon="6.04945">
        <ele>2447.9</ele>
        <time>2021-03-23T12:02:09Z</time>
      </trkpt>
      <trkpt lat="45.23303" lon="6.04953">
        <ele>2449.3</ele>
        <time>2021-03-23T12:02:17Z</time>
      </trkpt>
      <trkpt lat="45.23306" lon="6.04961">
        <ele>2450.4</ele>
        <time>2021-03-23T12:02:28Z</time>
      </trkpt>
      <trkpt lat="45.23307" lon="6.04967">
        <ele>2451.2</ele>
        <time>2021-03-23T12:02:37Z</time>
      </trkpt>
      <trkpt lat="45.23309" lon="6.04984">
        <ele>2453.4</ele>
        <time>2021-03-23T12:02:51Z</time>
      </trkpt>
      <trkpt lat="45.23315" lon="6.04997">
        <ele>2455.7</ele>
        <time>2021-03-23T12:03:03Z</time>
      </trkpt>
      <trkpt lat="45.23327" lon="6.05027">
        <ele>2460.9</ele>
        <time>2021-03-23T12:03:37Z</time>
      </trkpt>
      <trkpt lat="45.23331" lon="6.05031">
        <ele>2462</ele>
        <time>2021-03-23T12:03:47Z</time>
      </trkpt>
      <trkpt lat="45.23331" lon="6.05036">
        <ele>2462.8</ele>
        <time>2021-03-23T12:03:57Z</time>
      </trkpt>
      <trkpt lat="45.23335" lon="6.05047">
        <ele>2464.6</ele>
        <time>2021-03-23T12:04:08Z</time>
      </trkpt>
      <trkpt lat="45.23336" lon="6.05041">
        <ele>2466.1</ele>
        <time>2021-03-23T12:04:41Z</time>
      </trkpt>
      <trkpt lat="45.23335" lon="6.05047">
        <ele>2467.1</ele>
        <time>2021-03-23T12:04:58Z</time>
      </trkpt>
      <trkpt lat="45.23334" lon="6.05045">
        <ele>2467.7</ele>
        <time>2021-03-23T12:05:13Z</time>
      </trkpt>
      <trkpt lat="45.23336" lon="6.05036">
        <ele>2469.2</ele>
        <time>2021-03-23T12:05:36Z</time>
      </trkpt>
      <trkpt lat="45.23337" lon="6.05041">
        <ele>2470</ele>
        <time>2021-03-23T12:05:43Z</time>
      </trkpt>
      <trkpt lat="45.23335" lon="6.05042">
        <ele>2470.6</ele>
        <time>2021-03-23T12:05:53Z</time>
      </trkpt>
      <trkpt lat="45.2334" lon="6.05044">
        <ele>2471.7</ele>
        <time>2021-03-23T12:06:03Z</time>
      </trkpt>
      <trkpt lat="45.23341" lon="6.05051">
        <ele>2472.8</ele>
        <time>2021-03-23T12:06:09Z</time>
      </trkpt>
      <trkpt lat="45.23341" lon="6.05061">
        <ele>2474.4</ele>
        <time>2021-03-23T12:06:17Z</time>
      </trkpt>
      <trkpt lat="45.23343" lon="6.05069">
        <ele>2475.7</ele>
        <time>2021-03-23T12:06:25Z</time>
      </trkpt>
      <trkpt lat="45.23355" lon="6.0508">
        <ele>2478.7</ele>
        <time>2021-03-23T12:06:48Z</time>
      </trkpt>
      <trkpt lat="45.23357" lon="6.05087">
        <ele>2479.8</ele>
        <time>2021-03-23T12:06:55Z</time>
      </trkpt>
      <trkpt lat="45.23369" lon="6.05096">
        <ele>2483.1</ele>
        <time>2021-03-23T12:07:17Z</time>
      </trkpt>
      <trkpt lat="45.23372" lon="6.05105">
        <ele>2484.7</ele>
        <time>2021-03-23T12:07:24Z</time>
      </trkpt>
      <trkpt lat="45.23375" lon="6.05109">
        <ele>2485.7</ele>
        <time>2021-03-23T12:07:30Z</time>
      </trkpt>
      <trkpt lat="45.23383" lon="6.05112">
        <ele>2487.7</ele>
        <time>2021-03-23T12:07:45Z</time>
      </trkpt>
      <trkpt lat="45.23393" lon="6.05124">
        <ele>2490.8</ele>
        <time>2021-03-23T12:08:03Z</time>
      </trkpt>
      <trkpt lat="45.23395" lon="6.0513">
        <ele>2491.9</ele>
        <time>2021-03-23T12:08:10Z</time>
      </trkpt>
      <trkpt lat="45.23393" lon="6.05128">
        <ele>2492.5</ele>
        <time>2021-03-23T12:08:18Z</time>
      </trkpt>
      <trkpt lat="45.23399" lon="6.05131">
        <ele>2494.2</ele>
        <time>2021-03-23T12:08:25Z</time>
      </trkpt>
      <trkpt lat="45.23401" lon="6.05136">
        <ele>2495.1</ele>
        <time>2021-03-23T12:08:31Z</time>
      </trkpt>
      <trkpt lat="45.23411" lon="6.05147">
        <ele>2498.3</ele>
        <time>2021-03-23T12:08:46Z</time>
      </trkpt>
      <trkpt lat="45.23417" lon="6.0515">
        <ele>2500</ele>
        <time>2021-03-23T12:08:53Z</time>
      </trkpt>
      <trkpt lat="45.23427" lon="6.05148">
        <ele>2502.4</ele>
        <time>2021-03-23T12:09:04Z</time>
      </trkpt>
      <trkpt lat="45.23436" lon="6.0515">
        <ele>2504.8</ele>
        <time>2021-03-23T12:09:16Z</time>
      </trkpt>
      <trkpt lat="45.23442" lon="6.05155">
        <ele>2506.6</ele>
        <time>2021-03-23T12:09:29Z</time>
      </trkpt>
      <trkpt lat="45.23452" lon="6.05157">
        <ele>2509.2</ele>
        <time>2021-03-23T12:09:46Z</time>
      </trkpt>
      <trkpt lat="45.23451" lon="6.05158">
        <ele>2509.7</ele>
        <time>2021-03-23T12:09:55Z</time>
      </trkpt>
      <trkpt lat="45.23466" lon="6.05156">
        <ele>2513.5</ele>
        <time>2021-03-23T12:10:27Z</time>
      </trkpt>
      <trkpt lat="45.23472" lon="6.05167">
        <ele>2515.8</ele>
        <time>2021-03-23T12:10:48Z</time>
      </trkpt>
      <trkpt lat="45.23475" lon="6.05175">
        <ele>2517.1</ele>
        <time>2021-03-23T12:10:55Z</time>
      </trkpt>
      <trkpt lat="45.23472" lon="6.05195">
        <ele>2520.2</ele>
        <time>2021-03-23T12:11:14Z</time>
      </trkpt>
      <trkpt lat="45.23475" lon="6.05205">
        <ele>2521.9</ele>
        <time>2021-03-23T12:11:30Z</time>
      </trkpt>
      <trkpt lat="45.23472" lon="6.05215">
        <ele>2523.6</ele>
        <time>2021-03-23T12:11:39Z</time>
      </trkpt>
      <trkpt lat="45.23473" lon="6.0522">
        <ele>2524.4</ele>
        <time>2021-03-23T12:11:45Z</time>
      </trkpt>
      <trkpt lat="45.2348" lon="6.05218">
        <ele>2526.1</ele>
        <time>2021-03-23T12:12:04Z</time>
      </trkpt>
      <trkpt lat="45.23488" lon="6.05219">
        <ele>2528.5</ele>
        <time>2021-03-23T12:12:12Z</time>
      </trkpt>
      <trkpt lat="45.23494" lon="6.05223">
        <ele>2530.2</ele>
        <time>2021-03-23T12:12:27Z</time>
      </trkpt>
      <trkpt lat="45.23497" lon="6.05223">
        <ele>2531.2</ele>
        <time>2021-03-23T12:12:34Z</time>
      </trkpt>
      <trkpt lat="45.235" lon="6.05219">
        <ele>2532.5</ele>
        <time>2021-03-23T12:12:44Z</time>
      </trkpt>
      <trkpt lat="45.23513" lon="6.05211">
        <ele>2537.2</ele>
        <time>2021-03-23T12:13:08Z</time>
      </trkpt>
      <trkpt lat="45.23519" lon="6.05203">
        <ele>2539.9</ele>
        <time>2021-03-23T12:13:28Z</time>
      </trkpt>
      <trkpt lat="45.23519" lon="6.05205">
        <ele>2540.5</ele>
        <time>2021-03-23T12:13:34Z</time>
      </trkpt>
      <trkpt lat="45.23523" lon="6.05198">
        <ele>2542.3</ele>
        <time>2021-03-23T12:13:42Z</time>
      </trkpt>
      <trkpt lat="45.23531" lon="6.05192">
        <ele>2545.2</ele>
        <time>2021-03-23T12:13:52Z</time>
      </trkpt>
      <trkpt lat="45.2353" lon="6.0519">
        <ele>2545.6</ele>
        <time>2021-03-23T12:13:55Z</time>
      </trkpt>
      <trkpt lat="45.23529" lon="6.05194">
        <ele>2546.8</ele>
        <time>2021-03-23T12:14:01Z</time>
      </trkpt>
      <trkpt lat="45.23532" lon="6.05202">
        <ele>2548.7</ele>
        <time>2021-03-23T12:14:13Z</time>
      </trkpt>
      <trkpt lat="45.23531" lon="6.05203">
        <ele>2549.4</ele>
        <time>2021-03-23T12:14:22Z</time>
      </trkpt>
      <trkpt lat="45.23541" lon="6.05229">
        <ele>2557.8</ele>
        <time>2021-03-23T12:14:52Z</time>
      </trkpt>
      <trkpt lat="45.23541" lon="6.05236">
        <ele>2559.7</ele>
        <time>2021-03-23T12:14:58Z</time>
      </trkpt>
      <trkpt lat="45.23543" lon="6.05242">
        <ele>2561.6</ele>
        <time>2021-03-23T12:15:06Z</time>
      </trkpt>
      <trkpt lat="45.23543" lon="6.05244">
        <ele>2562.2</ele>
        <time>2021-03-23T12:15:10Z</time>
      </trkpt>
      <trkpt lat="45.23541" lon="6.05242">
        <ele>2563.1</ele>
        <time>2021-03-23T12:15:16Z</time>
      </trkpt>
      <trkpt lat="45.23542" lon="6.05249">
        <ele>2565.4</ele>
        <time>2021-03-23T12:15:28Z</time>
      </trkpt>
      <trkpt lat="45.23549" lon="6.0526">
        <ele>2569.3</ele>
        <time>2021-03-23T12:15:42Z</time>
      </trkpt>
      <trkpt lat="45.23552" lon="6.05276">
        <ele>2573.7</ele>
        <time>2021-03-23T12:16:02Z</time>
      </trkpt>
      <trkpt lat="45.23552" lon="6.05283">
        <ele>2575.4</ele>
        <time>2021-03-23T12:16:10Z</time>
      </trkpt>
      <trkpt lat="45.2355" lon="6.05305">
        <ele>2580.3</ele>
        <time>2021-03-23T12:16:36Z</time>
      </trkpt>
      <trkpt lat="45.23551" lon="6.05303">
        <ele>2580.3</ele>
        <time>2021-03-23T12:17:02Z</time>
      </trkpt>
      <trkpt lat="45.23563" lon="6.05298">
        <ele>2583.6</ele>
        <time>2021-03-23T12:17:25Z</time>
      </trkpt>
      <trkpt lat="45.23565" lon="6.05294">
        <ele>2584.2</ele>
        <time>2021-03-23T12:17:37Z</time>
      </trkpt>
      <trkpt lat="45.23574" lon="6.05289">
        <ele>2586.3</ele>
        <time>2021-03-23T12:17:58Z</time>
      </trkpt>
      <trkpt lat="45.23574" lon="6.05285">
        <ele>2586.6</ele>
        <time>2021-03-23T12:18:07Z</time>
      </trkpt>
      <trkpt lat="45.23578" lon="6.05282">
        <ele>2587.4</ele>
        <time>2021-03-23T12:18:12Z</time>
      </trkpt>
      <trkpt lat="45.23579" lon="6.05278">
        <ele>2588</ele>
        <time>2021-03-23T12:18:17Z</time>
      </trkpt>
      <trkpt lat="45.23582" lon="6.05277">
        <ele>2588.4</ele>
        <time>2021-03-23T12:18:23Z</time>
      </trkpt>
      <trkpt lat="45.23583" lon="6.05274">
        <ele>2589</ele>
        <time>2021-03-23T12:18:28Z</time>
      </trkpt>
      <trkpt lat="45.23593" lon="6.05268">
        <ele>2591.3</ele>
        <time>2021-03-23T12:18:40Z</time>
      </trkpt>
      <trkpt lat="45.23595" lon="6.05262">
        <ele>2592.3</ele>
        <time>2021-03-23T12:18:47Z</time>
      </trkpt>
      <trkpt lat="45.23604" lon="6.05257">
        <ele>2594.3</ele>
        <time>2021-03-23T12:19:00Z</time>
      </trkpt>
      <trkpt lat="45.23608" lon="6.05276">
        <ele>2597.6</ele>
        <time>2021-03-23T12:19:50Z</time>
      </trkpt>
      <trkpt lat="45.23611" lon="6.05282">
        <ele>2598.9</ele>
        <time>2021-03-23T12:20:00Z</time>
      </trkpt>
      <trkpt lat="45.23614" lon="6.05305">
        <ele>2602.5</ele>
        <time>2021-03-23T12:20:22Z</time>
      </trkpt>
      <trkpt lat="45.2361" lon="6.05301">
        <ele>2603.8</ele>
        <time>2021-03-23T12:20:39Z</time>
      </trkpt>
      <trkpt lat="45.23603" lon="6.05306">
        <ele>2605.6</ele>
        <time>2021-03-23T12:20:51Z</time>
      </trkpt>
      <trkpt lat="45.23615" lon="6.05293">
        <ele>2608.8</ele>
        <time>2021-03-23T12:21:10Z</time>
      </trkpt>
      <trkpt lat="45.23617" lon="6.05289">
        <ele>2609.6</ele>
        <time>2021-03-23T12:21:15Z</time>
      </trkpt>
      <trkpt lat="45.23623" lon="6.05286">
        <ele>2610.9</ele>
        <time>2021-03-23T12:21:22Z</time>
      </trkpt>
      <trkpt lat="45.23632" lon="6.05276">
        <ele>2613.5</ele>
        <time>2021-03-23T12:21:33Z</time>
      </trkpt>
      <trkpt lat="45.23632" lon="6.05274">
        <ele>2614</ele>
        <time>2021-03-23T12:21:47Z</time>
      </trkpt>
      <trkpt lat="45.23632" lon="6.05278">
        <ele>2614.7</ele>
        <time>2021-03-23T12:21:58Z</time>
      </trkpt>
      <trkpt lat="45.2363" lon="6.0529">
        <ele>2616.9</ele>
        <time>2021-03-23T12:22:12Z</time>
      </trkpt>
      <trkpt lat="45.23628" lon="6.05289">
        <ele>2617.4</ele>
        <time>2021-03-23T12:22:15Z</time>
      </trkpt>
      <trkpt lat="45.23632" lon="6.05311">
        <ele>2621.5</ele>
        <time>2021-03-23T12:22:53Z</time>
      </trkpt>
      <trkpt lat="45.23636" lon="6.0531">
        <ele>2622.6</ele>
        <time>2021-03-23T12:23:19Z</time>
      </trkpt>
      <trkpt lat="45.23645" lon="6.05301">
        <ele>2625</ele>
        <time>2021-03-23T12:23:30Z</time>
      </trkpt>
      <trkpt lat="45.23646" lon="6.05297">
        <ele>2625.6</ele>
        <time>2021-03-23T12:23:36Z</time>
      </trkpt>
      <trkpt lat="45.23644" lon="6.05297">
        <ele>2626</ele>
        <time>2021-03-23T12:23:42Z</time>
      </trkpt>
      <trkpt lat="45.23645" lon="6.05301">
        <ele>2626.7</ele>
        <time>2021-03-23T12:23:53Z</time>
      </trkpt>
      <trkpt lat="45.23639" lon="6.05314">
        <ele>2629.4</ele>
        <time>2021-03-23T12:24:15Z</time>
      </trkpt>
      <trkpt lat="45.23651" lon="6.05301">
        <ele>2632.7</ele>
        <time>2021-03-23T12:24:36Z</time>
      </trkpt>
      <trkpt lat="45.23648" lon="6.05304">
        <ele>2633.8</ele>
        <time>2021-03-23T12:24:58Z</time>
      </trkpt>
      <trkpt lat="45.2365" lon="6.05316">
        <ele>2635.5</ele>
        <time>2021-03-23T12:25:22Z</time>
      </trkpt>
      <trkpt lat="45.23654" lon="6.05315">
        <ele>2636.4</ele>
        <time>2021-03-23T12:25:42Z</time>
      </trkpt>
      <trkpt lat="45.23661" lon="6.05308">
        <ele>2638.1</ele>
        <time>2021-03-23T12:25:50Z</time>
      </trkpt>
      <trkpt lat="45.23663" lon="6.05305">
        <ele>2638.7</ele>
        <time>2021-03-23T12:25:56Z</time>
      </trkpt>
      <trkpt lat="45.23662" lon="6.05304">
        <ele>2638.9</ele>
        <time>2021-03-23T12:25:59Z</time>
      </trkpt>
      <trkpt lat="45.23662" lon="6.05321">
        <ele>2641.1</ele>
        <time>2021-03-23T12:26:33Z</time>
      </trkpt>
      <trkpt lat="45.23666" lon="6.05319">
        <ele>2642.1</ele>
        <time>2021-03-23T12:27:12Z</time>
      </trkpt>
      <trkpt lat="45.23671" lon="6.05308">
        <ele>2643.7</ele>
        <time>2021-03-23T12:27:27Z</time>
      </trkpt>
      <trkpt lat="45.23672" lon="6.05308">
        <ele>2643.9</ele>
        <time>2021-03-23T12:27:31Z</time>
      </trkpt>
      <trkpt lat="45.23672" lon="6.05316">
        <ele>2644.9</ele>
        <time>2021-03-23T12:27:43Z</time>
      </trkpt>
      <trkpt lat="45.23675" lon="6.05327">
        <ele>2646.2</ele>
        <time>2021-03-23T12:27:53Z</time>
      </trkpt>
      <trkpt lat="45.23677" lon="6.05323">
        <ele>2646.8</ele>
        <time>2021-03-23T12:28:09Z</time>
      </trkpt>
      <trkpt lat="45.23684" lon="6.05316">
        <ele>2648.3</ele>
        <time>2021-03-23T12:28:26Z</time>
      </trkpt>
      <trkpt lat="45.23682" lon="6.05312">
        <ele>2648.8</ele>
        <time>2021-03-23T12:28:33Z</time>
      </trkpt>
      <trkpt lat="45.23684" lon="6.05321">
        <ele>2649.7</ele>
        <time>2021-03-23T12:28:43Z</time>
      </trkpt>
      <trkpt lat="45.23682" lon="6.05331">
        <ele>2650.9</ele>
        <time>2021-03-23T12:28:54Z</time>
      </trkpt>
      <trkpt lat="45.23682" lon="6.0533">
        <ele>2651.1</ele>
        <time>2021-03-23T12:28:59Z</time>
      </trkpt>
      <trkpt lat="45.23681" lon="6.05331">
        <ele>2651.3</ele>
        <time>2021-03-23T12:29:04Z</time>
      </trkpt>
      <trkpt lat="45.23689" lon="6.05328">
        <ele>2652.6</ele>
        <time>2021-03-23T12:29:14Z</time>
      </trkpt>
      <trkpt lat="45.23692" lon="6.05321">
        <ele>2653.5</ele>
        <time>2021-03-23T12:29:25Z</time>
      </trkpt>
      <trkpt lat="45.23691" lon="6.05316">
        <ele>2654.2</ele>
        <time>2021-03-23T12:29:29Z</time>
      </trkpt>
      <trkpt lat="45.2369" lon="6.05319">
        <ele>2654.7</ele>
        <time>2021-03-23T12:29:35Z</time>
      </trkpt>
      <trkpt lat="45.23693" lon="6.05322">
        <ele>2655.3</ele>
        <time>2021-03-23T12:29:51Z</time>
      </trkpt>
      <trkpt lat="45.23694" lon="6.05332">
        <ele>2656.4</ele>
        <time>2021-03-23T12:29:59Z</time>
      </trkpt>
      <trkpt lat="45.237" lon="6.05325">
        <ele>2657.9</ele>
        <time>2021-03-23T12:30:14Z</time>
      </trkpt>
      <trkpt lat="45.23698" lon="6.05327">
        <ele>2658.5</ele>
        <time>2021-03-23T12:30:21Z</time>
      </trkpt>
      <trkpt lat="45.237" lon="6.05334">
        <ele>2659.4</ele>
        <time>2021-03-23T12:30:41Z</time>
      </trkpt>
      <trkpt lat="45.23696" lon="6.05333">
        <ele>2660.1</ele>
        <time>2021-03-23T12:30:52Z</time>
      </trkpt>
      <trkpt lat="45.23698" lon="6.0533">
        <ele>2660.6</ele>
        <time>2021-03-23T12:30:56Z</time>
      </trkpt>
      <trkpt lat="45.23697" lon="6.05328">
        <ele>2660.9</ele>
        <time>2021-03-23T12:31:00Z</time>
      </trkpt>
      <trkpt lat="45.23696" lon="6.05332">
        <ele>2661.5</ele>
        <time>2021-03-23T12:31:08Z</time>
      </trkpt>
      <trkpt lat="45.23692" lon="6.05332">
        <ele>2662.4</ele>
        <time>2021-03-23T12:31:20Z</time>
      </trkpt>
      <trkpt lat="45.23694" lon="6.05341">
        <ele>2663.9</ele>
        <time>2021-03-23T12:31:40Z</time>
      </trkpt>
      <trkpt lat="45.23702" lon="6.05336">
        <ele>2665.7</ele>
        <time>2021-03-23T12:32:19Z</time>
      </trkpt>
      <trkpt lat="45.23703" lon="6.0534">
        <ele>2666.4</ele>
        <time>2021-03-23T12:32:49Z</time>
      </trkpt>
      <trkpt lat="45.23702" lon="6.05339">
        <ele>2666.6</ele>
        <time>2021-03-23T12:33:06Z</time>
      </trkpt>
      <trkpt lat="45.23703" lon="6.05338">
        <ele>2667</ele>
        <time>2021-03-23T12:34:38Z</time>
      </trkpt>
      <trkpt lat="45.23703" lon="6.05343">
        <ele>2667.9</ele>
        <time>2021-03-23T12:36:07Z</time>
      </trkpt>
      <trkpt lat="45.23707" lon="6.0535">
        <ele>2669.7</ele>
        <time>2021-03-23T12:37:35Z</time>
      </trkpt>
      <trkpt lat="45.23705" lon="6.05347">
        <ele>2669.8</ele>
        <time>2021-03-23T12:37:51Z</time>
      </trkpt>
      <trkpt lat="45.23707" lon="6.05347">
        <ele>2669.9</ele>
        <time>2021-03-23T12:38:19Z</time>
      </trkpt>
      <trkpt lat="45.23704" lon="6.05351">
        <ele>2670</ele>
        <time>2021-03-23T12:38:34Z</time>
      </trkpt>
      <trkpt lat="45.23698" lon="6.0535">
        <ele>2670.2</ele>
        <time>2021-03-23T12:38:55Z</time>
      </trkpt>
      <trkpt lat="45.23698" lon="6.05353">
        <ele>2670.2</ele>
        <time>2021-03-23T12:39:05Z</time>
      </trkpt>
      <trkpt lat="45.23699" lon="6.0535">
        <ele>2670.3</ele>
        <time>2021-03-23T12:39:09Z</time>
      </trkpt>
      <trkpt lat="45.23703" lon="6.05351">
        <ele>2670.4</ele>
        <time>2021-03-23T12:39:27Z</time>
      </trkpt>
      <trkpt lat="45.23698" lon="6.05361">
        <ele>2670.4</ele>
        <time>2021-03-23T12:39:46Z</time>
      </trkpt>
      <trkpt lat="45.23691" lon="6.05367">
        <ele>2670.4</ele>
        <time>2021-03-23T12:40:05Z</time>
      </trkpt>
      <trkpt lat="45.23695" lon="6.05372">
        <ele>2670.3</ele>
        <time>2021-03-23T12:40:19Z</time>
      </trkpt>
      <trkpt lat="45.23691" lon="6.05377">
        <ele>2670.2</ele>
        <time>2021-03-23T12:40:46Z</time>
      </trkpt>
      <trkpt lat="45.23691" lon="6.05381">
        <ele>2670.1</ele>
        <time>2021-03-23T12:40:51Z</time>
      </trkpt>
      <trkpt lat="45.23681" lon="6.05389">
        <ele>2669.8</ele>
        <time>2021-03-23T12:41:14Z</time>
      </trkpt>
      <trkpt lat="45.23685" lon="6.05388">
        <ele>2669.7</ele>
        <time>2021-03-23T12:41:25Z</time>
      </trkpt>
      <trkpt lat="45.23685" lon="6.05389">
        <ele>2669.7</ele>
        <time>2021-03-23T12:41:29Z</time>
      </trkpt>
      <trkpt lat="45.23683" lon="6.05388">
        <ele>2669.6</ele>
        <time>2021-03-23T12:41:37Z</time>
      </trkpt>
      <trkpt lat="45.23679" lon="6.0538">
        <ele>2669.4</ele>
        <time>2021-03-23T12:41:54Z</time>
      </trkpt>
      <trkpt lat="45.23675" lon="6.05382">
        <ele>2669.3</ele>
        <time>2021-03-23T12:42:11Z</time>
      </trkpt>
      <trkpt lat="45.23678" lon="6.05388">
        <ele>2669.1</ele>
        <time>2021-03-23T12:42:21Z</time>
      </trkpt>
      <trkpt lat="45.23683" lon="6.05392">
        <ele>2668.9</ele>
        <time>2021-03-23T12:42:37Z</time>
      </trkpt>
      <trkpt lat="45.23679" lon="6.05384">
        <ele>2668.6</ele>
        <time>2021-03-23T12:43:02Z</time>
      </trkpt>
      <trkpt lat="45.2368" lon="6.05386">
        <ele>2668.4</ele>
        <time>2021-03-23T12:43:25Z</time>
      </trkpt>
      <trkpt lat="45.2368" lon="6.0539">
        <ele>2668.3</ele>
        <time>2021-03-23T12:43:38Z</time>
      </trkpt>
      <trkpt lat="45.23678" lon="6.05393">
        <ele>2668.2</ele>
        <time>2021-03-23T12:44:00Z</time>
      </trkpt>
      <trkpt lat="45.23679" lon="6.05381">
        <ele>2667.8</ele>
        <time>2021-03-23T12:44:17Z</time>
      </trkpt>
      <trkpt lat="45.23676" lon="6.05375">
        <ele>2667.7</ele>
        <time>2021-03-23T12:44:27Z</time>
      </trkpt>
      <trkpt lat="45.23676" lon="6.05371">
        <ele>2667.8</ele>
        <time>2021-03-23T12:44:34Z</time>
      </trkpt>
      <trkpt lat="45.23677" lon="6.05372">
        <ele>2667.8</ele>
        <time>2021-03-23T12:44:45Z</time>
      </trkpt>
      <trkpt lat="45.23676" lon="6.05389">
        <ele>2668</ele>
        <time>2021-03-23T12:45:14Z</time>
      </trkpt>
      <trkpt lat="45.2368" lon="6.05385">
        <ele>2668.3</ele>
        <time>2021-03-23T12:45:32Z</time>
      </trkpt>
      <trkpt lat="45.23682" lon="6.05391">
        <ele>2668.7</ele>
        <time>2021-03-23T12:45:54Z</time>
      </trkpt>
      <trkpt lat="45.2368" lon="6.05391">
        <ele>2668.9</ele>
        <time>2021-03-23T12:46:05Z</time>
      </trkpt>
      <trkpt lat="45.23683" lon="6.0539">
        <ele>2669.2</ele>
        <time>2021-03-23T12:46:18Z</time>
      </trkpt>
      <trkpt lat="45.2369" lon="6.05384">
        <ele>2669.6</ele>
        <time>2021-03-23T12:46:41Z</time>
      </trkpt>
      <trkpt lat="45.23688" lon="6.0539">
        <ele>2670.2</ele>
        <time>2021-03-23T12:47:16Z</time>
      </trkpt>
      <trkpt lat="45.23686" lon="6.05387">
        <ele>2670.4</ele>
        <time>2021-03-23T12:47:37Z</time>
      </trkpt>
      <trkpt lat="45.23682" lon="6.0539">
        <ele>2670.4</ele>
        <time>2021-03-23T12:47:48Z</time>
      </trkpt>
      <trkpt lat="45.23683" lon="6.05392">
        <ele>2670.4</ele>
        <time>2021-03-23T12:47:58Z</time>
      </trkpt>
      <trkpt lat="45.2368" lon="6.05388">
        <ele>2670.4</ele>
        <time>2021-03-23T12:48:27Z</time>
      </trkpt>
      <trkpt lat="45.23681" lon="6.0539">
        <ele>2670.4</ele>
        <time>2021-03-23T12:48:39Z</time>
      </trkpt>
      <trkpt lat="45.23682" lon="6.05388">
        <ele>2670.4</ele>
        <time>2021-03-23T12:48:48Z</time>
      </trkpt>
      <trkpt lat="45.2368" lon="6.05387">
        <ele>2670.4</ele>
        <time>2021-03-23T12:49:00Z</time>
      </trkpt>
      <trkpt lat="45.23683" lon="6.05387">
        <ele>2670.4</ele>
        <time>2021-03-23T12:49:14Z</time>
      </trkpt>
      <trkpt lat="45.23683" lon="6.05386">
        <ele>2670.4</ele>
        <time>2021-03-23T12:49:20Z</time>
      </trkpt>
      <trkpt lat="45.23681" lon="6.05386">
        <ele>2670.4</ele>
        <time>2021-03-23T12:49:31Z</time>
      </trkpt>
      <trkpt lat="45.23686" lon="6.05392">
        <ele>2670.4</ele>
        <time>2021-03-23T12:49:55Z</time>
      </trkpt>
      <trkpt lat="45.23687" lon="6.05391">
        <ele>2670.4</ele>
        <time>2021-03-23T12:50:02Z</time>
      </trkpt>
      <trkpt lat="45.23686" lon="6.05393">
        <ele>2670.4</ele>
        <time>2021-03-23T12:50:23Z</time>
      </trkpt>
      <trkpt lat="45.23685" lon="6.0539">
        <ele>2670.4</ele>
        <time>2021-03-23T12:50:28Z</time>
      </trkpt>
      <trkpt lat="45.23681" lon="6.05388">
        <ele>2670.3</ele>
        <time>2021-03-23T12:50:42Z</time>
      </trkpt>
      <trkpt lat="45.23685" lon="6.05395">
        <ele>2670.3</ele>
        <time>2021-03-23T12:51:16Z</time>
      </trkpt>
      <trkpt lat="45.23683" lon="6.0539">
        <ele>2670.3</ele>
        <time>2021-03-23T12:51:26Z</time>
      </trkpt>
      <trkpt lat="45.23688" lon="6.05385">
        <ele>2670.2</ele>
        <time>2021-03-23T12:51:30Z</time>
      </trkpt>
      <trkpt lat="45.23687" lon="6.0538">
        <ele>2670.2</ele>
        <time>2021-03-23T12:51:34Z</time>
      </trkpt>
      <trkpt lat="45.23693" lon="6.05375">
        <ele>2670.2</ele>
        <time>2021-03-23T12:51:39Z</time>
      </trkpt>
      <trkpt lat="45.23691" lon="6.05369">
        <ele>2670.2</ele>
        <time>2021-03-23T12:51:46Z</time>
      </trkpt>
      <trkpt lat="45.23693" lon="6.05368">
        <ele>2670.2</ele>
        <time>2021-03-23T12:51:48Z</time>
      </trkpt>
      <trkpt lat="45.23693" lon="6.05364">
        <ele>2670.1</ele>
        <time>2021-03-23T12:51:53Z</time>
      </trkpt>
      <trkpt lat="45.23695" lon="6.05364">
        <ele>2670.1</ele>
        <time>2021-03-23T12:51:59Z</time>
      </trkpt>
      <trkpt lat="45.23699" lon="6.05358">
        <ele>2670.1</ele>
        <time>2021-03-23T12:52:09Z</time>
      </trkpt>
      <trkpt lat="45.237" lon="6.0535">
        <ele>2670.1</ele>
        <time>2021-03-23T12:52:37Z</time>
      </trkpt>
      <trkpt lat="45.23696" lon="6.05351">
        <ele>2670</ele>
        <time>2021-03-23T12:52:40Z</time>
      </trkpt>
      <trkpt lat="45.23697" lon="6.05348">
        <ele>2670</ele>
        <time>2021-03-23T12:52:44Z</time>
      </trkpt>
      <trkpt lat="45.23697" lon="6.05342">
        <ele>2664.9</ele>
        <time>2021-03-23T12:52:49Z</time>
      </trkpt>
      <trkpt lat="45.23696" lon="6.05339">
        <ele>2664.3</ele>
        <time>2021-03-23T12:52:50Z</time>
      </trkpt>
      <trkpt lat="45.23689" lon="6.05336">
        <ele>2662.7</ele>
        <time>2021-03-23T12:52:54Z</time>
      </trkpt>
      <trkpt lat="45.23692" lon="6.05319">
        <ele>2659.7</ele>
        <time>2021-03-23T12:53:03Z</time>
      </trkpt>
      <trkpt lat="45.23693" lon="6.0532">
        <ele>2659.3</ele>
        <time>2021-03-23T12:53:07Z</time>
      </trkpt>
      <trkpt lat="45.23692" lon="6.05317">
        <ele>2658.7</ele>
        <time>2021-03-23T12:53:09Z</time>
      </trkpt>
      <trkpt lat="45.23687" lon="6.05327">
        <ele>2656.7</ele>
        <time>2021-03-23T12:53:15Z</time>
      </trkpt>
      <trkpt lat="45.23685" lon="6.05316">
        <ele>2655.1</ele>
        <time>2021-03-23T12:53:19Z</time>
      </trkpt>
      <trkpt lat="45.23682" lon="6.05315">
        <ele>2654.5</ele>
        <time>2021-03-23T12:53:21Z</time>
      </trkpt>
      <trkpt lat="45.23681" lon="6.05319">
        <ele>2653.8</ele>
        <time>2021-03-23T12:53:23Z</time>
      </trkpt>
      <trkpt lat="45.23677" lon="6.0532">
        <ele>2653</ele>
        <time>2021-03-23T12:53:25Z</time>
      </trkpt>
      <trkpt lat="45.23674" lon="6.05312">
        <ele>2651.7</ele>
        <time>2021-03-23T12:53:28Z</time>
      </trkpt>
      <trkpt lat="45.23663" lon="6.0532">
        <ele>2649.4</ele>
        <time>2021-03-23T12:53:32Z</time>
      </trkpt>
      <trkpt lat="45.23666" lon="6.0532">
        <ele>2648.9</ele>
        <time>2021-03-23T12:53:34Z</time>
      </trkpt>
      <trkpt lat="45.23656" lon="6.05325">
        <ele>2646.7</ele>
        <time>2021-03-23T12:53:40Z</time>
      </trkpt>
      <trkpt lat="45.23651" lon="6.05324">
        <ele>2645.9</ele>
        <time>2021-03-23T12:53:42Z</time>
      </trkpt>
      <trkpt lat="45.2365" lon="6.05318">
        <ele>2644.9</ele>
        <time>2021-03-23T12:53:44Z</time>
      </trkpt>
      <trkpt lat="45.23642" lon="6.0531">
        <ele>2643</ele>
        <time>2021-03-23T12:53:47Z</time>
      </trkpt>
      <trkpt lat="45.23637" lon="6.05309">
        <ele>2642.1</ele>
        <time>2021-03-23T12:53:49Z</time>
      </trkpt>
      <trkpt lat="45.2364" lon="6.05305">
        <ele>2641.4</ele>
        <time>2021-03-23T12:53:51Z</time>
      </trkpt>
      <trkpt lat="45.2364" lon="6.05311">
        <ele>2640.5</ele>
        <time>2021-03-23T12:53:56Z</time>
      </trkpt>
      <trkpt lat="45.23634" lon="6.05313">
        <ele>2639.2</ele>
        <time>2021-03-23T12:54:00Z</time>
      </trkpt>
      <trkpt lat="45.23635" lon="6.053">
        <ele>2637.2</ele>
        <time>2021-03-23T12:54:03Z</time>
      </trkpt>
      <trkpt lat="45.2363" lon="6.05301">
        <ele>2636</ele>
        <time>2021-03-23T12:54:05Z</time>
      </trkpt>
      <trkpt lat="45.23622" lon="6.05311">
        <ele>2633.3</ele>
        <time>2021-03-23T12:54:09Z</time>
      </trkpt>
      <trkpt lat="45.23618" lon="6.05311">
        <ele>2632.3</ele>
        <time>2021-03-23T12:54:11Z</time>
      </trkpt>
      <trkpt lat="45.23618" lon="6.05305">
        <ele>2631.3</ele>
        <time>2021-03-23T12:54:12Z</time>
      </trkpt>
      <trkpt lat="45.23623" lon="6.05285">
        <ele>2627.4</ele>
        <time>2021-03-23T12:54:16Z</time>
      </trkpt>
      <trkpt lat="45.2362" lon="6.05277">
        <ele>2625.7</ele>
        <time>2021-03-23T12:54:18Z</time>
      </trkpt>
      <trkpt lat="45.23617" lon="6.05279">
        <ele>2623.1</ele>
        <time>2021-03-23T12:54:19Z</time>
      </trkpt>
      <trkpt lat="45.23598" lon="6.05308">
        <ele>2606.6</ele>
        <time>2021-03-23T12:54:25Z</time>
      </trkpt>
      <trkpt lat="45.23585" lon="6.0533">
        <ele>2597.2</ele>
        <time>2021-03-23T12:54:29Z</time>
      </trkpt>
      <trkpt lat="45.23577" lon="6.05337">
        <ele>2594</ele>
        <time>2021-03-23T12:54:31Z</time>
      </trkpt>
      <trkpt lat="45.23562" lon="6.05345">
        <ele>2588.2</ele>
        <time>2021-03-23T12:54:35Z</time>
      </trkpt>
      <trkpt lat="45.2354" lon="6.05356">
        <ele>2585.2</ele>
        <time>2021-03-23T12:54:42Z</time>
      </trkpt>
      <trkpt lat="45.23534" lon="6.05359">
        <ele>2582.4</ele>
        <time>2021-03-23T12:54:44Z</time>
      </trkpt>
      <trkpt lat="45.23515" lon="6.0537">
        <ele>2583.7</ele>
        <time>2021-03-23T12:54:49Z</time>
      </trkpt>
      <trkpt lat="45.23508" lon="6.05372">
        <ele>2582.6</ele>
        <time>2021-03-23T12:54:51Z</time>
      </trkpt>
      <trkpt lat="45.23504" lon="6.05373">
        <ele>2584.2</ele>
        <time>2021-03-23T12:54:52Z</time>
      </trkpt>
      <trkpt lat="45.23493" lon="6.05376">
        <ele>2582.1</ele>
        <time>2021-03-23T12:54:55Z</time>
      </trkpt>
      <trkpt lat="45.23485" lon="6.05373">
        <ele>2581</ele>
        <time>2021-03-23T12:54:57Z</time>
      </trkpt>
      <trkpt lat="45.23479" lon="6.05364">
        <ele>2573.3</ele>
        <time>2021-03-23T12:54:59Z</time>
      </trkpt>
      <trkpt lat="45.23477" lon="6.05349">
        <ele>2566.5</ele>
        <time>2021-03-23T12:55:01Z</time>
      </trkpt>
      <trkpt lat="45.23474" lon="6.05342">
        <ele>2561.4</ele>
        <time>2021-03-23T12:55:02Z</time>
      </trkpt>
      <trkpt lat="45.23472" lon="6.05334">
        <ele>2559.1</ele>
        <time>2021-03-23T12:55:03Z</time>
      </trkpt>
      <trkpt lat="45.2346" lon="6.05313">
        <ele>2548.8</ele>
        <time>2021-03-23T12:55:07Z</time>
      </trkpt>
      <trkpt lat="45.23455" lon="6.05306">
        <ele>2545.8</ele>
        <time>2021-03-23T12:55:09Z</time>
      </trkpt>
      <trkpt lat="45.23453" lon="6.05307">
        <ele>2545.8</ele>
        <time>2021-03-23T12:55:11Z</time>
      </trkpt>
      <trkpt lat="45.23454" lon="6.0531">
        <ele>2547.2</ele>
        <time>2021-03-23T12:55:14Z</time>
      </trkpt>
      <trkpt lat="45.2345" lon="6.05248">
        <ele>2528.3</ele>
        <time>2021-03-23T12:55:24Z</time>
      </trkpt>
      <trkpt lat="45.2344" lon="6.05212">
        <ele>2517.4</ele>
        <time>2021-03-23T12:55:29Z</time>
      </trkpt>
      <trkpt lat="45.23435" lon="6.05199">
        <ele>2513.4</ele>
        <time>2021-03-23T12:55:31Z</time>
      </trkpt>
      <trkpt lat="45.23426" lon="6.05192">
        <ele>2510.5</ele>
        <time>2021-03-23T12:55:33Z</time>
      </trkpt>
      <trkpt lat="45.23417" lon="6.05189">
        <ele>2510.1</ele>
        <time>2021-03-23T12:55:35Z</time>
      </trkpt>
      <trkpt lat="45.23409" lon="6.05184">
        <ele>2508.1</ele>
        <time>2021-03-23T12:55:37Z</time>
      </trkpt>
      <trkpt lat="45.23385" lon="6.05162">
        <ele>2497.5</ele>
        <time>2021-03-23T12:55:42Z</time>
      </trkpt>
      <trkpt lat="45.23366" lon="6.0515">
        <ele>2491</ele>
        <time>2021-03-23T12:55:45Z</time>
      </trkpt>
      <trkpt lat="45.23355" lon="6.0514">
        <ele>2483</ele>
        <time>2021-03-23T12:55:48Z</time>
      </trkpt>
      <trkpt lat="45.23351" lon="6.05134">
        <ele>2480.8</ele>
        <time>2021-03-23T12:55:51Z</time>
      </trkpt>
      <trkpt lat="45.23336" lon="6.05081">
        <ele>2461.6</ele>
        <time>2021-03-23T12:56:04Z</time>
      </trkpt>
      <trkpt lat="45.23324" lon="6.05071">
        <ele>2456.2</ele>
        <time>2021-03-23T12:56:06Z</time>
      </trkpt>
      <trkpt lat="45.2332" lon="6.05065">
        <ele>2454.4</ele>
        <time>2021-03-23T12:56:07Z</time>
      </trkpt>
      <trkpt lat="45.23314" lon="6.05051">
        <ele>2449.8</ele>
        <time>2021-03-23T12:56:09Z</time>
      </trkpt>
      <trkpt lat="45.23312" lon="6.05033">
        <ele>2444.4</ele>
        <time>2021-03-23T12:56:11Z</time>
      </trkpt>
      <trkpt lat="45.23312" lon="6.05001">
        <ele>2440.3</ele>
        <time>2021-03-23T12:56:14Z</time>
      </trkpt>
      <trkpt lat="45.23306" lon="6.04977">
        <ele>2437.4</ele>
        <time>2021-03-23T12:56:17Z</time>
      </trkpt>
      <trkpt lat="45.23297" lon="6.04955">
        <ele>2434.5</ele>
        <time>2021-03-23T12:56:21Z</time>
      </trkpt>
      <trkpt lat="45.23291" lon="6.04919">
        <ele>2432.2</ele>
        <time>2021-03-23T12:56:24Z</time>
      </trkpt>
      <trkpt lat="45.23291" lon="6.04886">
        <ele>2430.2</ele>
        <time>2021-03-23T12:56:27Z</time>
      </trkpt>
      <trkpt lat="45.23294" lon="6.04867">
        <ele>2429.7</ele>
        <time>2021-03-23T12:56:31Z</time>
      </trkpt>
      <trkpt lat="45.23297" lon="6.04856">
        <ele>2429.7</ele>
        <time>2021-03-23T12:56:56Z</time>
      </trkpt>
      <trkpt lat="45.23295" lon="6.04836">
        <ele>2427.8</ele>
        <time>2021-03-23T12:56:59Z</time>
      </trkpt>
      <trkpt lat="45.23286" lon="6.04797">
        <ele>2421.3</ele>
        <time>2021-03-23T12:57:05Z</time>
      </trkpt>
      <trkpt lat="45.23276" lon="6.04791">
        <ele>2417.5</ele>
        <time>2021-03-23T12:57:07Z</time>
      </trkpt>
      <trkpt lat="45.23269" lon="6.0478">
        <ele>2413.6</ele>
        <time>2021-03-23T12:57:09Z</time>
      </trkpt>
      <trkpt lat="45.23279" lon="6.04745">
        <ele>2411.5</ele>
        <time>2021-03-23T12:57:13Z</time>
      </trkpt>
      <trkpt lat="45.23281" lon="6.04728">
        <ele>2409.8</ele>
        <time>2021-03-23T12:57:15Z</time>
      </trkpt>
      <trkpt lat="45.23276" lon="6.04692">
        <ele>2401.1</ele>
        <time>2021-03-23T12:57:21Z</time>
      </trkpt>
      <trkpt lat="45.23267" lon="6.04676">
        <ele>2395.8</ele>
        <time>2021-03-23T12:57:24Z</time>
      </trkpt>
      <trkpt lat="45.2325" lon="6.04661">
        <ele>2390</ele>
        <time>2021-03-23T12:57:29Z</time>
      </trkpt>
      <trkpt lat="45.23246" lon="6.04659">
        <ele>2387.1</ele>
        <time>2021-03-23T12:57:30Z</time>
      </trkpt>
      <trkpt lat="45.23228" lon="6.04659">
        <ele>2381.6</ele>
        <time>2021-03-23T12:57:35Z</time>
      </trkpt>
      <trkpt lat="45.23207" lon="6.04664">
        <ele>2376.7</ele>
        <time>2021-03-23T12:57:38Z</time>
      </trkpt>
      <trkpt lat="45.232" lon="6.04663">
        <ele>2375.3</ele>
        <time>2021-03-23T12:57:39Z</time>
      </trkpt>
      <trkpt lat="45.23187" lon="6.04659">
        <ele>2370.1</ele>
        <time>2021-03-23T12:57:41Z</time>
      </trkpt>
      <trkpt lat="45.23178" lon="6.04654">
        <ele>2367.2</ele>
        <time>2021-03-23T12:57:43Z</time>
      </trkpt>
      <trkpt lat="45.23173" lon="6.04645">
        <ele>2362.3</ele>
        <time>2021-03-23T12:57:45Z</time>
      </trkpt>
      <trkpt lat="45.23167" lon="6.04645">
        <ele>2360.5</ele>
        <time>2021-03-23T12:57:47Z</time>
      </trkpt>
      <trkpt lat="45.23166" lon="6.04642">
        <ele>2358.8</ele>
        <time>2021-03-23T12:57:49Z</time>
      </trkpt>
      <trkpt lat="45.23167" lon="6.04643">
        <ele>2360.5</ele>
        <time>2021-03-23T12:57:56Z</time>
      </trkpt>
      <trkpt lat="45.23182" lon="6.04595">
        <ele>2344.7</ele>
        <time>2021-03-23T12:58:28Z</time>
      </trkpt>
      <trkpt lat="45.23193" lon="6.04567">
        <ele>2338.2</ele>
        <time>2021-03-23T12:58:38Z</time>
      </trkpt>
      <trkpt lat="45.23189" lon="6.04565">
        <ele>2334.7</ele>
        <time>2021-03-23T12:58:47Z</time>
      </trkpt>
      <trkpt lat="45.23176" lon="6.04557">
        <ele>2327.8</ele>
        <time>2021-03-23T12:58:51Z</time>
      </trkpt>
      <trkpt lat="45.23168" lon="6.04557">
        <ele>2325.4</ele>
        <time>2021-03-23T12:58:53Z</time>
      </trkpt>
      <trkpt lat="45.23161" lon="6.04552">
        <ele>2321.9</ele>
        <time>2021-03-23T12:58:55Z</time>
      </trkpt>
      <trkpt lat="45.23159" lon="6.04548">
        <ele>2319.4</ele>
        <time>2021-03-23T12:58:56Z</time>
      </trkpt>
      <trkpt lat="45.23158" lon="6.04535">
        <ele>2314.9</ele>
        <time>2021-03-23T12:58:58Z</time>
      </trkpt>
      <trkpt lat="45.23156" lon="6.04533">
        <ele>2314.2</ele>
        <time>2021-03-23T12:58:59Z</time>
      </trkpt>
      <trkpt lat="45.23145" lon="6.04539">
        <ele>2313.7</ele>
        <time>2021-03-23T12:59:03Z</time>
      </trkpt>
      <trkpt lat="45.23144" lon="6.04531">
        <ele>2312.2</ele>
        <time>2021-03-23T12:59:16Z</time>
      </trkpt>
      <trkpt lat="45.23144" lon="6.04529">
        <ele>2310.1</ele>
        <time>2021-03-23T12:59:19Z</time>
      </trkpt>
      <trkpt lat="45.23136" lon="6.0451">
        <ele>2302.4</ele>
        <time>2021-03-23T12:59:23Z</time>
      </trkpt>
      <trkpt lat="45.23135" lon="6.04505">
        <ele>2298.3</ele>
        <time>2021-03-23T12:59:24Z</time>
      </trkpt>
      <trkpt lat="45.23126" lon="6.04502">
        <ele>2296.6</ele>
        <time>2021-03-23T12:59:27Z</time>
      </trkpt>
      <trkpt lat="45.23121" lon="6.04495">
        <ele>2292.5</ele>
        <time>2021-03-23T12:59:29Z</time>
      </trkpt>
      <trkpt lat="45.2312" lon="6.0449">
        <ele>2290.8</ele>
        <time>2021-03-23T12:59:30Z</time>
      </trkpt>
      <trkpt lat="45.2312" lon="6.04488">
        <ele>2288.5</ele>
        <time>2021-03-23T12:59:31Z</time>
      </trkpt>
      <trkpt lat="45.23119" lon="6.04482">
        <ele>2286.6</ele>
        <time>2021-03-23T12:59:33Z</time>
      </trkpt>
      <trkpt lat="45.2312" lon="6.0448">
        <ele>2287.3</ele>
        <time>2021-03-23T12:59:36Z</time>
      </trkpt>
      <trkpt lat="45.2312" lon="6.04482">
        <ele>2287.3</ele>
        <time>2021-03-23T12:59:46Z</time>
      </trkpt>
      <trkpt lat="45.23131" lon="6.04464">
        <ele>2280.9</ele>
        <time>2021-03-23T13:00:11Z</time>
      </trkpt>
      <trkpt lat="45.23141" lon="6.04452">
        <ele>2276.7</ele>
        <time>2021-03-23T13:00:14Z</time>
      </trkpt>
      <trkpt lat="45.23147" lon="6.04441">
        <ele>2271.5</ele>
        <time>2021-03-23T13:00:16Z</time>
      </trkpt>
      <trkpt lat="45.23146" lon="6.04433">
        <ele>2269.1</ele>
        <time>2021-03-23T13:00:17Z</time>
      </trkpt>
      <trkpt lat="45.23143" lon="6.0442">
        <ele>2258.6</ele>
        <time>2021-03-23T13:00:19Z</time>
      </trkpt>
      <trkpt lat="45.23134" lon="6.04381">
        <ele>2237.6</ele>
        <time>2021-03-23T13:00:25Z</time>
      </trkpt>
      <trkpt lat="45.23131" lon="6.0435">
        <ele>2218.7</ele>
        <time>2021-03-23T13:00:31Z</time>
      </trkpt>
      <trkpt lat="45.23121" lon="6.04323">
        <ele>2202.3</ele>
        <time>2021-03-23T13:00:37Z</time>
      </trkpt>
      <trkpt lat="45.23122" lon="6.04319">
        <ele>2200.3</ele>
        <time>2021-03-23T13:00:38Z</time>
      </trkpt>
      <trkpt lat="45.23128" lon="6.04317">
        <ele>2201.9</ele>
        <time>2021-03-23T13:00:40Z</time>
      </trkpt>
      <trkpt lat="45.23129" lon="6.04318">
        <ele>2201.9</ele>
        <time>2021-03-23T13:00:41Z</time>
      </trkpt>
      <trkpt lat="45.23129" lon="6.0432">
        <ele>2202.9</ele>
        <time>2021-03-23T13:00:46Z</time>
      </trkpt>
      <trkpt lat="45.23131" lon="6.04317">
        <ele>2202.9</ele>
        <time>2021-03-23T13:00:53Z</time>
      </trkpt>
      <trkpt lat="45.23131" lon="6.04316">
        <ele>2200.9</ele>
        <time>2021-03-23T13:00:55Z</time>
      </trkpt>
      <trkpt lat="45.23133" lon="6.04313">
        <ele>2202</ele>
        <time>2021-03-23T13:01:03Z</time>
      </trkpt>
      <trkpt lat="45.23133" lon="6.04312">
        <ele>2200.1</ele>
        <time>2021-03-23T13:01:05Z</time>
      </trkpt>
      <trkpt lat="45.23147" lon="6.04286">
        <ele>2194.7</ele>
        <time>2021-03-23T13:01:11Z</time>
      </trkpt>
      <trkpt lat="45.23155" lon="6.04266">
        <ele>2190.7</ele>
        <time>2021-03-23T13:01:15Z</time>
      </trkpt>
      <trkpt lat="45.23156" lon="6.0426">
        <ele>2188</ele>
        <time>2021-03-23T13:01:16Z</time>
      </trkpt>
      <trkpt lat="45.23162" lon="6.04238">
        <ele>2182.7</ele>
        <time>2021-03-23T13:01:20Z</time>
      </trkpt>
      <trkpt lat="45.23164" lon="6.04232">
        <ele>2182.8</ele>
        <time>2021-03-23T13:01:21Z</time>
      </trkpt>
      <trkpt lat="45.23165" lon="6.04226">
        <ele>2180.3</ele>
        <time>2021-03-23T13:01:22Z</time>
      </trkpt>
      <trkpt lat="45.23169" lon="6.04215">
        <ele>2180.8</ele>
        <time>2021-03-23T13:01:24Z</time>
      </trkpt>
      <trkpt lat="45.23178" lon="6.04195">
        <ele>2179.3</ele>
        <time>2021-03-23T13:01:28Z</time>
      </trkpt>
      <trkpt lat="45.23194" lon="6.0415">
        <ele>2179.8</ele>
        <time>2021-03-23T13:01:33Z</time>
      </trkpt>
      <trkpt lat="45.23196" lon="6.0414">
        <ele>2178.4</ele>
        <time>2021-03-23T13:01:34Z</time>
      </trkpt>
      <trkpt lat="45.23196" lon="6.04133">
        <ele>2179.8</ele>
        <time>2021-03-23T13:01:35Z</time>
      </trkpt>
      <trkpt lat="45.23197" lon="6.04104">
        <ele>2178.5</ele>
        <time>2021-03-23T13:01:39Z</time>
      </trkpt>
      <trkpt lat="45.23192" lon="6.04086">
        <ele>2175.9</ele>
        <time>2021-03-23T13:01:42Z</time>
      </trkpt>
      <trkpt lat="45.23186" lon="6.04071">
        <ele>2175</ele>
        <time>2021-03-23T13:01:44Z</time>
      </trkpt>
      <trkpt lat="45.23184" lon="6.04051">
        <ele>2177.7</ele>
        <time>2021-03-23T13:01:49Z</time>
      </trkpt>
      <trkpt lat="45.23182" lon="6.04055">
        <ele>2175.9</ele>
        <time>2021-03-23T13:07:11Z</time>
      </trkpt>
      <trkpt lat="45.23184" lon="6.04055">
        <ele>2177.7</ele>
        <time>2021-03-23T13:08:09Z</time>
      </trkpt>
      <trkpt lat="45.23183" lon="6.04055">
        <ele>2175.9</ele>
        <time>2021-03-23T13:08:43Z</time>
      </trkpt>
      <trkpt lat="45.23184" lon="6.04058">
        <ele>2177</ele>
        <time>2021-03-23T13:09:34Z</time>
      </trkpt>
      <trkpt lat="45.23184" lon="6.04058">
        <ele>2175.9</ele>
        <time>2021-03-23T13:09:39Z</time>
      </trkpt>
      <trkpt lat="45.23187" lon="6.04058">
        <ele>2178</ele>
        <time>2021-03-23T13:09:59Z</time>
      </trkpt>
      <trkpt lat="45.23195" lon="6.04046">
        <ele>2182.6</ele>
        <time>2021-03-23T13:10:11Z</time>
      </trkpt>
      <trkpt lat="45.23199" lon="6.04038">
        <ele>2184.7</ele>
        <time>2021-03-23T13:10:27Z</time>
      </trkpt>
      <trkpt lat="45.23199" lon="6.04038">
        <ele>2186.9</ele>
        <time>2021-03-23T13:10:28Z</time>
      </trkpt>
      <trkpt lat="45.23204" lon="6.04025">
        <ele>2190</ele>
        <time>2021-03-23T13:11:07Z</time>
      </trkpt>
      <trkpt lat="45.23205" lon="6.04024">
        <ele>2192.3</ele>
        <time>2021-03-23T13:11:08Z</time>
      </trkpt>
      <trkpt lat="45.23207" lon="6.04018">
        <ele>2193.3</ele>
        <time>2021-03-23T13:11:13Z</time>
      </trkpt>
      <trkpt lat="45.2321" lon="6.04011">
        <ele>2196.6</ele>
        <time>2021-03-23T13:11:16Z</time>
      </trkpt>
      <trkpt lat="45.23211" lon="6.04004">
        <ele>2197.7</ele>
        <time>2021-03-23T13:11:20Z</time>
      </trkpt>
      <trkpt lat="45.23211" lon="6.04003">
        <ele>2199.9</ele>
        <time>2021-03-23T13:11:22Z</time>
      </trkpt>
      <trkpt lat="45.23213" lon="6.03999">
        <ele>2199.9</ele>
        <time>2021-03-23T13:11:32Z</time>
      </trkpt>
      <trkpt lat="45.23214" lon="6.03997">
        <ele>2202.2</ele>
        <time>2021-03-23T13:11:35Z</time>
      </trkpt>
      <trkpt lat="45.23216" lon="6.03995">
        <ele>2202.2</ele>
        <time>2021-03-23T13:11:40Z</time>
      </trkpt>
      <trkpt lat="45.23219" lon="6.0399">
        <ele>2205.8</ele>
        <time>2021-03-23T13:11:50Z</time>
      </trkpt>
      <trkpt lat="45.23218" lon="6.03983">
        <ele>2206.9</ele>
        <time>2021-03-23T13:11:58Z</time>
      </trkpt>
      <trkpt lat="45.23217" lon="6.03978">
        <ele>2209.2</ele>
        <time>2021-03-23T13:12:06Z</time>
      </trkpt>
      <trkpt lat="45.23216" lon="6.03974">
        <ele>2207.7</ele>
        <time>2021-03-23T13:12:09Z</time>
      </trkpt>
      <trkpt lat="45.23215" lon="6.03965">
        <ele>2210.1</ele>
        <time>2021-03-23T13:12:24Z</time>
      </trkpt>
      <trkpt lat="45.23216" lon="6.03945">
        <ele>2215.9</ele>
        <time>2021-03-23T13:13:07Z</time>
      </trkpt>
      <trkpt lat="45.23214" lon="6.03942">
        <ele>2217.1</ele>
        <time>2021-03-23T13:13:16Z</time>
      </trkpt>
      <trkpt lat="45.23213" lon="6.0394">
        <ele>2215.9</ele>
        <time>2021-03-23T13:13:20Z</time>
      </trkpt>
      <trkpt lat="45.23212" lon="6.03935">
        <ele>2218.5</ele>
        <time>2021-03-23T13:13:27Z</time>
      </trkpt>
      <trkpt lat="45.2321" lon="6.03927">
        <ele>2218.6</ele>
        <time>2021-03-23T13:13:37Z</time>
      </trkpt>
      <trkpt lat="45.23209" lon="6.03922">
        <ele>2221.2</ele>
        <time>2021-03-23T13:13:46Z</time>
      </trkpt>
      <trkpt lat="45.23208" lon="6.03918">
        <ele>2221.2</ele>
        <time>2021-03-23T13:13:47Z</time>
      </trkpt>
      <trkpt lat="45.23212" lon="6.03889">
        <ele>2231</ele>
        <time>2021-03-23T13:14:14Z</time>
      </trkpt>
      <trkpt lat="45.2321" lon="6.03883">
        <ele>2232.7</ele>
        <time>2021-03-23T13:14:20Z</time>
      </trkpt>
      <trkpt lat="45.23207" lon="6.03879">
        <ele>2231.3</ele>
        <time>2021-03-23T13:14:30Z</time>
      </trkpt>
      <trkpt lat="45.23205" lon="6.03874">
        <ele>2232.9</ele>
        <time>2021-03-23T13:14:43Z</time>
      </trkpt>
      <trkpt lat="45.23204" lon="6.03872">
        <ele>2231.6</ele>
        <time>2021-03-23T13:14:45Z</time>
      </trkpt>
      <trkpt lat="45.23202" lon="6.03864">
        <ele>2234.1</ele>
        <time>2021-03-23T13:14:51Z</time>
      </trkpt>
      <trkpt lat="45.23202" lon="6.03862">
        <ele>2232.5</ele>
        <time>2021-03-23T13:14:55Z</time>
      </trkpt>
      <trkpt lat="45.23199" lon="6.03853">
        <ele>2236.5</ele>
        <time>2021-03-23T13:15:03Z</time>
      </trkpt>
      <trkpt lat="45.232" lon="6.0385">
        <ele>2235.9</ele>
        <time>2021-03-23T13:15:11Z</time>
      </trkpt>
      <trkpt lat="45.23199" lon="6.03849">
        <ele>2237.3</ele>
        <time>2021-03-23T13:15:13Z</time>
      </trkpt>
      <trkpt lat="45.23198" lon="6.03847">
        <ele>2235.7</ele>
        <time>2021-03-23T13:15:19Z</time>
      </trkpt>
      <trkpt lat="45.23194" lon="6.03842">
        <ele>2235.7</ele>
        <time>2021-03-23T13:15:25Z</time>
      </trkpt>
      <trkpt lat="45.23193" lon="6.03841">
        <ele>2234.3</ele>
        <time>2021-03-23T13:15:26Z</time>
      </trkpt>
      <trkpt lat="45.23191" lon="6.03838">
        <ele>2235.8</ele>
        <time>2021-03-23T13:15:28Z</time>
      </trkpt>
      <trkpt lat="45.23186" lon="6.03832">
        <ele>2235</ele>
        <time>2021-03-23T13:15:33Z</time>
      </trkpt>
      <trkpt lat="45.23182" lon="6.03827">
        <ele>2236.8</ele>
        <time>2021-03-23T13:15:37Z</time>
      </trkpt>
      <trkpt lat="45.23176" lon="6.03811">
        <ele>2238.4</ele>
        <time>2021-03-23T13:15:45Z</time>
      </trkpt>
      <trkpt lat="45.23176" lon="6.03806">
        <ele>2240.4</ele>
        <time>2021-03-23T13:15:57Z</time>
      </trkpt>
      <trkpt lat="45.23173" lon="6.03802">
        <ele>2239.1</ele>
        <time>2021-03-23T13:16:03Z</time>
      </trkpt>
      <trkpt lat="45.23172" lon="6.03801">
        <ele>2240.4</ele>
        <time>2021-03-23T13:16:05Z</time>
      </trkpt>
      <trkpt lat="45.23167" lon="6.03798">
        <ele>2237.7</ele>
        <time>2021-03-23T13:16:19Z</time>
      </trkpt>
      <trkpt lat="45.23166" lon="6.03799">
        <ele>2236.9</ele>
        <time>2021-03-23T13:16:33Z</time>
      </trkpt>
      <trkpt lat="45.2317" lon="6.03794">
        <ele>2238</ele>
        <time>2021-03-23T13:16:53Z</time>
      </trkpt>
      <trkpt lat="45.23173" lon="6.03786">
        <ele>2241.1</ele>
        <time>2021-03-23T13:17:05Z</time>
      </trkpt>
      <trkpt lat="45.23171" lon="6.03785">
        <ele>2239.9</ele>
        <time>2021-03-23T13:17:09Z</time>
      </trkpt>
      <trkpt lat="45.2317" lon="6.03784">
        <ele>2241.1</ele>
        <time>2021-03-23T13:17:13Z</time>
      </trkpt>
      <trkpt lat="45.23168" lon="6.0378">
        <ele>2239.7</ele>
        <time>2021-03-23T13:17:21Z</time>
      </trkpt>
      <trkpt lat="45.23166" lon="6.03771">
        <ele>2242.9</ele>
        <time>2021-03-23T13:17:34Z</time>
      </trkpt>
      <trkpt lat="45.23165" lon="6.03768">
        <ele>2241.9</ele>
        <time>2021-03-23T13:17:39Z</time>
      </trkpt>
      <trkpt lat="45.23163" lon="6.03763">
        <ele>2244.3</ele>
        <time>2021-03-23T13:17:55Z</time>
      </trkpt>
      <trkpt lat="45.23161" lon="6.03759">
        <ele>2243.4</ele>
        <time>2021-03-23T13:18:05Z</time>
      </trkpt>
      <trkpt lat="45.23158" lon="6.03746">
        <ele>2247.6</ele>
        <time>2021-03-23T13:18:17Z</time>
      </trkpt>
      <trkpt lat="45.23155" lon="6.03738">
        <ele>2247.9</ele>
        <time>2021-03-23T13:18:27Z</time>
      </trkpt>
      <trkpt lat="45.23151" lon="6.03724">
        <ele>2251.7</ele>
        <time>2021-03-23T13:18:41Z</time>
      </trkpt>
      <trkpt lat="45.23146" lon="6.03693">
        <ele>2258.4</ele>
        <time>2021-03-23T13:19:25Z</time>
      </trkpt>
      <trkpt lat="45.23144" lon="6.03689">
        <ele>2259.4</ele>
        <time>2021-03-23T13:19:33Z</time>
      </trkpt>
      <trkpt lat="45.23141" lon="6.03688">
        <ele>2257.2</ele>
        <time>2021-03-23T13:19:39Z</time>
      </trkpt>
      <trkpt lat="45.23135" lon="6.03686">
        <ele>2256.9</ele>
        <time>2021-03-23T13:19:49Z</time>
      </trkpt>
      <trkpt lat="45.23132" lon="6.03684">
        <ele>2254.9</ele>
        <time>2021-03-23T13:19:55Z</time>
      </trkpt>
      <trkpt lat="45.23132" lon="6.03681">
        <ele>2256.6</ele>
        <time>2021-03-23T13:20:15Z</time>
      </trkpt>
      <trkpt lat="45.23135" lon="6.03677">
        <ele>2256.6</ele>
        <time>2021-03-23T13:20:30Z</time>
      </trkpt>
      <trkpt lat="45.23135" lon="6.03677">
        <ele>2258.4</ele>
        <time>2021-03-23T13:20:32Z</time>
      </trkpt>
      <trkpt lat="45.23141" lon="6.03672">
        <ele>2260.5</ele>
        <time>2021-03-23T13:20:37Z</time>
      </trkpt>
      <trkpt lat="45.23147" lon="6.0366">
        <ele>2265.6</ele>
        <time>2021-03-23T13:20:54Z</time>
      </trkpt>
      <trkpt lat="45.23145" lon="6.03657">
        <ele>2265.6</ele>
        <time>2021-03-23T13:21:03Z</time>
      </trkpt>
      <trkpt lat="45.23144" lon="6.03657">
        <ele>2264.2</ele>
        <time>2021-03-23T13:21:06Z</time>
      </trkpt>
      <trkpt lat="45.23138" lon="6.03656">
        <ele>2262.9</ele>
        <time>2021-03-23T13:21:13Z</time>
      </trkpt>
      <trkpt lat="45.23138" lon="6.03656">
        <ele>2261.5</ele>
        <time>2021-03-23T13:21:14Z</time>
      </trkpt>
      <trkpt lat="45.23133" lon="6.0365">
        <ele>2261.6</ele>
        <time>2021-03-23T13:21:21Z</time>
      </trkpt>
      <trkpt lat="45.23128" lon="6.03648">
        <ele>2259.3</ele>
        <time>2021-03-23T13:21:26Z</time>
      </trkpt>
      <trkpt lat="45.23124" lon="6.03646">
        <ele>2258.8</ele>
        <time>2021-03-23T13:21:31Z</time>
      </trkpt>
      <trkpt lat="45.23122" lon="6.03647">
        <ele>2257.8</ele>
        <time>2021-03-23T13:21:34Z</time>
      </trkpt>
      <trkpt lat="45.23121" lon="6.03642">
        <ele>2258.3</ele>
        <time>2021-03-23T13:21:43Z</time>
      </trkpt>
      <trkpt lat="45.23118" lon="6.03638">
        <ele>2257.5</ele>
        <time>2021-03-23T13:21:52Z</time>
      </trkpt>
      <trkpt lat="45.23121" lon="6.0363">
        <ele>2259.6</ele>
        <time>2021-03-23T13:22:10Z</time>
      </trkpt>
      <trkpt lat="45.23118" lon="6.03622">
        <ele>2258.7</ele>
        <time>2021-03-23T13:22:17Z</time>
      </trkpt>
      <trkpt lat="45.23106" lon="6.03614">
        <ele>2253.2</ele>
        <time>2021-03-23T13:23:25Z</time>
      </trkpt>
      <trkpt lat="45.23107" lon="6.03616">
        <ele>2253.2</ele>
        <time>2021-03-23T13:23:59Z</time>
      </trkpt>
      <trkpt lat="45.23112" lon="6.03616">
        <ele>2256.3</ele>
        <time>2021-03-23T13:24:30Z</time>
      </trkpt>
      <trkpt lat="45.23111" lon="6.03616">
        <ele>2254.7</ele>
        <time>2021-03-23T13:24:46Z</time>
      </trkpt>
      <trkpt lat="45.2311" lon="6.0362">
        <ele>2254.5</ele>
        <time>2021-03-23T13:25:10Z</time>
      </trkpt>
      <trkpt lat="45.23108" lon="6.0362">
        <ele>2254.5</ele>
        <time>2021-03-23T13:30:17Z</time>
      </trkpt>
      <trkpt lat="45.23111" lon="6.03621">
        <ele>2256</ele>
        <time>2021-03-23T13:30:39Z</time>
      </trkpt>
      <trkpt lat="45.23126" lon="6.03625">
        <ele>2262.4</ele>
        <time>2021-03-23T13:30:43Z</time>
      </trkpt>
      <trkpt lat="45.23132" lon="6.03623">
        <ele>2263.7</ele>
        <time>2021-03-23T13:30:44Z</time>
      </trkpt>
      <trkpt lat="45.23136" lon="6.03616">
        <ele>2268</ele>
        <time>2021-03-23T13:30:45Z</time>
      </trkpt>
      <trkpt lat="45.23138" lon="6.036">
        <ele>2269.9</ele>
        <time>2021-03-23T13:30:47Z</time>
      </trkpt>
      <trkpt lat="45.23135" lon="6.03585">
        <ele>2270.3</ele>
        <time>2021-03-23T13:30:49Z</time>
      </trkpt>
      <trkpt lat="45.23127" lon="6.03573">
        <ele>2268.7</ele>
        <time>2021-03-23T13:30:51Z</time>
      </trkpt>
      <trkpt lat="45.23113" lon="6.0357">
        <ele>2259.9</ele>
        <time>2021-03-23T13:30:53Z</time>
      </trkpt>
      <trkpt lat="45.23106" lon="6.03571">
        <ele>2256.1</ele>
        <time>2021-03-23T13:30:55Z</time>
      </trkpt>
      <trkpt lat="45.23102" lon="6.03575">
        <ele>2253.9</ele>
        <time>2021-03-23T13:30:57Z</time>
      </trkpt>
      <trkpt lat="45.23107" lon="6.03571">
        <ele>2256.1</ele>
        <time>2021-03-23T13:31:01Z</time>
      </trkpt>
      <trkpt lat="45.23106" lon="6.03572">
        <ele>2256.1</ele>
        <time>2021-03-23T13:31:03Z</time>
      </trkpt>
      <trkpt lat="45.23108" lon="6.03572">
        <ele>2256.1</ele>
        <time>2021-03-23T13:31:10Z</time>
      </trkpt>
      <trkpt lat="45.23109" lon="6.03572">
        <ele>2258</ele>
        <time>2021-03-23T13:31:15Z</time>
      </trkpt>
      <trkpt lat="45.23106" lon="6.03569">
        <ele>2256.5</ele>
        <time>2021-03-23T13:31:51Z</time>
      </trkpt>
      <trkpt lat="45.23076" lon="6.03567">
        <ele>2237.6</ele>
        <time>2021-03-23T13:31:58Z</time>
      </trkpt>
      <trkpt lat="45.23068" lon="6.03563">
        <ele>2232</ele>
        <time>2021-03-23T13:32:00Z</time>
      </trkpt>
      <trkpt lat="45.23056" lon="6.03552">
        <ele>2224.1</ele>
        <time>2021-03-23T13:32:03Z</time>
      </trkpt>
      <trkpt lat="45.23045" lon="6.0355">
        <ele>2219.6</ele>
        <time>2021-03-23T13:32:05Z</time>
      </trkpt>
      <trkpt lat="45.23035" lon="6.03558">
        <ele>2217.4</ele>
        <time>2021-03-23T13:32:07Z</time>
      </trkpt>
      <trkpt lat="45.23023" lon="6.03563">
        <ele>2215.9</ele>
        <time>2021-03-23T13:32:09Z</time>
      </trkpt>
      <trkpt lat="45.23006" lon="6.03562">
        <ele>2214.9</ele>
        <time>2021-03-23T13:32:12Z</time>
      </trkpt>
      <trkpt lat="45.22987" lon="6.03553">
        <ele>2212.1</ele>
        <time>2021-03-23T13:32:16Z</time>
      </trkpt>
      <trkpt lat="45.22976" lon="6.03545">
        <ele>2212</ele>
        <time>2021-03-23T13:32:18Z</time>
      </trkpt>
      <trkpt lat="45.22968" lon="6.03529">
        <ele>2207.5</ele>
        <time>2021-03-23T13:32:20Z</time>
      </trkpt>
      <trkpt lat="45.22966" lon="6.03521">
        <ele>2204.8</ele>
        <time>2021-03-23T13:32:21Z</time>
      </trkpt>
      <trkpt lat="45.22963" lon="6.03491">
        <ele>2195.2</ele>
        <time>2021-03-23T13:32:24Z</time>
      </trkpt>
      <trkpt lat="45.22961" lon="6.03472">
        <ele>2191.2</ele>
        <time>2021-03-23T13:32:26Z</time>
      </trkpt>
      <trkpt lat="45.22946" lon="6.03454">
        <ele>2187.9</ele>
        <time>2021-03-23T13:32:30Z</time>
      </trkpt>
      <trkpt lat="45.22928" lon="6.03449">
        <ele>2190</ele>
        <time>2021-03-23T13:32:34Z</time>
      </trkpt>
      <trkpt lat="45.2291" lon="6.03441">
        <ele>2194.3</ele>
        <time>2021-03-23T13:32:40Z</time>
      </trkpt>
      <trkpt lat="45.22903" lon="6.0344">
        <ele>2193.4</ele>
        <time>2021-03-23T13:32:42Z</time>
      </trkpt>
      <trkpt lat="45.22896" lon="6.03438">
        <ele>2195</ele>
        <time>2021-03-23T13:32:44Z</time>
      </trkpt>
      <trkpt lat="45.22892" lon="6.03437">
        <ele>2193.2</ele>
        <time>2021-03-23T13:32:45Z</time>
      </trkpt>
      <trkpt lat="45.22885" lon="6.03437">
        <ele>2194.2</ele>
        <time>2021-03-23T13:32:47Z</time>
      </trkpt>
      <trkpt lat="45.22883" lon="6.03438">
        <ele>2196.6</ele>
        <time>2021-03-23T13:32:49Z</time>
      </trkpt>
      <trkpt lat="45.22889" lon="6.03436">
        <ele>2193.7</ele>
        <time>2021-03-23T13:32:56Z</time>
      </trkpt>
      <trkpt lat="45.22895" lon="6.03429">
        <ele>2190.3</ele>
        <time>2021-03-23T13:32:59Z</time>
      </trkpt>
      <trkpt lat="45.22896" lon="6.03428">
        <ele>2187.9</ele>
        <time>2021-03-23T13:33:00Z</time>
      </trkpt>
      <trkpt lat="45.22902" lon="6.03422">
        <ele>2184.4</ele>
        <time>2021-03-23T13:33:20Z</time>
      </trkpt>
      <trkpt lat="45.22893" lon="6.03419">
        <ele>2183.9</ele>
        <time>2021-03-23T13:33:28Z</time>
      </trkpt>
      <trkpt lat="45.2288" lon="6.03419">
        <ele>2186</ele>
        <time>2021-03-23T13:33:31Z</time>
      </trkpt>
      <trkpt lat="45.22875" lon="6.0342">
        <ele>2189.6</ele>
        <time>2021-03-23T13:33:32Z</time>
      </trkpt>
      <trkpt lat="45.22864" lon="6.03423">
        <ele>2190.8</ele>
        <time>2021-03-23T13:33:35Z</time>
      </trkpt>
      <trkpt lat="45.22855" lon="6.03424">
        <ele>2194.7</ele>
        <time>2021-03-23T13:33:37Z</time>
      </trkpt>
      <trkpt lat="45.22847" lon="6.03425">
        <ele>2196.4</ele>
        <time>2021-03-23T13:33:39Z</time>
      </trkpt>
      <trkpt lat="45.22843" lon="6.03424">
        <ele>2196.9</ele>
        <time>2021-03-23T13:33:40Z</time>
      </trkpt>
      <trkpt lat="45.2284" lon="6.03423">
        <ele>2194.4</ele>
        <time>2021-03-23T13:33:41Z</time>
      </trkpt>
      <trkpt lat="45.22837" lon="6.03414">
        <ele>2188.3</ele>
        <time>2021-03-23T13:33:43Z</time>
      </trkpt>
      <trkpt lat="45.22845" lon="6.03404">
        <ele>2180.8</ele>
        <time>2021-03-23T13:33:46Z</time>
      </trkpt>
      <trkpt lat="45.22846" lon="6.03399">
        <ele>2177.1</ele>
        <time>2021-03-23T13:33:47Z</time>
      </trkpt>
      <trkpt lat="45.22842" lon="6.03385">
        <ele>2164.8</ele>
        <time>2021-03-23T13:33:49Z</time>
      </trkpt>
      <trkpt lat="45.22839" lon="6.03378">
        <ele>2162</ele>
        <time>2021-03-23T13:33:50Z</time>
      </trkpt>
      <trkpt lat="45.22837" lon="6.03366">
        <ele>2153.9</ele>
        <time>2021-03-23T13:33:52Z</time>
      </trkpt>
      <trkpt lat="45.22844" lon="6.03359">
        <ele>2148.4</ele>
        <time>2021-03-23T13:33:54Z</time>
      </trkpt>
      <trkpt lat="45.22857" lon="6.03341">
        <ele>2137.4</ele>
        <time>2021-03-23T13:33:58Z</time>
      </trkpt>
      <trkpt lat="45.22861" lon="6.03331">
        <ele>2132.5</ele>
        <time>2021-03-23T13:34:00Z</time>
      </trkpt>
      <trkpt lat="45.22858" lon="6.0332">
        <ele>2125.3</ele>
        <time>2021-03-23T13:34:02Z</time>
      </trkpt>
      <trkpt lat="45.22852" lon="6.03309">
        <ele>2119.9</ele>
        <time>2021-03-23T13:34:04Z</time>
      </trkpt>
      <trkpt lat="45.22848" lon="6.03304">
        <ele>2114.6</ele>
        <time>2021-03-23T13:34:05Z</time>
      </trkpt>
      <trkpt lat="45.22843" lon="6.03302">
        <ele>2113.7</ele>
        <time>2021-03-23T13:34:06Z</time>
      </trkpt>
      <trkpt lat="45.22832" lon="6.03308">
        <ele>2117.4</ele>
        <time>2021-03-23T13:34:08Z</time>
      </trkpt>
      <trkpt lat="45.2282" lon="6.03319">
        <ele>2121.2</ele>
        <time>2021-03-23T13:34:11Z</time>
      </trkpt>
      <trkpt lat="45.22816" lon="6.0332">
        <ele>2120.8</ele>
        <time>2021-03-23T13:34:12Z</time>
      </trkpt>
      <trkpt lat="45.22812" lon="6.03322">
        <ele>2123.1</ele>
        <time>2021-03-23T13:34:13Z</time>
      </trkpt>
      <trkpt lat="45.22798" lon="6.03322">
        <ele>2121.2</ele>
        <time>2021-03-23T13:34:17Z</time>
      </trkpt>
      <trkpt lat="45.22792" lon="6.0332">
        <ele>2117.7</ele>
        <time>2021-03-23T13:34:19Z</time>
      </trkpt>
      <trkpt lat="45.22792" lon="6.03323">
        <ele>2120.5</ele>
        <time>2021-03-23T13:34:21Z</time>
      </trkpt>
      <trkpt lat="45.22792" lon="6.03325">
        <ele>2120.5</ele>
        <time>2021-03-23T13:34:23Z</time>
      </trkpt>
      <trkpt lat="45.22794" lon="6.03325">
        <ele>2123.8</ele>
        <time>2021-03-23T13:34:25Z</time>
      </trkpt>
      <trkpt lat="45.22789" lon="6.03326">
        <ele>2123.1</ele>
        <time>2021-03-23T13:34:34Z</time>
      </trkpt>
      <trkpt lat="45.22785" lon="6.03322">
        <ele>2119.9</ele>
        <time>2021-03-23T13:34:36Z</time>
      </trkpt>
      <trkpt lat="45.22781" lon="6.03315">
        <ele>2113.7</ele>
        <time>2021-03-23T13:34:38Z</time>
      </trkpt>
      <trkpt lat="45.22778" lon="6.03313">
        <ele>2113.5</ele>
        <time>2021-03-23T13:34:39Z</time>
      </trkpt>
      <trkpt lat="45.22775" lon="6.03309">
        <ele>2110.4</ele>
        <time>2021-03-23T13:34:40Z</time>
      </trkpt>
      <trkpt lat="45.22771" lon="6.03303">
        <ele>2104.4</ele>
        <time>2021-03-23T13:34:42Z</time>
      </trkpt>
      <trkpt lat="45.22768" lon="6.03291">
        <ele>2098.8</ele>
        <time>2021-03-23T13:34:44Z</time>
      </trkpt>
      <trkpt lat="45.22768" lon="6.03285">
        <ele>2094.1</ele>
        <time>2021-03-23T13:34:45Z</time>
      </trkpt>
      <trkpt lat="45.22767" lon="6.03279">
        <ele>2092</ele>
        <time>2021-03-23T13:34:46Z</time>
      </trkpt>
      <trkpt lat="45.22763" lon="6.03271">
        <ele>2087.8</ele>
        <time>2021-03-23T13:34:48Z</time>
      </trkpt>
      <trkpt lat="45.22757" lon="6.03267">
        <ele>2085.8</ele>
        <time>2021-03-23T13:34:50Z</time>
      </trkpt>
      <trkpt lat="45.22749" lon="6.03268">
        <ele>2085.8</ele>
        <time>2021-03-23T13:34:52Z</time>
      </trkpt>
      <trkpt lat="45.2274" lon="6.03266">
        <ele>2086.3</ele>
        <time>2021-03-23T13:34:54Z</time>
      </trkpt>
      <trkpt lat="45.22735" lon="6.03265">
        <ele>2084.7</ele>
        <time>2021-03-23T13:34:55Z</time>
      </trkpt>
      <trkpt lat="45.22724" lon="6.03262">
        <ele>2086.1</ele>
        <time>2021-03-23T13:34:58Z</time>
      </trkpt>
      <trkpt lat="45.22709" lon="6.0325">
        <ele>2081.9</ele>
        <time>2021-03-23T13:35:03Z</time>
      </trkpt>
      <trkpt lat="45.22708" lon="6.03238">
        <ele>2075.4</ele>
        <time>2021-03-23T13:35:05Z</time>
      </trkpt>
      <trkpt lat="45.22704" lon="6.03227">
        <ele>2071.6</ele>
        <time>2021-03-23T13:35:07Z</time>
      </trkpt>
      <trkpt lat="45.22698" lon="6.03208">
        <ele>2060.5</ele>
        <time>2021-03-23T13:35:10Z</time>
      </trkpt>
      <trkpt lat="45.22687" lon="6.03197">
        <ele>2056.4</ele>
        <time>2021-03-23T13:35:13Z</time>
      </trkpt>
      <trkpt lat="45.22686" lon="6.03197">
        <ele>2054.1</ele>
        <time>2021-03-23T13:35:14Z</time>
      </trkpt>
      <trkpt lat="45.2269" lon="6.03203">
        <ele>2058.6</ele>
        <time>2021-03-23T13:35:22Z</time>
      </trkpt>
      <trkpt lat="45.2269" lon="6.03201">
        <ele>2058.6</ele>
        <time>2021-03-23T13:35:26Z</time>
      </trkpt>
      <trkpt lat="45.2269" lon="6.03201">
        <ele>2056.2</ele>
        <time>2021-03-23T13:35:28Z</time>
      </trkpt>
      <trkpt lat="45.2269" lon="6.03197">
        <ele>2056.2</ele>
        <time>2021-03-23T13:35:34Z</time>
      </trkpt>
      <trkpt lat="45.22688" lon="6.03191">
        <ele>2051.8</ele>
        <time>2021-03-23T13:35:36Z</time>
      </trkpt>
      <trkpt lat="45.22683" lon="6.03183">
        <ele>2047.7</ele>
        <time>2021-03-23T13:35:38Z</time>
      </trkpt>
      <trkpt lat="45.22676" lon="6.03178">
        <ele>2045.7</ele>
        <time>2021-03-23T13:35:40Z</time>
      </trkpt>
      <trkpt lat="45.22674" lon="6.03174">
        <ele>2043.4</ele>
        <time>2021-03-23T13:35:41Z</time>
      </trkpt>
      <trkpt lat="45.22677" lon="6.03164">
        <ele>2038.8</ele>
        <time>2021-03-23T13:35:43Z</time>
      </trkpt>
      <trkpt lat="45.22672" lon="6.03139">
        <ele>2025</ele>
        <time>2021-03-23T13:35:47Z</time>
      </trkpt>
      <trkpt lat="45.22673" lon="6.03127">
        <ele>2018.8</ele>
        <time>2021-03-23T13:35:49Z</time>
      </trkpt>
      <trkpt lat="45.22671" lon="6.03106">
        <ele>2008.2</ele>
        <time>2021-03-23T13:35:52Z</time>
      </trkpt>
      <trkpt lat="45.22668" lon="6.03094">
        <ele>2003.5</ele>
        <time>2021-03-23T13:35:54Z</time>
      </trkpt>
      <trkpt lat="45.22663" lon="6.03082">
        <ele>1995.7</ele>
        <time>2021-03-23T13:35:56Z</time>
      </trkpt>
      <trkpt lat="45.22653" lon="6.03063">
        <ele>1983.5</ele>
        <time>2021-03-23T13:36:00Z</time>
      </trkpt>
      <trkpt lat="45.22653" lon="6.03053">
        <ele>1979.7</ele>
        <time>2021-03-23T13:36:02Z</time>
      </trkpt>
      <trkpt lat="45.22664" lon="6.03038">
        <ele>1976.2</ele>
        <time>2021-03-23T13:36:05Z</time>
      </trkpt>
      <trkpt lat="45.2267" lon="6.03029">
        <ele>1971.2</ele>
        <time>2021-03-23T13:36:07Z</time>
      </trkpt>
      <trkpt lat="45.22669" lon="6.03022">
        <ele>1969.4</ele>
        <time>2021-03-23T13:36:09Z</time>
      </trkpt>
      <trkpt lat="45.22667" lon="6.0302">
        <ele>1967.2</ele>
        <time>2021-03-23T13:36:10Z</time>
      </trkpt>
      <trkpt lat="45.22648" lon="6.03033">
        <ele>1969.8</ele>
        <time>2021-03-23T13:36:15Z</time>
      </trkpt>
      <trkpt lat="45.22644" lon="6.03032">
        <ele>1969.3</ele>
        <time>2021-03-23T13:36:16Z</time>
      </trkpt>
      <trkpt lat="45.2264" lon="6.03022">
        <ele>1964.9</ele>
        <time>2021-03-23T13:36:18Z</time>
      </trkpt>
      <trkpt lat="45.22636" lon="6.03008">
        <ele>1960</ele>
        <time>2021-03-23T13:36:20Z</time>
      </trkpt>
      <trkpt lat="45.22627" lon="6.03004">
        <ele>1957.8</ele>
        <time>2021-03-23T13:36:22Z</time>
      </trkpt>
      <trkpt lat="45.2262" lon="6.03008">
        <ele>1957.4</ele>
        <time>2021-03-23T13:36:24Z</time>
      </trkpt>
      <trkpt lat="45.22618" lon="6.03014">
        <ele>1960.1</ele>
        <time>2021-03-23T13:36:27Z</time>
      </trkpt>
      <trkpt lat="45.22623" lon="6.03009">
        <ele>1959</ele>
        <time>2021-03-23T13:36:40Z</time>
      </trkpt>
      <trkpt lat="45.22609" lon="6.03008">
        <ele>1956.8</ele>
        <time>2021-03-23T13:36:46Z</time>
      </trkpt>
      <trkpt lat="45.22583" lon="6.0301">
        <ele>1957.7</ele>
        <time>2021-03-23T13:36:51Z</time>
      </trkpt>
      <trkpt lat="45.22573" lon="6.03007">
        <ele>1956.3</ele>
        <time>2021-03-23T13:36:53Z</time>
      </trkpt>
      <trkpt lat="45.2255" lon="6.03">
        <ele>1956.8</ele>
        <time>2021-03-23T13:36:57Z</time>
      </trkpt>
      <trkpt lat="45.22538" lon="6.02994">
        <ele>1955.9</ele>
        <time>2021-03-23T13:36:59Z</time>
      </trkpt>
      <trkpt lat="45.22533" lon="6.02988">
        <ele>1955.8</ele>
        <time>2021-03-23T13:37:00Z</time>
      </trkpt>
      <trkpt lat="45.22528" lon="6.02978">
        <ele>1954.3</ele>
        <time>2021-03-23T13:37:01Z</time>
      </trkpt>
      <trkpt lat="45.2252" lon="6.02955">
        <ele>1947</ele>
        <time>2021-03-23T13:37:03Z</time>
      </trkpt>
      <trkpt lat="45.22518" lon="6.02943">
        <ele>1942.9</ele>
        <time>2021-03-23T13:37:04Z</time>
      </trkpt>
      <trkpt lat="45.22517" lon="6.02917">
        <ele>1933.9</ele>
        <time>2021-03-23T13:37:06Z</time>
      </trkpt>
      <trkpt lat="45.22519" lon="6.02907">
        <ele>1930.3</ele>
        <time>2021-03-23T13:37:07Z</time>
      </trkpt>
      <trkpt lat="45.22544" lon="6.02869">
        <ele>1914</ele>
        <time>2021-03-23T13:37:12Z</time>
      </trkpt>
      <trkpt lat="45.22564" lon="6.02863">
        <ele>1913.1</ele>
        <time>2021-03-23T13:37:17Z</time>
      </trkpt>
      <trkpt lat="45.22603" lon="6.02814">
        <ele>1896.7</ele>
        <time>2021-03-23T13:37:28Z</time>
      </trkpt>
      <trkpt lat="45.22616" lon="6.02808">
        <ele>1895.4</ele>
        <time>2021-03-23T13:37:33Z</time>
      </trkpt>
      <trkpt lat="45.22614" lon="6.028">
        <ele>1892.5</ele>
        <time>2021-03-23T13:38:07Z</time>
      </trkpt>
      <trkpt lat="45.22618" lon="6.02793">
        <ele>1889.9</ele>
        <time>2021-03-23T13:38:08Z</time>
      </trkpt>
      <trkpt lat="45.22624" lon="6.0279">
        <ele>1890</ele>
        <time>2021-03-23T13:38:09Z</time>
      </trkpt>
      <trkpt lat="45.22633" lon="6.02791">
        <ele>1890.1</ele>
        <time>2021-03-23T13:38:11Z</time>
      </trkpt>
      <trkpt lat="45.2264" lon="6.02789">
        <ele>1890.2</ele>
        <time>2021-03-23T13:38:13Z</time>
      </trkpt>
      <trkpt lat="45.22643" lon="6.02787">
        <ele>1889.1</ele>
        <time>2021-03-23T13:38:14Z</time>
      </trkpt>
      <trkpt lat="45.22645" lon="6.02782">
        <ele>1887.8</ele>
        <time>2021-03-23T13:38:17Z</time>
      </trkpt>
      <trkpt lat="45.22657" lon="6.02778">
        <ele>1886.9</ele>
        <time>2021-03-23T13:38:23Z</time>
      </trkpt>
      <trkpt lat="45.22659" lon="6.02774">
        <ele>1885.8</ele>
        <time>2021-03-23T13:38:26Z</time>
      </trkpt>
      <trkpt lat="45.22654" lon="6.02758">
        <ele>1880.5</ele>
        <time>2021-03-23T13:38:29Z</time>
      </trkpt>
      <trkpt lat="45.22647" lon="6.02747">
        <ele>1878.1</ele>
        <time>2021-03-23T13:38:30Z</time>
      </trkpt>
      <trkpt lat="45.22629" lon="6.0273">
        <ele>1874.6</ele>
        <time>2021-03-23T13:38:33Z</time>
      </trkpt>
      <trkpt lat="45.22608" lon="6.02716">
        <ele>1871.8</ele>
        <time>2021-03-23T13:38:37Z</time>
      </trkpt>
      <trkpt lat="45.22596" lon="6.02704">
        <ele>1869.1</ele>
        <time>2021-03-23T13:38:39Z</time>
      </trkpt>
      <trkpt lat="45.22589" lon="6.0269">
        <ele>1866</ele>
        <time>2021-03-23T13:38:41Z</time>
      </trkpt>
      <trkpt lat="45.22584" lon="6.02655">
        <ele>1859.7</ele>
        <time>2021-03-23T13:38:45Z</time>
      </trkpt>
      <trkpt lat="45.22578" lon="6.02622">
        <ele>1855</ele>
        <time>2021-03-23T13:38:50Z</time>
      </trkpt>
      <trkpt lat="45.2258" lon="6.0261">
        <ele>1853.8</ele>
        <time>2021-03-23T13:38:52Z</time>
      </trkpt>
      <trkpt lat="45.22577" lon="6.02599">
        <ele>1851.9</ele>
        <time>2021-03-23T13:38:54Z</time>
      </trkpt>
      <trkpt lat="45.22555" lon="6.02593">
        <ele>1848</ele>
        <time>2021-03-23T13:38:59Z</time>
      </trkpt>
      <trkpt lat="45.22545" lon="6.02586">
        <ele>1845.3</ele>
        <time>2021-03-23T13:39:01Z</time>
      </trkpt>
      <trkpt lat="45.22546" lon="6.02583">
        <ele>1845.8</ele>
        <time>2021-03-23T13:39:07Z</time>
      </trkpt>
      <trkpt lat="45.22543" lon="6.02587">
        <ele>1845.3</ele>
        <time>2021-03-23T13:39:16Z</time>
      </trkpt>
      <trkpt lat="45.22537" lon="6.0259">
        <ele>1844.8</ele>
        <time>2021-03-23T13:39:18Z</time>
      </trkpt>
      <trkpt lat="45.22534" lon="6.02589">
        <ele>1844.1</ele>
        <time>2021-03-23T13:39:19Z</time>
      </trkpt>
      <trkpt lat="45.22532" lon="6.02586">
        <ele>1842.8</ele>
        <time>2021-03-23T13:39:20Z</time>
      </trkpt>
      <trkpt lat="45.22529" lon="6.02575">
        <ele>1840.8</ele>
        <time>2021-03-23T13:39:22Z</time>
      </trkpt>
      <trkpt lat="45.22527" lon="6.02556">
        <ele>1837.3</ele>
        <time>2021-03-23T13:39:24Z</time>
      </trkpt>
      <trkpt lat="45.2252" lon="6.02487">
        <ele>1829.5</ele>
        <time>2021-03-23T13:39:31Z</time>
      </trkpt>
      <trkpt lat="45.22512" lon="6.02463">
        <ele>1826.1</ele>
        <time>2021-03-23T13:39:34Z</time>
      </trkpt>
      <trkpt lat="45.22504" lon="6.02404">
        <ele>1824.3</ele>
        <time>2021-03-23T13:39:44Z</time>
      </trkpt>
      <trkpt lat="45.22502" lon="6.02394">
        <ele>1823.6</ele>
        <time>2021-03-23T13:39:46Z</time>
      </trkpt>
      <trkpt lat="45.22494" lon="6.02376">
        <ele>1820.6</ele>
        <time>2021-03-23T13:39:49Z</time>
      </trkpt>
      <trkpt lat="45.2249" lon="6.02356">
        <ele>1819.5</ele>
        <time>2021-03-23T13:39:52Z</time>
      </trkpt>
      <trkpt lat="45.22482" lon="6.02339">
        <ele>1815.6</ele>
        <time>2021-03-23T13:39:55Z</time>
      </trkpt>
      <trkpt lat="45.22478" lon="6.02321">
        <ele>1813.2</ele>
        <time>2021-03-23T13:39:58Z</time>
      </trkpt>
      <trkpt lat="45.2247" lon="6.02311">
        <ele>1807.4</ele>
        <time>2021-03-23T13:40:00Z</time>
      </trkpt>
      <trkpt lat="45.22462" lon="6.02307">
        <ele>1803.9</ele>
        <time>2021-03-23T13:40:02Z</time>
      </trkpt>
      <trkpt lat="45.22458" lon="6.02307">
        <ele>1801.1</ele>
        <time>2021-03-23T13:40:03Z</time>
      </trkpt>
      <trkpt lat="45.22449" lon="6.02313">
        <ele>1797.3</ele>
        <time>2021-03-23T13:40:05Z</time>
      </trkpt>
      <trkpt lat="45.22435" lon="6.02312">
        <ele>1790.7</ele>
        <time>2021-03-23T13:40:08Z</time>
      </trkpt>
      <trkpt lat="45.2243" lon="6.02302">
        <ele>1786.8</ele>
        <time>2021-03-23T13:40:10Z</time>
      </trkpt>
      <trkpt lat="45.2243" lon="6.02285">
        <ele>1785.2</ele>
        <time>2021-03-23T13:40:13Z</time>
      </trkpt>
      <trkpt lat="45.22433" lon="6.02287">
        <ele>1787</ele>
        <time>2021-03-23T13:40:20Z</time>
      </trkpt>
      <trkpt lat="45.22432" lon="6.02283">
        <ele>1786.7</ele>
        <time>2021-03-23T13:40:35Z</time>
      </trkpt>
      <trkpt lat="45.22424" lon="6.02277">
        <ele>1781.7</ele>
        <time>2021-03-23T13:40:39Z</time>
      </trkpt>
      <trkpt lat="45.22418" lon="6.02277">
        <ele>1778.7</ele>
        <time>2021-03-23T13:40:41Z</time>
      </trkpt>
      <trkpt lat="45.22415" lon="6.02281">
        <ele>1777.6</ele>
        <time>2021-03-23T13:40:42Z</time>
      </trkpt>
      <trkpt lat="45.22394" lon="6.02289">
        <ele>1768.8</ele>
        <time>2021-03-23T13:40:46Z</time>
      </trkpt>
      <trkpt lat="45.22373" lon="6.02291">
        <ele>1760.4</ele>
        <time>2021-03-23T13:40:49Z</time>
      </trkpt>
      <trkpt lat="45.22351" lon="6.02292">
        <ele>1754.9</ele>
        <time>2021-03-23T13:40:54Z</time>
      </trkpt>
      <trkpt lat="45.22345" lon="6.02286">
        <ele>1752.8</ele>
        <time>2021-03-23T13:40:56Z</time>
      </trkpt>
      <trkpt lat="45.22344" lon="6.0228">
        <ele>1752.3</ele>
        <time>2021-03-23T13:40:59Z</time>
      </trkpt>
      <trkpt lat="45.22344" lon="6.02282">
        <ele>1752.3</ele>
        <time>2021-03-23T13:41:12Z</time>
      </trkpt>
      <trkpt lat="45.22335" lon="6.02268">
        <ele>1748.7</ele>
        <time>2021-03-23T13:41:20Z</time>
      </trkpt>
      <trkpt lat="45.22312" lon="6.02225">
        <ele>1736.3</ele>
        <time>2021-03-23T13:41:25Z</time>
      </trkpt>
      <trkpt lat="45.22307" lon="6.02211">
        <ele>1732.8</ele>
        <time>2021-03-23T13:41:26Z</time>
      </trkpt>
      <trkpt lat="45.223" lon="6.02181">
        <ele>1726.5</ele>
        <time>2021-03-23T13:41:28Z</time>
      </trkpt>
      <trkpt lat="45.22294" lon="6.02137">
        <ele>1720.1</ele>
        <time>2021-03-23T13:41:33Z</time>
      </trkpt>
      <trkpt lat="45.22275" lon="6.02066">
        <ele>1710.6</ele>
        <time>2021-03-23T13:41:41Z</time>
      </trkpt>
      <trkpt lat="45.2227" lon="6.02033">
        <ele>1705.6</ele>
        <time>2021-03-23T13:41:45Z</time>
      </trkpt>
      <trkpt lat="45.22271" lon="6.02008">
        <ele>1704.4</ele>
        <time>2021-03-23T13:41:49Z</time>
      </trkpt>
      <trkpt lat="45.22277" lon="6.01989">
        <ele>1706.5</ele>
        <time>2021-03-23T13:41:55Z</time>
      </trkpt>
      <trkpt lat="45.22279" lon="6.01975">
        <ele>1706.1</ele>
        <time>2021-03-23T13:41:59Z</time>
      </trkpt>
      <trkpt lat="45.22279" lon="6.01951">
        <ele>1705.3</ele>
        <time>2021-03-23T13:42:02Z</time>
      </trkpt>
      <trkpt lat="45.22278" lon="6.01945">
        <ele>1705.1</ele>
        <time>2021-03-23T13:42:03Z</time>
      </trkpt>
      <trkpt lat="45.22265" lon="6.01929">
        <ele>1699.4</ele>
        <time>2021-03-23T13:42:09Z</time>
      </trkpt>
      <trkpt lat="45.22261" lon="6.01922">
        <ele>1696.7</ele>
        <time>2021-03-23T13:42:11Z</time>
      </trkpt>
      <trkpt lat="45.22258" lon="6.01902">
        <ele>1693.5</ele>
        <time>2021-03-23T13:42:21Z</time>
      </trkpt>
      <trkpt lat="45.22257" lon="6.01851">
        <ele>1689.4</ele>
        <time>2021-03-23T13:42:31Z</time>
      </trkpt>
      <trkpt lat="45.22254" lon="6.01834">
        <ele>1686.9</ele>
        <time>2021-03-23T13:42:37Z</time>
      </trkpt>
      <trkpt lat="45.22255" lon="6.01827">
        <ele>1686.5</ele>
        <time>2021-03-23T13:42:39Z</time>
      </trkpt>
      <trkpt lat="45.22263" lon="6.01808">
        <ele>1689.8</ele>
        <time>2021-03-23T13:42:42Z</time>
      </trkpt>
      <trkpt lat="45.2227" lon="6.01777">
        <ele>1690.4</ele>
        <time>2021-03-23T13:42:44Z</time>
      </trkpt>
      <trkpt lat="45.22273" lon="6.0176">
        <ele>1689.4</ele>
        <time>2021-03-23T13:42:45Z</time>
      </trkpt>
      <trkpt lat="45.22272" lon="6.01732">
        <ele>1688.3</ele>
        <time>2021-03-23T13:42:47Z</time>
      </trkpt>
      <trkpt lat="45.22273" lon="6.01715">
        <ele>1687.9</ele>
        <time>2021-03-23T13:42:49Z</time>
      </trkpt>
      <trkpt lat="45.22269" lon="6.01674">
        <ele>1687.2</ele>
        <time>2021-03-23T13:43:07Z</time>
      </trkpt>
      <trkpt lat="45.2227" lon="6.01634">
        <ele>1686.7</ele>
        <time>2021-03-23T13:43:47Z</time>
      </trkpt>
      <trkpt lat="45.22265" lon="6.01618">
        <ele>1686</ele>
        <time>2021-03-23T13:43:51Z</time>
      </trkpt>
      <trkpt lat="45.22251" lon="6.01559">
        <ele>1683</ele>
        <time>2021-03-23T13:44:23Z</time>
      </trkpt>
      <trkpt lat="45.22251" lon="6.01524">
        <ele>1686.6</ele>
        <time>2021-03-23T13:44:49Z</time>
      </trkpt>
      <trkpt lat="45.22248" lon="6.0151">
        <ele>1685.6</ele>
        <time>2021-03-23T13:44:53Z</time>
      </trkpt>
      <trkpt lat="45.22243" lon="6.0147">
        <ele>1681.2</ele>
        <time>2021-03-23T13:45:05Z</time>
      </trkpt>
      <trkpt lat="45.22234" lon="6.01431">
        <ele>1676.1</ele>
        <time>2021-03-23T13:45:15Z</time>
      </trkpt>
      <trkpt lat="45.22236" lon="6.01407">
        <ele>1672.8</ele>
        <time>2021-03-23T13:45:19Z</time>
      </trkpt>
      <trkpt lat="45.22242" lon="6.01394">
        <ele>1670.6</ele>
        <time>2021-03-23T13:45:21Z</time>
      </trkpt>
      <trkpt lat="45.22286" lon="6.01361">
        <ele>1660.3</ele>
        <time>2021-03-23T13:45:29Z</time>
      </trkpt>
      <trkpt lat="45.22291" lon="6.01354">
        <ele>1658.8</ele>
        <time>2021-03-23T13:45:31Z</time>
      </trkpt>
      <trkpt lat="45.22293" lon="6.01337">
        <ele>1656.2</ele>
        <time>2021-03-23T13:45:33Z</time>
      </trkpt>
      <trkpt lat="45.22294" lon="6.01317">
        <ele>1652.7</ele>
        <time>2021-03-23T13:45:35Z</time>
      </trkpt>
      <trkpt lat="45.22292" lon="6.01299">
        <ele>1649.5</ele>
        <time>2021-03-23T13:45:37Z</time>
      </trkpt>
      <trkpt lat="45.22279" lon="6.01297">
        <ele>1646.4</ele>
        <time>2021-03-23T13:45:39Z</time>
      </trkpt>
      <trkpt lat="45.22263" lon="6.01307">
        <ele>1643.7</ele>
        <time>2021-03-23T13:45:41Z</time>
      </trkpt>
      <trkpt lat="45.2225" lon="6.01312">
        <ele>1647.9</ele>
        <time>2021-03-23T13:45:43Z</time>
      </trkpt>
      <trkpt lat="45.22241" lon="6.01307">
        <ele>1648.1</ele>
        <time>2021-03-23T13:45:45Z</time>
      </trkpt>
      <trkpt lat="45.22236" lon="6.01295">
        <ele>1645.8</ele>
        <time>2021-03-23T13:45:47Z</time>
      </trkpt>
      <trkpt lat="45.22234" lon="6.0128">
        <ele>1643</ele>
        <time>2021-03-23T13:45:49Z</time>
      </trkpt>
      <trkpt lat="45.22243" lon="6.0127">
        <ele>1640.2</ele>
        <time>2021-03-23T13:45:52Z</time>
      </trkpt>
      <trkpt lat="45.2225" lon="6.01235">
        <ele>1635.5</ele>
        <time>2021-03-23T13:45:57Z</time>
      </trkpt>
      <trkpt lat="45.22257" lon="6.0122">
        <ele>1633.2</ele>
        <time>2021-03-23T13:45:59Z</time>
      </trkpt>
      <trkpt lat="45.22255" lon="6.01212">
        <ele>1632</ele>
        <time>2021-03-23T13:46:01Z</time>
      </trkpt>
      <trkpt lat="45.22248" lon="6.01202">
        <ele>1629.6</ele>
        <time>2021-03-23T13:46:03Z</time>
      </trkpt>
      <trkpt lat="45.22243" lon="6.01179">
        <ele>1625.8</ele>
        <time>2021-03-23T13:46:05Z</time>
      </trkpt>
      <trkpt lat="45.22248" lon="6.01159">
        <ele>1622.7</ele>
        <time>2021-03-23T13:46:09Z</time>
      </trkpt>
      <trkpt lat="45.22243" lon="6.01129">
        <ele>1618.3</ele>
        <time>2021-03-23T13:46:15Z</time>
      </trkpt>
      <trkpt lat="45.22245" lon="6.01089">
        <ele>1612.3</ele>
        <time>2021-03-23T13:46:23Z</time>
      </trkpt>
      <trkpt lat="45.2225" lon="6.01064">
        <ele>1608.5</ele>
        <time>2021-03-23T13:46:27Z</time>
      </trkpt>
      <trkpt lat="45.22253" lon="6.01015">
        <ele>1600.8</ele>
        <time>2021-03-23T13:46:33Z</time>
      </trkpt>
      <trkpt lat="45.22249" lon="6.01014">
        <ele>1600</ele>
        <time>2021-03-23T13:46:35Z</time>
      </trkpt>
      <trkpt lat="45.22249" lon="6.01018">
        <ele>1599.3</ele>
        <time>2021-03-23T13:46:49Z</time>
      </trkpt>
      <trkpt lat="45.22238" lon="6.01001">
        <ele>1595.3</ele>
        <time>2021-03-23T13:48:05Z</time>
      </trkpt>
      <trkpt lat="45.22232" lon="6.00972">
        <ele>1588.4</ele>
        <time>2021-03-23T13:48:09Z</time>
      </trkpt>
      <trkpt lat="45.22232" lon="6.00955">
        <ele>1584.8</ele>
        <time>2021-03-23T13:48:11Z</time>
      </trkpt>
      <trkpt lat="45.22233" lon="6.00938">
        <ele>1581.7</ele>
        <time>2021-03-23T13:48:13Z</time>
      </trkpt>
      <trkpt lat="45.22239" lon="6.00925">
        <ele>1578.9</ele>
        <time>2021-03-23T13:48:15Z</time>
      </trkpt>
      <trkpt lat="45.2225" lon="6.00914">
        <ele>1574.8</ele>
        <time>2021-03-23T13:48:17Z</time>
      </trkpt>
      <trkpt lat="45.22254" lon="6.00902">
        <ele>1572</ele>
        <time>2021-03-23T13:48:19Z</time>
      </trkpt>
      <trkpt lat="45.22254" lon="6.00897">
        <ele>1570.9</ele>
        <time>2021-03-23T13:48:20Z</time>
      </trkpt>
      <trkpt lat="45.22251" lon="6.0088">
        <ele>1567.5</ele>
        <time>2021-03-23T13:48:22Z</time>
      </trkpt>
      <trkpt lat="45.22245" lon="6.00865">
        <ele>1563.8</ele>
        <time>2021-03-23T13:48:24Z</time>
      </trkpt>
      <trkpt lat="45.22234" lon="6.0084">
        <ele>1559.9</ele>
        <time>2021-03-23T13:48:30Z</time>
      </trkpt>
      <trkpt lat="45.22231" lon="6.00831">
        <ele>1558.6</ele>
        <time>2021-03-23T13:48:32Z</time>
      </trkpt>
      <trkpt lat="45.2223" lon="6.00824">
        <ele>1557.5</ele>
        <time>2021-03-23T13:48:36Z</time>
      </trkpt>
      <trkpt lat="45.2223" lon="6.00826">
        <ele>1557.1</ele>
        <time>2021-03-23T13:48:45Z</time>
      </trkpt>
      <trkpt lat="45.2222" lon="6.00818">
        <ele>1554.5</ele>
        <time>2021-03-23T13:48:48Z</time>
      </trkpt>
      <trkpt lat="45.22212" lon="6.00801">
        <ele>1551</ele>
        <time>2021-03-23T13:48:50Z</time>
      </trkpt>
      <trkpt lat="45.22207" lon="6.00786">
        <ele>1548.2</ele>
        <time>2021-03-23T13:48:52Z</time>
      </trkpt>
      <trkpt lat="45.22195" lon="6.00739">
        <ele>1540.6</ele>
        <time>2021-03-23T13:49:00Z</time>
      </trkpt>
      <trkpt lat="45.22195" lon="6.00727">
        <ele>1538.5</ele>
        <time>2021-03-23T13:49:02Z</time>
      </trkpt>
      <trkpt lat="45.22197" lon="6.00723">
        <ele>1537.6</ele>
        <time>2021-03-23T13:49:03Z</time>
      </trkpt>
      <trkpt lat="45.22205" lon="6.00726">
        <ele>1535.5</ele>
        <time>2021-03-23T13:49:06Z</time>
      </trkpt>
      <trkpt lat="45.22215" lon="6.00722">
        <ele>1532.8</ele>
        <time>2021-03-23T13:49:08Z</time>
      </trkpt>
      <trkpt lat="45.22223" lon="6.00708">
        <ele>1528.8</ele>
        <time>2021-03-23T13:49:10Z</time>
      </trkpt>
      <trkpt lat="45.22227" lon="6.00688">
        <ele>1524.7</ele>
        <time>2021-03-23T13:49:12Z</time>
      </trkpt>
      <trkpt lat="45.22226" lon="6.00668">
        <ele>1521</ele>
        <time>2021-03-23T13:49:14Z</time>
      </trkpt>
      <trkpt lat="45.22227" lon="6.00646">
        <ele>1517.5</ele>
        <time>2021-03-23T13:49:16Z</time>
      </trkpt>
      <trkpt lat="45.2223" lon="6.00629">
        <ele>1512.5</ele>
        <time>2021-03-23T13:49:18Z</time>
      </trkpt>
      <trkpt lat="45.22238" lon="6.00618">
        <ele>1510.3</ele>
        <time>2021-03-23T13:49:20Z</time>
      </trkpt>
      <trkpt lat="45.22238" lon="6.00611">
        <ele>1507.4</ele>
        <time>2021-03-23T13:49:21Z</time>
      </trkpt>
      <trkpt lat="45.22238" lon="6.00603">
        <ele>1504.5</ele>
        <time>2021-03-23T13:49:22Z</time>
      </trkpt>
      <trkpt lat="45.22233" lon="6.00575">
        <ele>1496.9</ele>
        <time>2021-03-23T13:49:26Z</time>
      </trkpt>
      <trkpt lat="45.22233" lon="6.00564">
        <ele>1492.8</ele>
        <time>2021-03-23T13:49:28Z</time>
      </trkpt>
      <trkpt lat="45.22229" lon="6.00556">
        <ele>1490.1</ele>
        <time>2021-03-23T13:49:30Z</time>
      </trkpt>
      <trkpt lat="45.22225" lon="6.00552">
        <ele>1489.4</ele>
        <time>2021-03-23T13:49:32Z</time>
      </trkpt>
      <trkpt lat="45.22222" lon="6.00554">
        <ele>1491.1</ele>
        <time>2021-03-23T13:49:42Z</time>
      </trkpt>
      <trkpt lat="45.22223" lon="6.00547">
        <ele>1487.8</ele>
        <time>2021-03-23T13:49:46Z</time>
      </trkpt>
      <trkpt lat="45.22228" lon="6.00532">
        <ele>1482.3</ele>
        <time>2021-03-23T13:49:48Z</time>
      </trkpt>
      <trkpt lat="45.22237" lon="6.00515">
        <ele>1476.9</ele>
        <time>2021-03-23T13:49:50Z</time>
      </trkpt>
      <trkpt lat="45.22244" lon="6.00499">
        <ele>1470.7</ele>
        <time>2021-03-23T13:49:52Z</time>
      </trkpt>
      <trkpt lat="45.2225" lon="6.00474">
        <ele>1461.8</ele>
        <time>2021-03-23T13:49:55Z</time>
      </trkpt>
      <trkpt lat="45.2226" lon="6.00456">
        <ele>1455.3</ele>
        <time>2021-03-23T13:49:58Z</time>
      </trkpt>
      <trkpt lat="45.22265" lon="6.0044">
        <ele>1450.1</ele>
        <time>2021-03-23T13:50:01Z</time>
      </trkpt>
      <trkpt lat="45.22275" lon="6.00419">
        <ele>1444</ele>
        <time>2021-03-23T13:50:04Z</time>
      </trkpt>
      <trkpt lat="45.22284" lon="6.00411">
        <ele>1442</ele>
        <time>2021-03-23T13:50:06Z</time>
      </trkpt>
      <trkpt lat="45.22296" lon="6.00413">
        <ele>1443.5</ele>
        <time>2021-03-23T13:50:09Z</time>
      </trkpt>
      <trkpt lat="45.22319" lon="6.00397">
        <ele>1442.3</ele>
        <time>2021-03-23T13:50:15Z</time>
      </trkpt>
      <trkpt lat="45.22341" lon="6.00385">
        <ele>1444</ele>
        <time>2021-03-23T13:50:19Z</time>
      </trkpt>
      <trkpt lat="45.22345" lon="6.00379">
        <ele>1443.4</ele>
        <time>2021-03-23T13:50:20Z</time>
      </trkpt>
      <trkpt lat="45.22351" lon="6.00365">
        <ele>1441.7</ele>
        <time>2021-03-23T13:50:22Z</time>
      </trkpt>
      <trkpt lat="45.22353" lon="6.00351">
        <ele>1440.2</ele>
        <time>2021-03-23T13:50:24Z</time>
      </trkpt>
      <trkpt lat="45.22348" lon="6.00335">
        <ele>1438.4</ele>
        <time>2021-03-23T13:50:26Z</time>
      </trkpt>
      <trkpt lat="45.22344" lon="6.00327">
        <ele>1437.5</ele>
        <time>2021-03-23T13:50:27Z</time>
      </trkpt>
      <trkpt lat="45.22328" lon="6.00304">
        <ele>1434.8</ele>
        <time>2021-03-23T13:50:31Z</time>
      </trkpt>
      <trkpt lat="45.22326" lon="6.00297">
        <ele>1434.2</ele>
        <time>2021-03-23T13:50:32Z</time>
      </trkpt>
      <trkpt lat="45.22326" lon="6.0028">
        <ele>1430.1</ele>
        <time>2021-03-23T13:50:35Z</time>
      </trkpt>
      <trkpt lat="45.22311" lon="6.00236">
        <ele>1420.8</ele>
        <time>2021-03-23T13:50:41Z</time>
      </trkpt>
      <trkpt lat="45.22308" lon="6.00225">
        <ele>1418.3</ele>
        <time>2021-03-23T13:50:42Z</time>
      </trkpt>
      <trkpt lat="45.22315" lon="6.00199">
        <ele>1413.3</ele>
        <time>2021-03-23T13:50:44Z</time>
      </trkpt>
      <trkpt lat="45.22347" lon="6.00183">
        <ele>1408.3</ele>
        <time>2021-03-23T13:50:48Z</time>
      </trkpt>
      <trkpt lat="45.22359" lon="6.00173">
        <ele>1406.6</ele>
        <time>2021-03-23T13:50:50Z</time>
      </trkpt>
      <trkpt lat="45.22364" lon="6.00168">
        <ele>1406</ele>
        <time>2021-03-23T13:50:51Z</time>
      </trkpt>
      <trkpt lat="45.22374" lon="6.00148">
        <ele>1404.5</ele>
        <time>2021-03-23T13:50:56Z</time>
      </trkpt>
      <trkpt lat="45.22372" lon="6.00149">
        <ele>1404.4</ele>
        <time>2021-03-23T13:51:14Z</time>
      </trkpt>
      <trkpt lat="45.22409" lon="6.00124">
        <ele>1402</ele>
        <time>2021-03-23T13:51:38Z</time>
      </trkpt>
      <trkpt lat="45.22421" lon="6.00112">
        <ele>1400.6</ele>
        <time>2021-03-23T13:51:40Z</time>
      </trkpt>
      <trkpt lat="45.22462" lon="6.0006">
        <ele>1393.2</ele>
        <time>2021-03-23T13:51:47Z</time>
      </trkpt>
      <trkpt lat="45.22498" lon="6.00028">
        <ele>1386.7</ele>
        <time>2021-03-23T13:51:53Z</time>
      </trkpt>
      <trkpt lat="45.22517" lon="6.00017">
        <ele>1383.5</ele>
        <time>2021-03-23T13:51:55Z</time>
      </trkpt>
      <trkpt lat="45.22525" lon="6.00008">
        <ele>1382</ele>
        <time>2021-03-23T13:51:56Z</time>
      </trkpt>
      <trkpt lat="45.22534" lon="5.99989">
        <ele>1379.7</ele>
        <time>2021-03-23T13:51:58Z</time>
      </trkpt>
      <trkpt lat="45.22536" lon="5.99979">
        <ele>1378.6</ele>
        <time>2021-03-23T13:51:59Z</time>
      </trkpt>
      <trkpt lat="45.22535" lon="5.99958">
        <ele>1376.7</ele>
        <time>2021-03-23T13:52:01Z</time>
      </trkpt>
      <trkpt lat="45.22528" lon="5.99899">
        <ele>1370.8</ele>
        <time>2021-03-23T13:52:07Z</time>
      </trkpt>
      <trkpt lat="45.22533" lon="5.99882">
        <ele>1369.2</ele>
        <time>2021-03-23T13:52:09Z</time>
      </trkpt>
      <trkpt lat="45.22538" lon="5.99855">
        <ele>1367</ele>
        <time>2021-03-23T13:52:12Z</time>
      </trkpt>
      <trkpt lat="45.22543" lon="5.99813">
        <ele>1363.7</ele>
        <time>2021-03-23T13:52:16Z</time>
      </trkpt>
      <trkpt lat="45.22549" lon="5.99794">
        <ele>1362</ele>
        <time>2021-03-23T13:52:18Z</time>
      </trkpt>
      <trkpt lat="45.22549" lon="5.99784">
        <ele>1361.1</ele>
        <time>2021-03-23T13:52:19Z</time>
      </trkpt>
      <trkpt lat="45.22541" lon="5.99765">
        <ele>1359.4</ele>
        <time>2021-03-23T13:52:21Z</time>
      </trkpt>
      <trkpt lat="45.22536" lon="5.99762">
        <ele>1358.7</ele>
        <time>2021-03-23T13:52:22Z</time>
      </trkpt>
      <trkpt lat="45.22531" lon="5.99761">
        <ele>1358</ele>
        <time>2021-03-23T13:52:23Z</time>
      </trkpt>
      <trkpt lat="45.22523" lon="5.99766">
        <ele>1357.1</ele>
        <time>2021-03-23T13:52:25Z</time>
      </trkpt>
      <trkpt lat="45.22514" lon="5.99778">
        <ele>1355.9</ele>
        <time>2021-03-23T13:52:27Z</time>
      </trkpt>
      <trkpt lat="45.22492" lon="5.99855">
        <ele>1351.2</ele>
        <time>2021-03-23T13:52:41Z</time>
      </trkpt>
      <trkpt lat="45.2248" lon="5.9988">
        <ele>1350</ele>
        <time>2021-03-23T13:52:49Z</time>
      </trkpt>
      <trkpt lat="45.22473" lon="5.99889">
        <ele>1349.4</ele>
        <time>2021-03-23T13:52:55Z</time>
      </trkpt>
      <trkpt lat="45.22469" lon="5.99891">
        <ele>1349.2</ele>
        <time>2021-03-23T13:52:56Z</time>
      </trkpt>
      <trkpt lat="45.22462" lon="5.99893">
        <ele>1349.1</ele>
        <time>2021-03-23T13:52:58Z</time>
      </trkpt>
      <trkpt lat="45.22454" lon="5.99891">
        <ele>1349</ele>
        <time>2021-03-23T13:53:01Z</time>
      </trkpt>
      <trkpt lat="45.2245" lon="5.99894">
        <ele>1349</ele>
        <time>2021-03-23T13:53:05Z</time>
      </trkpt>
      <trkpt lat="45.22457" lon="5.99884">
        <ele>1348.7</ele>
        <time>2021-03-23T13:55:55Z</time>
      </trkpt>
      <trkpt lat="45.22452" lon="5.99862">
        <ele>1346.8</ele>
        <time>2021-03-23T13:56:24Z</time>
      </trkpt>
      <trkpt lat="45.22455" lon="5.99855">
        <ele>1346.1</ele>
        <time>2021-03-23T13:56:27Z</time>
      </trkpt>
      <trkpt lat="45.2248" lon="5.99825">
        <ele>1343.7</ele>
        <time>2021-03-23T13:56:34Z</time>
      </trkpt>
      <trkpt lat="45.22496" lon="5.99813">
        <ele>1342.5</ele>
        <time>2021-03-23T13:56:38Z</time>
      </trkpt>
      <trkpt lat="45.22504" lon="5.998">
        <ele>1341.6</ele>
        <time>2021-03-23T13:56:41Z</time>
      </trkpt>
      <trkpt lat="45.22509" lon="5.99771">
        <ele>1340.2</ele>
        <time>2021-03-23T13:56:47Z</time>
      </trkpt>
      <trkpt lat="45.22507" lon="5.99742">
        <ele>1338.6</ele>
        <time>2021-03-23T13:56:54Z</time>
      </trkpt>
      <trkpt lat="45.22511" lon="5.99694">
        <ele>1335.6</ele>
        <time>2021-03-23T13:57:02Z</time>
      </trkpt>
      <trkpt lat="45.2251" lon="5.99644">
        <ele>1332.2</ele>
        <time>2021-03-23T13:57:10Z</time>
      </trkpt>
      <trkpt lat="45.22513" lon="5.99611">
        <ele>1329.9</ele>
        <time>2021-03-23T13:57:15Z</time>
      </trkpt>
      <trkpt lat="45.22521" lon="5.99587">
        <ele>1327.9</ele>
        <time>2021-03-23T13:57:18Z</time>
      </trkpt>
      <trkpt lat="45.22535" lon="5.99564">
        <ele>1325.9</ele>
        <time>2021-03-23T13:57:22Z</time>
      </trkpt>
      <trkpt lat="45.22547" lon="5.99546">
        <ele>1323.9</ele>
        <time>2021-03-23T13:57:25Z</time>
      </trkpt>
      <trkpt lat="45.2257" lon="5.99521">
        <ele>1320.7</ele>
        <time>2021-03-23T13:57:30Z</time>
      </trkpt>
      <trkpt lat="45.22588" lon="5.99506">
        <ele>1318.1</ele>
        <time>2021-03-23T13:57:33Z</time>
      </trkpt>
      <trkpt lat="45.22607" lon="5.99487">
        <ele>1315.4</ele>
        <time>2021-03-23T13:57:36Z</time>
      </trkpt>
      <trkpt lat="45.22623" lon="5.99461">
        <ele>1312.8</ele>
        <time>2021-03-23T13:57:39Z</time>
      </trkpt>
      <trkpt lat="45.22641" lon="5.99439">
        <ele>1310.1</ele>
        <time>2021-03-23T13:57:42Z</time>
      </trkpt>
      <trkpt lat="45.22655" lon="5.99429">
        <ele>1308.3</ele>
        <time>2021-03-23T13:57:44Z</time>
      </trkpt>
      <trkpt lat="45.22702" lon="5.99404">
        <ele>1301.6</ele>
        <time>2021-03-23T13:57:50Z</time>
      </trkpt>
      <trkpt lat="45.22732" lon="5.9938">
        <ele>1298.4</ele>
        <time>2021-03-23T13:57:55Z</time>
      </trkpt>
      <trkpt lat="45.22741" lon="5.99369">
        <ele>1297.2</ele>
        <time>2021-03-23T13:57:57Z</time>
      </trkpt>
      <trkpt lat="45.22772" lon="5.99314">
        <ele>1292.2</ele>
        <time>2021-03-23T13:58:09Z</time>
      </trkpt>
      <trkpt lat="45.22782" lon="5.99301">
        <ele>1290.8</ele>
        <time>2021-03-23T13:58:13Z</time>
      </trkpt>
      <trkpt lat="45.22806" lon="5.99278">
        <ele>1287.9</ele>
        <time>2021-03-23T13:58:21Z</time>
      </trkpt>
      <trkpt lat="45.22837" lon="5.99257">
        <ele>1284.5</ele>
        <time>2021-03-23T13:58:29Z</time>
      </trkpt>
      <trkpt lat="45.22872" lon="5.99216">
        <ele>1276.6</ele>
        <time>2021-03-23T13:58:40Z</time>
      </trkpt>
      <trkpt lat="45.22901" lon="5.99178">
        <ele>1272.1</ele>
        <time>2021-03-23T13:58:49Z</time>
      </trkpt>
      <trkpt lat="45.22915" lon="5.99163">
        <ele>1270.2</ele>
        <time>2021-03-23T13:58:53Z</time>
      </trkpt>
      <trkpt lat="45.22929" lon="5.99156">
        <ele>1268.5</ele>
        <time>2021-03-23T13:58:56Z</time>
      </trkpt>
      <trkpt lat="45.22955" lon="5.9916">
        <ele>1265.4</ele>
        <time>2021-03-23T13:59:01Z</time>
      </trkpt>
      <trkpt lat="45.22975" lon="5.99159">
        <ele>1263</ele>
        <time>2021-03-23T13:59:05Z</time>
      </trkpt>
      <trkpt lat="45.23038" lon="5.99127">
        <ele>1255.2</ele>
        <time>2021-03-23T13:59:18Z</time>
      </trkpt>
      <trkpt lat="45.23126" lon="5.99088">
        <ele>1244.9</ele>
        <time>2021-03-23T13:59:37Z</time>
      </trkpt>
      <trkpt lat="45.23132" lon="5.9908">
        <ele>1243.9</ele>
        <time>2021-03-23T13:59:39Z</time>
      </trkpt>
      <trkpt lat="45.23145" lon="5.99052">
        <ele>1241.3</ele>
        <time>2021-03-23T13:59:45Z</time>
      </trkpt>
      <trkpt lat="45.23155" lon="5.99004">
        <ele>1237.3</ele>
        <time>2021-03-23T13:59:57Z</time>
      </trkpt>
      <trkpt lat="45.23163" lon="5.98981">
        <ele>1235.2</ele>
        <time>2021-03-23T14:00:02Z</time>
      </trkpt>
      <trkpt lat="45.23178" lon="5.98962">
        <ele>1232.8</ele>
        <time>2021-03-23T14:00:07Z</time>
      </trkpt>
      <trkpt lat="45.23193" lon="5.9893">
        <ele>1229.7</ele>
        <time>2021-03-23T14:00:14Z</time>
      </trkpt>
      <trkpt lat="45.23213" lon="5.989">
        <ele>1226.1</ele>
        <time>2021-03-23T14:00:21Z</time>
      </trkpt>
      <trkpt lat="45.23228" lon="5.98886">
        <ele>1222.7</ele>
        <time>2021-03-23T14:00:25Z</time>
      </trkpt>
      <trkpt lat="45.23241" lon="5.98877">
        <ele>1220</ele>
        <time>2021-03-23T14:00:28Z</time>
      </trkpt>
      <trkpt lat="45.23251" lon="5.98873">
        <ele>1218.1</ele>
        <time>2021-03-23T14:00:30Z</time>
      </trkpt>
      <trkpt lat="45.2328" lon="5.98868">
        <ele>1215</ele>
        <time>2021-03-23T14:00:37Z</time>
      </trkpt>
      <trkpt lat="45.23293" lon="5.98862">
        <ele>1213.7</ele>
        <time>2021-03-23T14:00:41Z</time>
      </trkpt>
      <trkpt lat="45.23326" lon="5.98833">
        <ele>1210</ele>
        <time>2021-03-23T14:00:52Z</time>
      </trkpt>
      <trkpt lat="45.23355" lon="5.98813">
        <ele>1206.8</ele>
        <time>2021-03-23T14:00:59Z</time>
      </trkpt>
      <trkpt lat="45.23422" lon="5.9876">
        <ele>1199.4</ele>
        <time>2021-03-23T14:01:11Z</time>
      </trkpt>
      <trkpt lat="45.23436" lon="5.98742">
        <ele>1197.5</ele>
        <time>2021-03-23T14:01:14Z</time>
      </trkpt>
      <trkpt lat="45.23465" lon="5.98696">
        <ele>1193.3</ele>
        <time>2021-03-23T14:01:21Z</time>
      </trkpt>
      <trkpt lat="45.23496" lon="5.98632">
        <ele>1188</ele>
        <time>2021-03-23T14:01:33Z</time>
      </trkpt>
      <trkpt lat="45.23497" lon="5.98625">
        <ele>1187.5</ele>
        <time>2021-03-23T14:01:35Z</time>
      </trkpt>
      <trkpt lat="45.23497" lon="5.98627">
        <ele>1187.4</ele>
        <time>2021-03-23T14:01:45Z</time>
      </trkpt>
      <trkpt lat="45.23499" lon="5.98627">
        <ele>1187.2</ele>
        <time>2021-03-23T14:01:47Z</time>
      </trkpt>
      <trkpt lat="45.23505" lon="5.98621">
        <ele>1186.5</ele>
        <time>2021-03-23T14:01:49Z</time>
      </trkpt>
      <trkpt lat="45.23527" lon="5.98591">
        <ele>1183.5</ele>
        <time>2021-03-23T14:02:17Z</time>
      </trkpt>
      <trkpt lat="45.23531" lon="5.98578">
        <ele>1182.4</ele>
        <time>2021-03-23T14:02:47Z</time>
      </trkpt>
      <trkpt lat="45.2354" lon="5.98566">
        <ele>1181.2</ele>
        <time>2021-03-23T14:03:06Z</time>
      </trkpt>
      <trkpt lat="45.23549" lon="5.98543">
        <ele>1179.4</ele>
        <time>2021-03-23T14:03:25Z</time>
      </trkpt>
      <trkpt lat="45.23558" lon="5.9854">
        <ele>1178.5</ele>
        <time>2021-03-23T14:03:37Z</time>
      </trkpt>
      <trkpt lat="45.23568" lon="5.98532">
        <ele>1177.4</ele>
        <time>2021-03-23T14:03:49Z</time>
      </trkpt>
      <trkpt lat="45.23611" lon="5.98488">
        <ele>1172.3</ele>
        <time>2021-03-23T14:04:38Z</time>
      </trkpt>
      <trkpt lat="45.23624" lon="5.98478">
        <ele>1170.8</ele>
        <time>2021-03-23T14:04:43Z</time>
      </trkpt>
      <trkpt lat="45.23644" lon="5.98473">
        <ele>1168.9</ele>
        <time>2021-03-23T14:04:58Z</time>
      </trkpt>
      <trkpt lat="45.23677" lon="5.9848">
        <ele>1165.7</ele>
        <time>2021-03-23T14:05:06Z</time>
      </trkpt>
      <trkpt lat="45.23689" lon="5.98481">
        <ele>1164.5</ele>
        <time>2021-03-23T14:05:08Z</time>
      </trkpt>
      <trkpt lat="45.23701" lon="5.98478">
        <ele>1163.3</ele>
        <time>2021-03-23T14:05:10Z</time>
      </trkpt>
      <trkpt lat="45.23721" lon="5.98461">
        <ele>1161</ele>
        <time>2021-03-23T14:05:15Z</time>
      </trkpt>
      <trkpt lat="45.23741" lon="5.98454">
        <ele>1159</ele>
        <time>2021-03-23T14:05:40Z</time>
      </trkpt>
      <trkpt lat="45.2375" lon="5.98448">
        <ele>1158.1</ele>
        <time>2021-03-23T14:05:42Z</time>
      </trkpt>
      <trkpt lat="45.23776" lon="5.98422">
        <ele>1155</ele>
        <time>2021-03-23T14:05:51Z</time>
      </trkpt>
      <trkpt lat="45.23787" lon="5.98418">
        <ele>1153.9</ele>
        <time>2021-03-23T14:05:54Z</time>
      </trkpt>
      <trkpt lat="45.23795" lon="5.98418">
        <ele>1153.1</ele>
        <time>2021-03-23T14:05:56Z</time>
      </trkpt>
      <trkpt lat="45.2381" lon="5.98423">
        <ele>1151.7</ele>
        <time>2021-03-23T14:06:00Z</time>
      </trkpt>
      <trkpt lat="45.23841" lon="5.98427">
        <ele>1148.6</ele>
        <time>2021-03-23T14:06:09Z</time>
      </trkpt>
      <trkpt lat="45.2385" lon="5.9843">
        <ele>1147.7</ele>
        <time>2021-03-23T14:06:13Z</time>
      </trkpt>
      <trkpt lat="45.23863" lon="5.98433">
        <ele>1146.4</ele>
        <time>2021-03-23T14:06:17Z</time>
      </trkpt>
      <trkpt lat="45.23898" lon="5.9843">
        <ele>1143</ele>
        <time>2021-03-23T14:06:27Z</time>
      </trkpt>
      <trkpt lat="45.23892" lon="5.98429">
        <ele>1142.3</ele>
        <time>2021-03-23T14:06:57Z</time>
      </trkpt>
      <trkpt lat="45.2389" lon="5.98425">
        <ele>1141.9</ele>
        <time>2021-03-23T14:07:05Z</time>
      </trkpt>
      <trkpt lat="45.23885" lon="5.98434">
        <ele>1141.2</ele>
        <time>2021-03-23T14:07:28Z</time>
      </trkpt>
      <trkpt lat="45.23891" lon="5.98432">
        <ele>1140.5</ele>
        <time>2021-03-23T14:07:35Z</time>
      </trkpt>
      <trkpt lat="45.23897" lon="5.98427">
        <ele>1139.9</ele>
        <time>2021-03-23T14:07:38Z</time>
      </trkpt>
      <trkpt lat="45.23901" lon="5.98416">
        <ele>1139</ele>
        <time>2021-03-23T14:07:45Z</time>
      </trkpt>
      <trkpt lat="45.23904" lon="5.98415">
        <ele>1138.7</ele>
        <time>2021-03-23T14:07:51Z</time>
      </trkpt>
      <trkpt lat="45.23905" lon="5.98418">
        <ele>1138.4</ele>
        <time>2021-03-23T14:07:59Z</time>
      </trkpt>
      <trkpt lat="45.23907" lon="5.98387">
        <ele>1136.3</ele>
        <time>2021-03-23T14:08:16Z</time>
      </trkpt>
      <trkpt lat="45.23913" lon="5.98368">
        <ele>1134.9</ele>
        <time>2021-03-23T14:08:26Z</time>
      </trkpt>
      <trkpt lat="45.23919" lon="5.98359">
        <ele>1134.1</ele>
        <time>2021-03-23T14:08:32Z</time>
      </trkpt>
      <trkpt lat="45.23952" lon="5.98338">
        <ele>1130.5</ele>
        <time>2021-03-23T14:09:06Z</time>
      </trkpt>
      <trkpt lat="45.23959" lon="5.98332">
        <ele>1129.7</ele>
        <time>2021-03-23T14:09:13Z</time>
      </trkpt>
      <trkpt lat="45.23969" lon="5.98319">
        <ele>1128.4</ele>
        <time>2021-03-23T14:09:24Z</time>
      </trkpt>
      <trkpt lat="45.23982" lon="5.98311">
        <ele>1127</ele>
        <time>2021-03-23T14:09:38Z</time>
      </trkpt>
      <trkpt lat="45.23984" lon="5.98305">
        <ele>1126.5</ele>
        <time>2021-03-23T14:09:41Z</time>
      </trkpt>
      <trkpt lat="45.23987" lon="5.98301">
        <ele>1126.2</ele>
        <time>2021-03-23T14:09:44Z</time>
      </trkpt>
      <trkpt lat="45.23997" lon="5.98298">
        <ele>1125.2</ele>
        <time>2021-03-23T14:09:52Z</time>
      </trkpt>
      <trkpt lat="45.24014" lon="5.983">
        <ele>1123.5</ele>
        <time>2021-03-23T14:10:00Z</time>
      </trkpt>
      <trkpt lat="45.24037" lon="5.98294">
        <ele>1121.2</ele>
        <time>2021-03-23T14:10:18Z</time>
      </trkpt>
      <trkpt lat="45.24047" lon="5.9829">
        <ele>1120.1</ele>
        <time>2021-03-23T14:10:23Z</time>
      </trkpt>
      <trkpt lat="45.24069" lon="5.98272">
        <ele>1117.8</ele>
        <time>2021-03-23T14:10:42Z</time>
      </trkpt>
      <trkpt lat="45.24081" lon="5.98257">
        <ele>1116.4</ele>
        <time>2021-03-23T14:10:51Z</time>
      </trkpt>
      <trkpt lat="45.24085" lon="5.98248">
        <ele>1115.9</ele>
        <time>2021-03-23T14:11:00Z</time>
      </trkpt>
      <trkpt lat="45.24079" lon="5.98253">
        <ele>1115.3</ele>
        <time>2021-03-23T14:11:40Z</time>
      </trkpt>
      <trkpt lat="45.24085" lon="5.98237">
        <ele>1114.3</ele>
        <time>2021-03-23T14:12:10Z</time>
      </trkpt>
      <trkpt lat="45.24089" lon="5.98216">
        <ele>1113</ele>
        <time>2021-03-23T14:12:14Z</time>
      </trkpt>
      <trkpt lat="45.24092" lon="5.98164">
        <ele>1110</ele>
        <time>2021-03-23T14:12:24Z</time>
      </trkpt>
      <trkpt lat="45.24095" lon="5.98155">
        <ele>1109.3</ele>
        <time>2021-03-23T14:12:26Z</time>
      </trkpt>
      <trkpt lat="45.24116" lon="5.98117">
        <ele>1106.4</ele>
        <time>2021-03-23T14:12:40Z</time>
      </trkpt>
      <trkpt lat="45.24115" lon="5.98115">
        <ele>1106.2</ele>
        <time>2021-03-23T14:12:44Z</time>
      </trkpt>
      <trkpt lat="45.24111" lon="5.9812">
        <ele>1105.8</ele>
        <time>2021-03-23T14:12:56Z</time>
      </trkpt>
      <trkpt lat="45.24111" lon="5.98123">
        <ele>1105.7</ele>
        <time>2021-03-23T14:13:00Z</time>
      </trkpt>
      <trkpt lat="45.24123" lon="5.9812">
        <ele>1104.7</ele>
        <time>2021-03-23T14:13:08Z</time>
      </trkpt>
      <trkpt lat="45.24141" lon="5.9811">
        <ele>1103.1</ele>
        <time>2021-03-23T14:13:20Z</time>
      </trkpt>
      <trkpt lat="45.24159" lon="5.98093">
        <ele>1101.2</ele>
        <time>2021-03-23T14:13:33Z</time>
      </trkpt>
      <trkpt lat="45.24171" lon="5.98074">
        <ele>1099.6</ele>
        <time>2021-03-23T14:13:44Z</time>
      </trkpt>
      <trkpt lat="45.24173" lon="5.9807">
        <ele>1099.4</ele>
        <time>2021-03-23T14:13:48Z</time>
      </trkpt>
      <trkpt lat="45.24172" lon="5.98069">
        <ele>1099.3</ele>
        <time>2021-03-23T14:13:51Z</time>
      </trkpt>
      <trkpt lat="45.24172" lon="5.98073">
        <ele>1099.1</ele>
        <time>2021-03-23T14:14:02Z</time>
      </trkpt>
      <trkpt lat="45.24179" lon="5.98067">
        <ele>1098.5</ele>
        <time>2021-03-23T14:14:08Z</time>
      </trkpt>
      <trkpt lat="45.24191" lon="5.98049">
        <ele>1097.2</ele>
        <time>2021-03-23T14:14:16Z</time>
      </trkpt>
      <trkpt lat="45.2422" lon="5.98025">
        <ele>1094.5</ele>
        <time>2021-03-23T14:14:27Z</time>
      </trkpt>
      <trkpt lat="45.24241" lon="5.98015">
        <ele>1092.5</ele>
        <time>2021-03-23T14:14:34Z</time>
      </trkpt>
      <trkpt lat="45.24253" lon="5.98004">
        <ele>1091.4</ele>
        <time>2021-03-23T14:14:40Z</time>
      </trkpt>
      <trkpt lat="45.24267" lon="5.98004">
        <ele>1090.4</ele>
        <time>2021-03-23T14:14:46Z</time>
      </trkpt>
      <trkpt lat="45.24271" lon="5.9801">
        <ele>1089.9</ele>
        <time>2021-03-23T14:14:50Z</time>
      </trkpt>
      <trkpt lat="45.24269" lon="5.98008">
        <ele>1089.7</ele>
        <time>2021-03-23T14:15:01Z</time>
      </trkpt>
      <trkpt lat="45.24267" lon="5.98009">
        <ele>1089.6</ele>
        <time>2021-03-23T14:15:10Z</time>
      </trkpt>
      <trkpt lat="45.24269" lon="5.98011">
        <ele>1089.4</ele>
        <time>2021-03-23T14:15:14Z</time>
      </trkpt>
      <trkpt lat="45.24284" lon="5.98004">
        <ele>1088</ele>
        <time>2021-03-23T14:15:26Z</time>
      </trkpt>
      <trkpt lat="45.24292" lon="5.97996">
        <ele>1087.3</ele>
        <time>2021-03-23T14:15:34Z</time>
      </trkpt>
      <trkpt lat="45.24303" lon="5.97994">
        <ele>1086</ele>
        <time>2021-03-23T14:17:52Z</time>
      </trkpt>
    </trkseg>
  </trk>
</gpx>